<?xml version="1.0" encoding="UTF-8" standalone="no" ?>
<gpx xmlns="http://www.topografix.com/GPX/1/1" xmlns:xsi="http://www.w3.org/2001/XMLSchema-instance" xsi:schemaLocation="http://www.topografix.com/GPX/1/1 http://www.topografix.com/GPX/1/1/gpx.xsd" version="1.1" creator="VisuGPX - https://www.visugpx.com">
  <metadata>
    <name>secteur Saverne - Dabo - Petite Pierre</name>
  </metadata>
  <trk>
    <name><![CDATA[secteur Saverne - Dabo - Petite Pierre_24]]></name>
    <trkseg>
      <trkpt lat="48.73514" lon="7.25095">
        <ele>219</ele>
        <time>2020-05-22T12:09:14Z</time>
      </trkpt>
      <trkpt lat="48.73514" lon="7.25095">
        <ele>219</ele>
        <time>2020-05-22T12:09:14Z</time>
      </trkpt>
      <trkpt lat="48.73514" lon="7.25095">
        <ele>219</ele>
        <time>2020-05-22T12:09:14Z</time>
      </trkpt>
      <trkpt lat="48.73514" lon="7.25095">
        <ele>219</ele>
        <time>2020-05-22T12:09:14Z</time>
      </trkpt>
      <trkpt lat="48.73514" lon="7.25095">
        <ele>219</ele>
        <time>2020-05-22T12:09:14Z</time>
      </trkpt>
      <trkpt lat="48.73514" lon="7.25095">
        <ele>219</ele>
        <time>2020-05-22T12:09:14Z</time>
      </trkpt>
      <trkpt lat="48.73514" lon="7.25095">
        <ele>219</ele>
        <time>2020-05-22T12:09:14Z</time>
      </trkpt>
      <trkpt lat="48.73509" lon="7.25092">
        <ele>218.8</ele>
        <time>2020-05-22T12:09:16Z</time>
      </trkpt>
      <trkpt lat="48.73502" lon="7.25083">
        <ele>218.7</ele>
        <time>2020-05-22T12:09:18Z</time>
      </trkpt>
      <trkpt lat="48.73499" lon="7.25076">
        <ele>218.5</ele>
        <time>2020-05-22T12:09:19Z</time>
      </trkpt>
      <trkpt lat="48.73492" lon="7.25062">
        <ele>218.2</ele>
        <time>2020-05-22T12:09:21Z</time>
      </trkpt>
      <trkpt lat="48.73486" lon="7.25047">
        <ele>217.9</ele>
        <time>2020-05-22T12:09:23Z</time>
      </trkpt>
      <trkpt lat="48.73479" lon="7.25035">
        <ele>217.8</ele>
        <time>2020-05-22T12:09:25Z</time>
      </trkpt>
      <trkpt lat="48.73474" lon="7.25021">
        <ele>217.7</ele>
        <time>2020-05-22T12:09:27Z</time>
      </trkpt>
      <trkpt lat="48.73471" lon="7.25015">
        <ele>217.7</ele>
        <time>2020-05-22T12:09:28Z</time>
      </trkpt>
      <trkpt lat="48.73468" lon="7.25009">
        <ele>217.6</ele>
        <time>2020-05-22T12:09:29Z</time>
      </trkpt>
      <trkpt lat="48.73462" lon="7.24997">
        <ele>217.5</ele>
        <time>2020-05-22T12:09:31Z</time>
      </trkpt>
      <trkpt lat="48.73459" lon="7.24991">
        <ele>217.5</ele>
        <time>2020-05-22T12:09:32Z</time>
      </trkpt>
      <trkpt lat="48.73453" lon="7.24978">
        <ele>217.5</ele>
        <time>2020-05-22T12:09:34Z</time>
      </trkpt>
      <trkpt lat="48.73446" lon="7.24967">
        <ele>217.4</ele>
        <time>2020-05-22T12:09:36Z</time>
      </trkpt>
      <trkpt lat="48.73438" lon="7.24957">
        <ele>217.3</ele>
        <time>2020-05-22T12:09:38Z</time>
      </trkpt>
      <trkpt lat="48.73433" lon="7.24953">
        <ele>217.3</ele>
        <time>2020-05-22T12:09:39Z</time>
      </trkpt>
      <trkpt lat="48.73425" lon="7.24944">
        <ele>217.3</ele>
        <time>2020-05-22T12:09:41Z</time>
      </trkpt>
      <trkpt lat="48.73418" lon="7.24937">
        <ele>217.3</ele>
        <time>2020-05-22T12:09:43Z</time>
      </trkpt>
      <trkpt lat="48.7341" lon="7.2493">
        <ele>217.3</ele>
        <time>2020-05-22T12:09:45Z</time>
      </trkpt>
      <trkpt lat="48.73405" lon="7.24928">
        <ele>217.2</ele>
        <time>2020-05-22T12:09:46Z</time>
      </trkpt>
      <trkpt lat="48.73396" lon="7.24923">
        <ele>217.2</ele>
        <time>2020-05-22T12:09:48Z</time>
      </trkpt>
      <trkpt lat="48.73387" lon="7.24918">
        <ele>217.2</ele>
        <time>2020-05-22T12:09:50Z</time>
      </trkpt>
      <trkpt lat="48.73382" lon="7.24916">
        <ele>217.1</ele>
        <time>2020-05-22T12:09:51Z</time>
      </trkpt>
      <trkpt lat="48.73377" lon="7.24914">
        <ele>217.1</ele>
        <time>2020-05-22T12:09:52Z</time>
      </trkpt>
      <trkpt lat="48.73368" lon="7.24911">
        <ele>217.1</ele>
        <time>2020-05-22T12:09:54Z</time>
      </trkpt>
      <trkpt lat="48.73359" lon="7.24909">
        <ele>217.1</ele>
        <time>2020-05-22T12:09:56Z</time>
      </trkpt>
      <trkpt lat="48.73354" lon="7.24907">
        <ele>217.1</ele>
        <time>2020-05-22T12:09:57Z</time>
      </trkpt>
      <trkpt lat="48.73349" lon="7.24907">
        <ele>217.1</ele>
        <time>2020-05-22T12:09:58Z</time>
      </trkpt>
      <trkpt lat="48.73345" lon="7.24906">
        <ele>217.1</ele>
        <time>2020-05-22T12:09:59Z</time>
      </trkpt>
      <trkpt lat="48.7334" lon="7.24905">
        <ele>217.1</ele>
        <time>2020-05-22T12:10:00Z</time>
      </trkpt>
      <trkpt lat="48.73335" lon="7.24904">
        <ele>217.1</ele>
        <time>2020-05-22T12:10:01Z</time>
      </trkpt>
      <trkpt lat="48.73326" lon="7.24906">
        <ele>217</ele>
        <time>2020-05-22T12:10:03Z</time>
      </trkpt>
      <trkpt lat="48.73316" lon="7.24908">
        <ele>217</ele>
        <time>2020-05-22T12:10:05Z</time>
      </trkpt>
      <trkpt lat="48.73311" lon="7.2491">
        <ele>217</ele>
        <time>2020-05-22T12:10:06Z</time>
      </trkpt>
      <trkpt lat="48.73302" lon="7.24913">
        <ele>217</ele>
        <time>2020-05-22T12:10:08Z</time>
      </trkpt>
      <trkpt lat="48.73293" lon="7.24917">
        <ele>217</ele>
        <time>2020-05-22T12:10:10Z</time>
      </trkpt>
      <trkpt lat="48.73289" lon="7.2492">
        <ele>217</ele>
        <time>2020-05-22T12:10:11Z</time>
      </trkpt>
      <trkpt lat="48.7328" lon="7.24925">
        <ele>217.1</ele>
        <time>2020-05-22T12:10:13Z</time>
      </trkpt>
      <trkpt lat="48.73274" lon="7.24924">
        <ele>217.1</ele>
        <time>2020-05-22T12:10:14Z</time>
      </trkpt>
      <trkpt lat="48.73268" lon="7.24919">
        <ele>217.6</ele>
        <time>2020-05-22T12:10:16Z</time>
      </trkpt>
      <trkpt lat="48.73268" lon="7.24909">
        <ele>217.8</ele>
        <time>2020-05-22T12:10:18Z</time>
      </trkpt>
      <trkpt lat="48.73268" lon="7.24903">
        <ele>217.9</ele>
        <time>2020-05-22T12:10:19Z</time>
      </trkpt>
      <trkpt lat="48.73268" lon="7.24897">
        <ele>218.1</ele>
        <time>2020-05-22T12:10:20Z</time>
      </trkpt>
      <trkpt lat="48.73267" lon="7.24887">
        <ele>218.4</ele>
        <time>2020-05-22T12:10:22Z</time>
      </trkpt>
      <trkpt lat="48.73267" lon="7.24881">
        <ele>218.5</ele>
        <time>2020-05-22T12:10:23Z</time>
      </trkpt>
      <trkpt lat="48.73266" lon="7.24871">
        <ele>218.8</ele>
        <time>2020-05-22T12:10:25Z</time>
      </trkpt>
      <trkpt lat="48.73265" lon="7.2486">
        <ele>219.2</ele>
        <time>2020-05-22T12:10:27Z</time>
      </trkpt>
      <trkpt lat="48.73265" lon="7.24855">
        <ele>219.3</ele>
        <time>2020-05-22T12:10:28Z</time>
      </trkpt>
      <trkpt lat="48.73264" lon="7.24845">
        <ele>219.6</ele>
        <time>2020-05-22T12:10:30Z</time>
      </trkpt>
      <trkpt lat="48.73263" lon="7.24839">
        <ele>219.8</ele>
        <time>2020-05-22T12:10:31Z</time>
      </trkpt>
      <trkpt lat="48.73263" lon="7.24829">
        <ele>220</ele>
        <time>2020-05-22T12:10:33Z</time>
      </trkpt>
      <trkpt lat="48.73262" lon="7.24823">
        <ele>220.2</ele>
        <time>2020-05-22T12:10:34Z</time>
      </trkpt>
      <trkpt lat="48.73263" lon="7.24812">
        <ele>220.4</ele>
        <time>2020-05-22T12:10:36Z</time>
      </trkpt>
      <trkpt lat="48.73263" lon="7.248">
        <ele>220.7</ele>
        <time>2020-05-22T12:10:38Z</time>
      </trkpt>
      <trkpt lat="48.73264" lon="7.24794">
        <ele>220.8</ele>
        <time>2020-05-22T12:10:39Z</time>
      </trkpt>
      <trkpt lat="48.73264" lon="7.24783">
        <ele>221.2</ele>
        <time>2020-05-22T12:10:41Z</time>
      </trkpt>
      <trkpt lat="48.73262" lon="7.2478">
        <ele>221.3</ele>
        <time>2020-05-22T12:10:42Z</time>
      </trkpt>
      <trkpt lat="48.73257" lon="7.24781">
        <ele>221.6</ele>
        <time>2020-05-22T12:10:44Z</time>
      </trkpt>
      <trkpt lat="48.73255" lon="7.24787">
        <ele>221.8</ele>
        <time>2020-05-22T12:10:46Z</time>
      </trkpt>
      <trkpt lat="48.73254" lon="7.2479">
        <ele>222</ele>
        <time>2020-05-22T12:10:47Z</time>
      </trkpt>
      <trkpt lat="48.73251" lon="7.24797">
        <ele>222.4</ele>
        <time>2020-05-22T12:10:49Z</time>
      </trkpt>
      <trkpt lat="48.73251" lon="7.24802">
        <ele>222.7</ele>
        <time>2020-05-22T12:10:50Z</time>
      </trkpt>
      <trkpt lat="48.73251" lon="7.24804">
        <ele>222.8</ele>
        <time>2020-05-22T12:10:51Z</time>
      </trkpt>
      <trkpt lat="48.7325" lon="7.2481">
        <ele>223.2</ele>
        <time>2020-05-22T12:10:53Z</time>
      </trkpt>
      <trkpt lat="48.7325" lon="7.24813">
        <ele>223.4</ele>
        <time>2020-05-22T12:10:54Z</time>
      </trkpt>
      <trkpt lat="48.7325" lon="7.24817">
        <ele>223.7</ele>
        <time>2020-05-22T12:10:56Z</time>
      </trkpt>
      <trkpt lat="48.7325" lon="7.24822">
        <ele>224</ele>
        <time>2020-05-22T12:10:58Z</time>
      </trkpt>
      <trkpt lat="48.7325" lon="7.24828">
        <ele>224.4</ele>
        <time>2020-05-22T12:11:00Z</time>
      </trkpt>
      <trkpt lat="48.7325" lon="7.2483">
        <ele>224.6</ele>
        <time>2020-05-22T12:11:01Z</time>
      </trkpt>
      <trkpt lat="48.73249" lon="7.24836">
        <ele>225</ele>
        <time>2020-05-22T12:11:03Z</time>
      </trkpt>
      <trkpt lat="48.73248" lon="7.24838">
        <ele>225.2</ele>
        <time>2020-05-22T12:11:04Z</time>
      </trkpt>
      <trkpt lat="48.73247" lon="7.24842">
        <ele>225.5</ele>
        <time>2020-05-22T12:11:06Z</time>
      </trkpt>
      <trkpt lat="48.73246" lon="7.24847">
        <ele>225.8</ele>
        <time>2020-05-22T12:11:08Z</time>
      </trkpt>
      <trkpt lat="48.73246" lon="7.24849">
        <ele>226</ele>
        <time>2020-05-22T12:11:09Z</time>
      </trkpt>
      <trkpt lat="48.73245" lon="7.24854">
        <ele>226.4</ele>
        <time>2020-05-22T12:11:11Z</time>
      </trkpt>
      <trkpt lat="48.73245" lon="7.24856">
        <ele>226.5</ele>
        <time>2020-05-22T12:11:12Z</time>
      </trkpt>
      <trkpt lat="48.73245" lon="7.24858">
        <ele>226.7</ele>
        <time>2020-05-22T12:11:13Z</time>
      </trkpt>
      <trkpt lat="48.73244" lon="7.24863">
        <ele>227.2</ele>
        <time>2020-05-22T12:11:15Z</time>
      </trkpt>
      <trkpt lat="48.73243" lon="7.24866">
        <ele>227.4</ele>
        <time>2020-05-22T12:11:16Z</time>
      </trkpt>
      <trkpt lat="48.73242" lon="7.24868">
        <ele>227.6</ele>
        <time>2020-05-22T12:11:17Z</time>
      </trkpt>
      <trkpt lat="48.73242" lon="7.24873">
        <ele>228</ele>
        <time>2020-05-22T12:11:19Z</time>
      </trkpt>
      <trkpt lat="48.73241" lon="7.24875">
        <ele>228.2</ele>
        <time>2020-05-22T12:11:20Z</time>
      </trkpt>
      <trkpt lat="48.73241" lon="7.24879">
        <ele>228.6</ele>
        <time>2020-05-22T12:11:22Z</time>
      </trkpt>
      <trkpt lat="48.7324" lon="7.24885">
        <ele>229.1</ele>
        <time>2020-05-22T12:11:24Z</time>
      </trkpt>
      <trkpt lat="48.7324" lon="7.24887">
        <ele>229.3</ele>
        <time>2020-05-22T12:11:25Z</time>
      </trkpt>
      <trkpt lat="48.73239" lon="7.24892">
        <ele>229.9</ele>
        <time>2020-05-22T12:11:27Z</time>
      </trkpt>
      <trkpt lat="48.73238" lon="7.24895">
        <ele>230.1</ele>
        <time>2020-05-22T12:11:28Z</time>
      </trkpt>
      <trkpt lat="48.73237" lon="7.249">
        <ele>230.7</ele>
        <time>2020-05-22T12:11:30Z</time>
      </trkpt>
      <trkpt lat="48.73236" lon="7.24903">
        <ele>230.9</ele>
        <time>2020-05-22T12:11:31Z</time>
      </trkpt>
      <trkpt lat="48.73234" lon="7.24907">
        <ele>231.5</ele>
        <time>2020-05-22T12:11:33Z</time>
      </trkpt>
      <trkpt lat="48.73231" lon="7.24913">
        <ele>232.2</ele>
        <time>2020-05-22T12:11:35Z</time>
      </trkpt>
      <trkpt lat="48.73229" lon="7.24915">
        <ele>232.4</ele>
        <time>2020-05-22T12:11:37Z</time>
      </trkpt>
      <trkpt lat="48.73228" lon="7.24917">
        <ele>232.6</ele>
        <time>2020-05-22T12:11:38Z</time>
      </trkpt>
      <trkpt lat="48.73227" lon="7.24919">
        <ele>232.9</ele>
        <time>2020-05-22T12:11:39Z</time>
      </trkpt>
      <trkpt lat="48.73225" lon="7.24923">
        <ele>233.4</ele>
        <time>2020-05-22T12:11:41Z</time>
      </trkpt>
      <trkpt lat="48.73223" lon="7.24925">
        <ele>233.8</ele>
        <time>2020-05-22T12:11:42Z</time>
      </trkpt>
      <trkpt lat="48.7322" lon="7.24929">
        <ele>234.4</ele>
        <time>2020-05-22T12:11:44Z</time>
      </trkpt>
      <trkpt lat="48.73217" lon="7.24932">
        <ele>234.9</ele>
        <time>2020-05-22T12:11:46Z</time>
      </trkpt>
      <trkpt lat="48.73214" lon="7.24934">
        <ele>235.4</ele>
        <time>2020-05-22T12:11:48Z</time>
      </trkpt>
      <trkpt lat="48.73214" lon="7.24932">
        <ele>235.6</ele>
        <time>2020-05-22T12:11:50Z</time>
      </trkpt>
      <trkpt lat="48.73215" lon="7.2493">
        <ele>235.8</ele>
        <time>2020-05-22T12:11:52Z</time>
      </trkpt>
      <trkpt lat="48.73215" lon="7.2493">
        <ele>235.8</ele>
        <time>2020-05-22T12:11:53Z</time>
      </trkpt>
      <trkpt lat="48.73215" lon="7.2493">
        <ele>235.8</ele>
        <time>2020-05-22T12:11:55Z</time>
      </trkpt>
      <trkpt lat="48.73215" lon="7.2493">
        <ele>235.8</ele>
        <time>2020-05-22T12:11:56Z</time>
      </trkpt>
      <trkpt lat="48.73215" lon="7.2493">
        <ele>235.9</ele>
        <time>2020-05-22T12:11:58Z</time>
      </trkpt>
      <trkpt lat="48.73215" lon="7.2493">
        <ele>235.9</ele>
        <time>2020-05-22T12:12:00Z</time>
      </trkpt>
      <trkpt lat="48.73215" lon="7.2493">
        <ele>235.9</ele>
        <time>2020-05-22T12:12:02Z</time>
      </trkpt>
      <trkpt lat="48.73216" lon="7.24934">
        <ele>236.4</ele>
        <time>2020-05-22T12:12:19Z</time>
      </trkpt>
      <trkpt lat="48.73216" lon="7.24934">
        <ele>236.4</ele>
        <time>2020-05-22T12:12:20Z</time>
      </trkpt>
      <trkpt lat="48.73216" lon="7.24934">
        <ele>236.4</ele>
        <time>2020-05-22T12:12:21Z</time>
      </trkpt>
      <trkpt lat="48.73216" lon="7.24934">
        <ele>236.4</ele>
        <time>2020-05-22T12:12:22Z</time>
      </trkpt>
      <trkpt lat="48.73216" lon="7.24935">
        <ele>236.6</ele>
        <time>2020-05-22T12:12:24Z</time>
      </trkpt>
      <trkpt lat="48.73216" lon="7.24935">
        <ele>236.6</ele>
        <time>2020-05-22T12:12:26Z</time>
      </trkpt>
      <trkpt lat="48.73216" lon="7.24934">
        <ele>236.7</ele>
        <time>2020-05-22T12:12:28Z</time>
      </trkpt>
      <trkpt lat="48.73216" lon="7.24934">
        <ele>236.7</ele>
        <time>2020-05-22T12:12:30Z</time>
      </trkpt>
      <trkpt lat="48.73216" lon="7.24934">
        <ele>236.7</ele>
        <time>2020-05-22T12:12:32Z</time>
      </trkpt>
      <trkpt lat="48.73216" lon="7.24934">
        <ele>236.8</ele>
        <time>2020-05-22T12:12:34Z</time>
      </trkpt>
      <trkpt lat="48.73213" lon="7.24937">
        <ele>237.3</ele>
        <time>2020-05-22T12:12:50Z</time>
      </trkpt>
      <trkpt lat="48.73212" lon="7.24938">
        <ele>237.5</ele>
        <time>2020-05-22T12:12:51Z</time>
      </trkpt>
      <trkpt lat="48.73208" lon="7.24941">
        <ele>238.1</ele>
        <time>2020-05-22T12:12:53Z</time>
      </trkpt>
      <trkpt lat="48.73207" lon="7.24942">
        <ele>238.4</ele>
        <time>2020-05-22T12:12:54Z</time>
      </trkpt>
      <trkpt lat="48.73205" lon="7.24943">
        <ele>238.7</ele>
        <time>2020-05-22T12:12:55Z</time>
      </trkpt>
      <trkpt lat="48.73203" lon="7.24944">
        <ele>238.9</ele>
        <time>2020-05-22T12:12:56Z</time>
      </trkpt>
      <trkpt lat="48.73201" lon="7.24945">
        <ele>239.3</ele>
        <time>2020-05-22T12:12:58Z</time>
      </trkpt>
      <trkpt lat="48.73199" lon="7.24946">
        <ele>239.6</ele>
        <time>2020-05-22T12:12:59Z</time>
      </trkpt>
      <trkpt lat="48.73196" lon="7.24948">
        <ele>240.1</ele>
        <time>2020-05-22T12:13:01Z</time>
      </trkpt>
      <trkpt lat="48.73194" lon="7.24948">
        <ele>240.4</ele>
        <time>2020-05-22T12:13:02Z</time>
      </trkpt>
      <trkpt lat="48.7319" lon="7.24949">
        <ele>240.8</ele>
        <time>2020-05-22T12:13:04Z</time>
      </trkpt>
      <trkpt lat="48.73187" lon="7.2495">
        <ele>241.2</ele>
        <time>2020-05-22T12:13:05Z</time>
      </trkpt>
      <trkpt lat="48.73186" lon="7.2495">
        <ele>241.4</ele>
        <time>2020-05-22T12:13:06Z</time>
      </trkpt>
      <trkpt lat="48.73182" lon="7.24953">
        <ele>241.9</ele>
        <time>2020-05-22T12:13:08Z</time>
      </trkpt>
      <trkpt lat="48.73177" lon="7.24955">
        <ele>242.3</ele>
        <time>2020-05-22T12:13:10Z</time>
      </trkpt>
      <trkpt lat="48.73174" lon="7.24958">
        <ele>242.7</ele>
        <time>2020-05-22T12:13:12Z</time>
      </trkpt>
      <trkpt lat="48.73172" lon="7.24959">
        <ele>242.8</ele>
        <time>2020-05-22T12:13:13Z</time>
      </trkpt>
      <trkpt lat="48.73168" lon="7.24961">
        <ele>243.3</ele>
        <time>2020-05-22T12:13:15Z</time>
      </trkpt>
      <trkpt lat="48.73164" lon="7.24963">
        <ele>243.6</ele>
        <time>2020-05-22T12:13:17Z</time>
      </trkpt>
      <trkpt lat="48.7316" lon="7.24964">
        <ele>244.1</ele>
        <time>2020-05-22T12:13:19Z</time>
      </trkpt>
      <trkpt lat="48.73155" lon="7.24966">
        <ele>244.6</ele>
        <time>2020-05-22T12:13:21Z</time>
      </trkpt>
      <trkpt lat="48.73152" lon="7.24967">
        <ele>245</ele>
        <time>2020-05-22T12:13:23Z</time>
      </trkpt>
      <trkpt lat="48.73148" lon="7.24966">
        <ele>245.4</ele>
        <time>2020-05-22T12:13:25Z</time>
      </trkpt>
      <trkpt lat="48.73146" lon="7.24967">
        <ele>245.6</ele>
        <time>2020-05-22T12:13:26Z</time>
      </trkpt>
      <trkpt lat="48.73143" lon="7.24966">
        <ele>246.1</ele>
        <time>2020-05-22T12:13:28Z</time>
      </trkpt>
      <trkpt lat="48.7314" lon="7.24965">
        <ele>246.5</ele>
        <time>2020-05-22T12:13:29Z</time>
      </trkpt>
      <trkpt lat="48.73139" lon="7.24965">
        <ele>246.7</ele>
        <time>2020-05-22T12:13:30Z</time>
      </trkpt>
      <trkpt lat="48.73137" lon="7.24964">
        <ele>246.9</ele>
        <time>2020-05-22T12:13:31Z</time>
      </trkpt>
      <trkpt lat="48.73135" lon="7.24963">
        <ele>247.3</ele>
        <time>2020-05-22T12:13:33Z</time>
      </trkpt>
      <trkpt lat="48.73132" lon="7.24962">
        <ele>247.7</ele>
        <time>2020-05-22T12:13:34Z</time>
      </trkpt>
      <trkpt lat="48.73131" lon="7.24961">
        <ele>247.8</ele>
        <time>2020-05-22T12:13:35Z</time>
      </trkpt>
      <trkpt lat="48.73129" lon="7.24961">
        <ele>248.1</ele>
        <time>2020-05-22T12:13:36Z</time>
      </trkpt>
      <trkpt lat="48.73127" lon="7.2496">
        <ele>248.4</ele>
        <time>2020-05-22T12:13:38Z</time>
      </trkpt>
      <trkpt lat="48.73126" lon="7.24961">
        <ele>248.6</ele>
        <time>2020-05-22T12:13:39Z</time>
      </trkpt>
      <trkpt lat="48.73122" lon="7.24961">
        <ele>248.9</ele>
        <time>2020-05-22T12:13:41Z</time>
      </trkpt>
      <trkpt lat="48.7312" lon="7.2496">
        <ele>249.2</ele>
        <time>2020-05-22T12:13:42Z</time>
      </trkpt>
      <trkpt lat="48.73116" lon="7.24956">
        <ele>249.6</ele>
        <time>2020-05-22T12:13:44Z</time>
      </trkpt>
      <trkpt lat="48.73115" lon="7.24953">
        <ele>249.8</ele>
        <time>2020-05-22T12:13:45Z</time>
      </trkpt>
      <trkpt lat="48.73115" lon="7.24947">
        <ele>250</ele>
        <time>2020-05-22T12:13:47Z</time>
      </trkpt>
      <trkpt lat="48.73115" lon="7.24939">
        <ele>250.2</ele>
        <time>2020-05-22T12:13:49Z</time>
      </trkpt>
      <trkpt lat="48.73115" lon="7.24936">
        <ele>250.3</ele>
        <time>2020-05-22T12:13:50Z</time>
      </trkpt>
      <trkpt lat="48.73117" lon="7.24929">
        <ele>250.4</ele>
        <time>2020-05-22T12:13:52Z</time>
      </trkpt>
      <trkpt lat="48.7312" lon="7.24925">
        <ele>250.5</ele>
        <time>2020-05-22T12:13:53Z</time>
      </trkpt>
      <trkpt lat="48.73121" lon="7.24924">
        <ele>250.5</ele>
        <time>2020-05-22T12:13:54Z</time>
      </trkpt>
      <trkpt lat="48.73124" lon="7.24919">
        <ele>250.5</ele>
        <time>2020-05-22T12:13:56Z</time>
      </trkpt>
      <trkpt lat="48.73126" lon="7.24912">
        <ele>250.5</ele>
        <time>2020-05-22T12:13:58Z</time>
      </trkpt>
      <trkpt lat="48.73129" lon="7.24903">
        <ele>250.5</ele>
        <time>2020-05-22T12:14:00Z</time>
      </trkpt>
      <trkpt lat="48.73129" lon="7.24899">
        <ele>250.5</ele>
        <time>2020-05-22T12:14:01Z</time>
      </trkpt>
      <trkpt lat="48.73129" lon="7.24895">
        <ele>250.5</ele>
        <time>2020-05-22T12:14:02Z</time>
      </trkpt>
      <trkpt lat="48.73128" lon="7.2489">
        <ele>250.5</ele>
        <time>2020-05-22T12:14:03Z</time>
      </trkpt>
      <trkpt lat="48.73124" lon="7.24878">
        <ele>250.3</ele>
        <time>2020-05-22T12:14:05Z</time>
      </trkpt>
      <trkpt lat="48.73121" lon="7.24875">
        <ele>250.3</ele>
        <time>2020-05-22T12:14:06Z</time>
      </trkpt>
      <trkpt lat="48.73109" lon="7.24868">
        <ele>250.1</ele>
        <time>2020-05-22T12:14:08Z</time>
      </trkpt>
      <trkpt lat="48.73104" lon="7.24865">
        <ele>250.1</ele>
        <time>2020-05-22T12:14:09Z</time>
      </trkpt>
      <trkpt lat="48.73096" lon="7.24858">
        <ele>250.2</ele>
        <time>2020-05-22T12:14:11Z</time>
      </trkpt>
      <trkpt lat="48.73091" lon="7.24854">
        <ele>250.2</ele>
        <time>2020-05-22T12:14:12Z</time>
      </trkpt>
      <trkpt lat="48.73087" lon="7.24852">
        <ele>250.3</ele>
        <time>2020-05-22T12:14:13Z</time>
      </trkpt>
      <trkpt lat="48.73082" lon="7.24851">
        <ele>250.4</ele>
        <time>2020-05-22T12:14:14Z</time>
      </trkpt>
      <trkpt lat="48.73075" lon="7.24849">
        <ele>250.6</ele>
        <time>2020-05-22T12:14:16Z</time>
      </trkpt>
      <trkpt lat="48.73071" lon="7.24849">
        <ele>250.7</ele>
        <time>2020-05-22T12:14:17Z</time>
      </trkpt>
      <trkpt lat="48.73067" lon="7.24847">
        <ele>250.8</ele>
        <time>2020-05-22T12:14:18Z</time>
      </trkpt>
      <trkpt lat="48.73064" lon="7.24843">
        <ele>251</ele>
        <time>2020-05-22T12:14:19Z</time>
      </trkpt>
      <trkpt lat="48.73061" lon="7.24835">
        <ele>251.2</ele>
        <time>2020-05-22T12:14:21Z</time>
      </trkpt>
      <trkpt lat="48.73059" lon="7.24825">
        <ele>251.6</ele>
        <time>2020-05-22T12:14:23Z</time>
      </trkpt>
      <trkpt lat="48.73058" lon="7.2482">
        <ele>251.7</ele>
        <time>2020-05-22T12:14:24Z</time>
      </trkpt>
      <trkpt lat="48.73056" lon="7.24811">
        <ele>252</ele>
        <time>2020-05-22T12:14:26Z</time>
      </trkpt>
      <trkpt lat="48.73055" lon="7.24806">
        <ele>252.2</ele>
        <time>2020-05-22T12:14:27Z</time>
      </trkpt>
      <trkpt lat="48.73052" lon="7.24799">
        <ele>252.5</ele>
        <time>2020-05-22T12:14:29Z</time>
      </trkpt>
      <trkpt lat="48.73051" lon="7.24794">
        <ele>252.7</ele>
        <time>2020-05-22T12:14:30Z</time>
      </trkpt>
      <trkpt lat="48.7305" lon="7.24785">
        <ele>253</ele>
        <time>2020-05-22T12:14:32Z</time>
      </trkpt>
      <trkpt lat="48.73049" lon="7.24774">
        <ele>253.5</ele>
        <time>2020-05-22T12:14:34Z</time>
      </trkpt>
      <trkpt lat="48.73048" lon="7.24764">
        <ele>254</ele>
        <time>2020-05-22T12:14:36Z</time>
      </trkpt>
      <trkpt lat="48.73047" lon="7.24759">
        <ele>254.2</ele>
        <time>2020-05-22T12:14:37Z</time>
      </trkpt>
      <trkpt lat="48.73046" lon="7.24757">
        <ele>254.3</ele>
        <time>2020-05-22T12:14:38Z</time>
      </trkpt>
      <trkpt lat="48.73044" lon="7.2475">
        <ele>254.7</ele>
        <time>2020-05-22T12:14:40Z</time>
      </trkpt>
      <trkpt lat="48.73043" lon="7.24743">
        <ele>255.1</ele>
        <time>2020-05-22T12:14:42Z</time>
      </trkpt>
      <trkpt lat="48.73043" lon="7.24739">
        <ele>255.3</ele>
        <time>2020-05-22T12:14:43Z</time>
      </trkpt>
      <trkpt lat="48.73043" lon="7.24729">
        <ele>255.8</ele>
        <time>2020-05-22T12:14:45Z</time>
      </trkpt>
      <trkpt lat="48.73043" lon="7.24725">
        <ele>256</ele>
        <time>2020-05-22T12:14:46Z</time>
      </trkpt>
      <trkpt lat="48.73043" lon="7.2472">
        <ele>256.2</ele>
        <time>2020-05-22T12:14:47Z</time>
      </trkpt>
      <trkpt lat="48.73042" lon="7.24719">
        <ele>256.3</ele>
        <time>2020-05-22T12:14:48Z</time>
      </trkpt>
      <trkpt lat="48.7304" lon="7.24714">
        <ele>256.6</ele>
        <time>2020-05-22T12:14:50Z</time>
      </trkpt>
      <trkpt lat="48.73038" lon="7.24711">
        <ele>256.8</ele>
        <time>2020-05-22T12:14:51Z</time>
      </trkpt>
      <trkpt lat="48.73035" lon="7.24699">
        <ele>257.4</ele>
        <time>2020-05-22T12:14:53Z</time>
      </trkpt>
      <trkpt lat="48.73034" lon="7.2469">
        <ele>257.8</ele>
        <time>2020-05-22T12:14:55Z</time>
      </trkpt>
      <trkpt lat="48.73033" lon="7.24682">
        <ele>258.2</ele>
        <time>2020-05-22T12:14:57Z</time>
      </trkpt>
      <trkpt lat="48.73032" lon="7.24674">
        <ele>258.5</ele>
        <time>2020-05-22T12:14:59Z</time>
      </trkpt>
      <trkpt lat="48.73032" lon="7.24665">
        <ele>259</ele>
        <time>2020-05-22T12:15:01Z</time>
      </trkpt>
      <trkpt lat="48.73031" lon="7.24661">
        <ele>259.2</ele>
        <time>2020-05-22T12:15:02Z</time>
      </trkpt>
      <trkpt lat="48.73031" lon="7.24653">
        <ele>259.6</ele>
        <time>2020-05-22T12:15:04Z</time>
      </trkpt>
      <trkpt lat="48.73029" lon="7.24645">
        <ele>260.1</ele>
        <time>2020-05-22T12:15:06Z</time>
      </trkpt>
      <trkpt lat="48.73029" lon="7.24641">
        <ele>260.3</ele>
        <time>2020-05-22T12:15:07Z</time>
      </trkpt>
      <trkpt lat="48.73027" lon="7.24633">
        <ele>260.8</ele>
        <time>2020-05-22T12:15:09Z</time>
      </trkpt>
      <trkpt lat="48.73026" lon="7.24627">
        <ele>261.1</ele>
        <time>2020-05-22T12:15:10Z</time>
      </trkpt>
      <trkpt lat="48.73026" lon="7.24625">
        <ele>261.2</ele>
        <time>2020-05-22T12:15:11Z</time>
      </trkpt>
      <trkpt lat="48.73025" lon="7.24621">
        <ele>261.4</ele>
        <time>2020-05-22T12:15:12Z</time>
      </trkpt>
      <trkpt lat="48.73023" lon="7.24611">
        <ele>261.9</ele>
        <time>2020-05-22T12:15:14Z</time>
      </trkpt>
      <trkpt lat="48.73022" lon="7.24606">
        <ele>262.2</ele>
        <time>2020-05-22T12:15:15Z</time>
      </trkpt>
      <trkpt lat="48.73022" lon="7.24595">
        <ele>262.7</ele>
        <time>2020-05-22T12:15:17Z</time>
      </trkpt>
      <trkpt lat="48.73021" lon="7.2459">
        <ele>263</ele>
        <time>2020-05-22T12:15:18Z</time>
      </trkpt>
      <trkpt lat="48.7302" lon="7.2458">
        <ele>263.6</ele>
        <time>2020-05-22T12:15:20Z</time>
      </trkpt>
      <trkpt lat="48.73018" lon="7.24576">
        <ele>263.8</ele>
        <time>2020-05-22T12:15:21Z</time>
      </trkpt>
      <trkpt lat="48.73016" lon="7.24573">
        <ele>264.1</ele>
        <time>2020-05-22T12:15:22Z</time>
      </trkpt>
      <trkpt lat="48.73013" lon="7.24566">
        <ele>264.5</ele>
        <time>2020-05-22T12:15:24Z</time>
      </trkpt>
      <trkpt lat="48.73011" lon="7.24558">
        <ele>265</ele>
        <time>2020-05-22T12:15:26Z</time>
      </trkpt>
      <trkpt lat="48.73009" lon="7.24553">
        <ele>265.3</ele>
        <time>2020-05-22T12:15:27Z</time>
      </trkpt>
      <trkpt lat="48.73007" lon="7.24547">
        <ele>265.7</ele>
        <time>2020-05-22T12:15:29Z</time>
      </trkpt>
      <trkpt lat="48.73004" lon="7.2454">
        <ele>266</ele>
        <time>2020-05-22T12:15:31Z</time>
      </trkpt>
      <trkpt lat="48.73003" lon="7.24536">
        <ele>266.3</ele>
        <time>2020-05-22T12:15:32Z</time>
      </trkpt>
      <trkpt lat="48.73002" lon="7.24532">
        <ele>266.5</ele>
        <time>2020-05-22T12:15:33Z</time>
      </trkpt>
      <trkpt lat="48.72999" lon="7.24527">
        <ele>266.8</ele>
        <time>2020-05-22T12:15:35Z</time>
      </trkpt>
      <trkpt lat="48.72996" lon="7.2452">
        <ele>267.2</ele>
        <time>2020-05-22T12:15:37Z</time>
      </trkpt>
      <trkpt lat="48.72994" lon="7.24515">
        <ele>267.5</ele>
        <time>2020-05-22T12:15:39Z</time>
      </trkpt>
      <trkpt lat="48.72992" lon="7.24511">
        <ele>267.7</ele>
        <time>2020-05-22T12:15:40Z</time>
      </trkpt>
      <trkpt lat="48.72991" lon="7.24507">
        <ele>267.9</ele>
        <time>2020-05-22T12:15:41Z</time>
      </trkpt>
      <trkpt lat="48.7299" lon="7.245">
        <ele>268.2</ele>
        <time>2020-05-22T12:15:42Z</time>
      </trkpt>
      <trkpt lat="48.72989" lon="7.24493">
        <ele>268.5</ele>
        <time>2020-05-22T12:15:44Z</time>
      </trkpt>
      <trkpt lat="48.72986" lon="7.24485">
        <ele>268.9</ele>
        <time>2020-05-22T12:15:46Z</time>
      </trkpt>
      <trkpt lat="48.72984" lon="7.24477">
        <ele>269.2</ele>
        <time>2020-05-22T12:15:48Z</time>
      </trkpt>
      <trkpt lat="48.72981" lon="7.24467">
        <ele>269.6</ele>
        <time>2020-05-22T12:15:50Z</time>
      </trkpt>
      <trkpt lat="48.72979" lon="7.2446">
        <ele>269.9</ele>
        <time>2020-05-22T12:15:52Z</time>
      </trkpt>
      <trkpt lat="48.72977" lon="7.24456">
        <ele>270.2</ele>
        <time>2020-05-22T12:15:53Z</time>
      </trkpt>
      <trkpt lat="48.72977" lon="7.24454">
        <ele>270.3</ele>
        <time>2020-05-22T12:15:54Z</time>
      </trkpt>
      <trkpt lat="48.72975" lon="7.24451">
        <ele>270.4</ele>
        <time>2020-05-22T12:15:55Z</time>
      </trkpt>
      <trkpt lat="48.72973" lon="7.24442">
        <ele>270.9</ele>
        <time>2020-05-22T12:15:57Z</time>
      </trkpt>
      <trkpt lat="48.72972" lon="7.24437">
        <ele>271.2</ele>
        <time>2020-05-22T12:15:58Z</time>
      </trkpt>
      <trkpt lat="48.72971" lon="7.24433">
        <ele>271.4</ele>
        <time>2020-05-22T12:15:59Z</time>
      </trkpt>
      <trkpt lat="48.72971" lon="7.24428">
        <ele>271.6</ele>
        <time>2020-05-22T12:16:00Z</time>
      </trkpt>
      <trkpt lat="48.72969" lon="7.24421">
        <ele>272.1</ele>
        <time>2020-05-22T12:16:02Z</time>
      </trkpt>
      <trkpt lat="48.72969" lon="7.24412">
        <ele>272.6</ele>
        <time>2020-05-22T12:16:04Z</time>
      </trkpt>
      <trkpt lat="48.72968" lon="7.24407">
        <ele>273</ele>
        <time>2020-05-22T12:16:06Z</time>
      </trkpt>
      <trkpt lat="48.72967" lon="7.24405">
        <ele>273.1</ele>
        <time>2020-05-22T12:16:07Z</time>
      </trkpt>
      <trkpt lat="48.72965" lon="7.24402">
        <ele>273.4</ele>
        <time>2020-05-22T12:16:09Z</time>
      </trkpt>
      <trkpt lat="48.72964" lon="7.24397">
        <ele>273.7</ele>
        <time>2020-05-22T12:16:11Z</time>
      </trkpt>
      <trkpt lat="48.72964" lon="7.24392">
        <ele>274</ele>
        <time>2020-05-22T12:16:13Z</time>
      </trkpt>
      <trkpt lat="48.72964" lon="7.24387">
        <ele>274.3</ele>
        <time>2020-05-22T12:16:15Z</time>
      </trkpt>
      <trkpt lat="48.72961" lon="7.24382">
        <ele>274.6</ele>
        <time>2020-05-22T12:16:17Z</time>
      </trkpt>
      <trkpt lat="48.7296" lon="7.24378">
        <ele>274.8</ele>
        <time>2020-05-22T12:16:18Z</time>
      </trkpt>
      <trkpt lat="48.72958" lon="7.24373">
        <ele>275</ele>
        <time>2020-05-22T12:16:20Z</time>
      </trkpt>
      <trkpt lat="48.72957" lon="7.2437">
        <ele>275.2</ele>
        <time>2020-05-22T12:16:21Z</time>
      </trkpt>
      <trkpt lat="48.72956" lon="7.24364">
        <ele>275.4</ele>
        <time>2020-05-22T12:16:23Z</time>
      </trkpt>
      <trkpt lat="48.72955" lon="7.2436">
        <ele>275.6</ele>
        <time>2020-05-22T12:16:24Z</time>
      </trkpt>
      <trkpt lat="48.72953" lon="7.24353">
        <ele>275.8</ele>
        <time>2020-05-22T12:16:26Z</time>
      </trkpt>
      <trkpt lat="48.72952" lon="7.24348">
        <ele>276</ele>
        <time>2020-05-22T12:16:27Z</time>
      </trkpt>
      <trkpt lat="48.72951" lon="7.24347">
        <ele>276</ele>
        <time>2020-05-22T12:16:28Z</time>
      </trkpt>
      <trkpt lat="48.72949" lon="7.2434">
        <ele>276.3</ele>
        <time>2020-05-22T12:16:30Z</time>
      </trkpt>
      <trkpt lat="48.72948" lon="7.24336">
        <ele>276.4</ele>
        <time>2020-05-22T12:16:31Z</time>
      </trkpt>
      <trkpt lat="48.72945" lon="7.24329">
        <ele>276.7</ele>
        <time>2020-05-22T12:16:33Z</time>
      </trkpt>
      <trkpt lat="48.72944" lon="7.24325">
        <ele>276.8</ele>
        <time>2020-05-22T12:16:34Z</time>
      </trkpt>
      <trkpt lat="48.72942" lon="7.24317">
        <ele>277</ele>
        <time>2020-05-22T12:16:36Z</time>
      </trkpt>
      <trkpt lat="48.7294" lon="7.24309">
        <ele>277.3</ele>
        <time>2020-05-22T12:16:38Z</time>
      </trkpt>
      <trkpt lat="48.7294" lon="7.24304">
        <ele>277.5</ele>
        <time>2020-05-22T12:16:39Z</time>
      </trkpt>
      <trkpt lat="48.72937" lon="7.24294">
        <ele>277.9</ele>
        <time>2020-05-22T12:16:41Z</time>
      </trkpt>
      <trkpt lat="48.72937" lon="7.2429">
        <ele>278</ele>
        <time>2020-05-22T12:16:42Z</time>
      </trkpt>
      <trkpt lat="48.72935" lon="7.24282">
        <ele>278.3</ele>
        <time>2020-05-22T12:16:44Z</time>
      </trkpt>
      <trkpt lat="48.72935" lon="7.24278">
        <ele>278.5</ele>
        <time>2020-05-22T12:16:45Z</time>
      </trkpt>
      <trkpt lat="48.72934" lon="7.24271">
        <ele>278.7</ele>
        <time>2020-05-22T12:16:47Z</time>
      </trkpt>
      <trkpt lat="48.72932" lon="7.24264">
        <ele>279</ele>
        <time>2020-05-22T12:16:49Z</time>
      </trkpt>
      <trkpt lat="48.72931" lon="7.24258">
        <ele>279.2</ele>
        <time>2020-05-22T12:16:50Z</time>
      </trkpt>
      <trkpt lat="48.72931" lon="7.24256">
        <ele>279.3</ele>
        <time>2020-05-22T12:16:51Z</time>
      </trkpt>
      <trkpt lat="48.72928" lon="7.2425">
        <ele>279.6</ele>
        <time>2020-05-22T12:16:53Z</time>
      </trkpt>
      <trkpt lat="48.72925" lon="7.24246">
        <ele>279.9</ele>
        <time>2020-05-22T12:16:54Z</time>
      </trkpt>
      <trkpt lat="48.72924" lon="7.24245">
        <ele>279.9</ele>
        <time>2020-05-22T12:16:55Z</time>
      </trkpt>
      <trkpt lat="48.72923" lon="7.24243">
        <ele>280.1</ele>
        <time>2020-05-22T12:16:56Z</time>
      </trkpt>
      <trkpt lat="48.72923" lon="7.2424">
        <ele>280.2</ele>
        <time>2020-05-22T12:16:57Z</time>
      </trkpt>
      <trkpt lat="48.72922" lon="7.24234">
        <ele>280.5</ele>
        <time>2020-05-22T12:16:58Z</time>
      </trkpt>
      <trkpt lat="48.72922" lon="7.24232">
        <ele>280.6</ele>
        <time>2020-05-22T12:16:59Z</time>
      </trkpt>
      <trkpt lat="48.72921" lon="7.24227">
        <ele>280.8</ele>
        <time>2020-05-22T12:17:01Z</time>
      </trkpt>
      <trkpt lat="48.72921" lon="7.24224">
        <ele>280.9</ele>
        <time>2020-05-22T12:17:02Z</time>
      </trkpt>
      <trkpt lat="48.72919" lon="7.24216">
        <ele>281.3</ele>
        <time>2020-05-22T12:17:04Z</time>
      </trkpt>
      <trkpt lat="48.72919" lon="7.24212">
        <ele>281.5</ele>
        <time>2020-05-22T12:17:05Z</time>
      </trkpt>
      <trkpt lat="48.72917" lon="7.24203">
        <ele>282</ele>
        <time>2020-05-22T12:17:07Z</time>
      </trkpt>
      <trkpt lat="48.72916" lon="7.24197">
        <ele>282.3</ele>
        <time>2020-05-22T12:17:08Z</time>
      </trkpt>
      <trkpt lat="48.72915" lon="7.24192">
        <ele>282.5</ele>
        <time>2020-05-22T12:17:09Z</time>
      </trkpt>
      <trkpt lat="48.72915" lon="7.24188">
        <ele>282.7</ele>
        <time>2020-05-22T12:17:10Z</time>
      </trkpt>
      <trkpt lat="48.72914" lon="7.2418">
        <ele>283</ele>
        <time>2020-05-22T12:17:12Z</time>
      </trkpt>
      <trkpt lat="48.72914" lon="7.24176">
        <ele>283.2</ele>
        <time>2020-05-22T12:17:13Z</time>
      </trkpt>
      <trkpt lat="48.72914" lon="7.24167">
        <ele>283.6</ele>
        <time>2020-05-22T12:17:15Z</time>
      </trkpt>
      <trkpt lat="48.72912" lon="7.24158">
        <ele>283.9</ele>
        <time>2020-05-22T12:17:17Z</time>
      </trkpt>
      <trkpt lat="48.72912" lon="7.24153">
        <ele>284</ele>
        <time>2020-05-22T12:17:18Z</time>
      </trkpt>
      <trkpt lat="48.72912" lon="7.24146">
        <ele>284.3</ele>
        <time>2020-05-22T12:17:20Z</time>
      </trkpt>
      <trkpt lat="48.72912" lon="7.24143">
        <ele>284.4</ele>
        <time>2020-05-22T12:17:21Z</time>
      </trkpt>
      <trkpt lat="48.72913" lon="7.24137">
        <ele>284.7</ele>
        <time>2020-05-22T12:17:23Z</time>
      </trkpt>
      <trkpt lat="48.72914" lon="7.24133">
        <ele>284.8</ele>
        <time>2020-05-22T12:17:24Z</time>
      </trkpt>
      <trkpt lat="48.72915" lon="7.24127">
        <ele>285</ele>
        <time>2020-05-22T12:17:26Z</time>
      </trkpt>
      <trkpt lat="48.72915" lon="7.24123">
        <ele>285.1</ele>
        <time>2020-05-22T12:17:27Z</time>
      </trkpt>
      <trkpt lat="48.72914" lon="7.24117">
        <ele>285.4</ele>
        <time>2020-05-22T12:17:29Z</time>
      </trkpt>
      <trkpt lat="48.72914" lon="7.24114">
        <ele>285.5</ele>
        <time>2020-05-22T12:17:30Z</time>
      </trkpt>
      <trkpt lat="48.72914" lon="7.24107">
        <ele>285.8</ele>
        <time>2020-05-22T12:17:32Z</time>
      </trkpt>
      <trkpt lat="48.72914" lon="7.24104">
        <ele>285.9</ele>
        <time>2020-05-22T12:17:33Z</time>
      </trkpt>
      <trkpt lat="48.72914" lon="7.24098">
        <ele>286.2</ele>
        <time>2020-05-22T12:17:35Z</time>
      </trkpt>
      <trkpt lat="48.72915" lon="7.2409">
        <ele>286.6</ele>
        <time>2020-05-22T12:17:37Z</time>
      </trkpt>
      <trkpt lat="48.72917" lon="7.24084">
        <ele>286.8</ele>
        <time>2020-05-22T12:17:39Z</time>
      </trkpt>
      <trkpt lat="48.7292" lon="7.24075">
        <ele>287.4</ele>
        <time>2020-05-22T12:17:41Z</time>
      </trkpt>
      <trkpt lat="48.7292" lon="7.24069">
        <ele>287.7</ele>
        <time>2020-05-22T12:17:43Z</time>
      </trkpt>
      <trkpt lat="48.72919" lon="7.24066">
        <ele>288</ele>
        <time>2020-05-22T12:17:45Z</time>
      </trkpt>
      <trkpt lat="48.72919" lon="7.24064">
        <ele>288.1</ele>
        <time>2020-05-22T12:17:46Z</time>
      </trkpt>
      <trkpt lat="48.72921" lon="7.24059">
        <ele>288.5</ele>
        <time>2020-05-22T12:17:48Z</time>
      </trkpt>
      <trkpt lat="48.72922" lon="7.24053">
        <ele>288.8</ele>
        <time>2020-05-22T12:17:50Z</time>
      </trkpt>
      <trkpt lat="48.72922" lon="7.24049">
        <ele>289.2</ele>
        <time>2020-05-22T12:17:52Z</time>
      </trkpt>
      <trkpt lat="48.72922" lon="7.24047">
        <ele>289.3</ele>
        <time>2020-05-22T12:17:53Z</time>
      </trkpt>
      <trkpt lat="48.72921" lon="7.24043">
        <ele>289.5</ele>
        <time>2020-05-22T12:17:55Z</time>
      </trkpt>
      <trkpt lat="48.72921" lon="7.24041">
        <ele>289.7</ele>
        <time>2020-05-22T12:17:56Z</time>
      </trkpt>
      <trkpt lat="48.72921" lon="7.24036">
        <ele>290.1</ele>
        <time>2020-05-22T12:17:58Z</time>
      </trkpt>
      <trkpt lat="48.72921" lon="7.24029">
        <ele>290.6</ele>
        <time>2020-05-22T12:18:00Z</time>
      </trkpt>
      <trkpt lat="48.72921" lon="7.24024">
        <ele>291</ele>
        <time>2020-05-22T12:18:02Z</time>
      </trkpt>
      <trkpt lat="48.72921" lon="7.24022">
        <ele>291.1</ele>
        <time>2020-05-22T12:18:03Z</time>
      </trkpt>
      <trkpt lat="48.72921" lon="7.24016">
        <ele>291.5</ele>
        <time>2020-05-22T12:18:05Z</time>
      </trkpt>
      <trkpt lat="48.72922" lon="7.24014">
        <ele>291.7</ele>
        <time>2020-05-22T12:18:06Z</time>
      </trkpt>
      <trkpt lat="48.72923" lon="7.24011">
        <ele>291.9</ele>
        <time>2020-05-22T12:18:08Z</time>
      </trkpt>
      <trkpt lat="48.72924" lon="7.24006">
        <ele>292.3</ele>
        <time>2020-05-22T12:18:09Z</time>
      </trkpt>
      <trkpt lat="48.72924" lon="7.24005">
        <ele>292.4</ele>
        <time>2020-05-22T12:18:10Z</time>
      </trkpt>
      <trkpt lat="48.72924" lon="7.24">
        <ele>292.7</ele>
        <time>2020-05-22T12:18:11Z</time>
      </trkpt>
      <trkpt lat="48.72924" lon="7.23994">
        <ele>293.1</ele>
        <time>2020-05-22T12:18:13Z</time>
      </trkpt>
      <trkpt lat="48.72925" lon="7.2399">
        <ele>293.4</ele>
        <time>2020-05-22T12:18:14Z</time>
      </trkpt>
      <trkpt lat="48.72925" lon="7.23988">
        <ele>293.5</ele>
        <time>2020-05-22T12:18:15Z</time>
      </trkpt>
      <trkpt lat="48.72927" lon="7.23981">
        <ele>293.9</ele>
        <time>2020-05-22T12:18:17Z</time>
      </trkpt>
      <trkpt lat="48.72927" lon="7.23976">
        <ele>294.3</ele>
        <time>2020-05-22T12:18:19Z</time>
      </trkpt>
      <trkpt lat="48.72927" lon="7.23973">
        <ele>294.4</ele>
        <time>2020-05-22T12:18:20Z</time>
      </trkpt>
      <trkpt lat="48.72927" lon="7.23966">
        <ele>294.8</ele>
        <time>2020-05-22T12:18:22Z</time>
      </trkpt>
      <trkpt lat="48.72928" lon="7.23961">
        <ele>295.1</ele>
        <time>2020-05-22T12:18:24Z</time>
      </trkpt>
      <trkpt lat="48.72928" lon="7.23957">
        <ele>295.2</ele>
        <time>2020-05-22T12:18:25Z</time>
      </trkpt>
      <trkpt lat="48.72929" lon="7.23951">
        <ele>295.5</ele>
        <time>2020-05-22T12:18:27Z</time>
      </trkpt>
      <trkpt lat="48.7293" lon="7.23943">
        <ele>295.8</ele>
        <time>2020-05-22T12:18:29Z</time>
      </trkpt>
      <trkpt lat="48.7293" lon="7.23934">
        <ele>296.1</ele>
        <time>2020-05-22T12:18:31Z</time>
      </trkpt>
      <trkpt lat="48.7293" lon="7.23929">
        <ele>296.3</ele>
        <time>2020-05-22T12:18:32Z</time>
      </trkpt>
      <trkpt lat="48.7293" lon="7.23921">
        <ele>296.5</ele>
        <time>2020-05-22T12:18:34Z</time>
      </trkpt>
      <trkpt lat="48.7293" lon="7.23916">
        <ele>296.6</ele>
        <time>2020-05-22T12:18:35Z</time>
      </trkpt>
      <trkpt lat="48.7293" lon="7.23908">
        <ele>296.8</ele>
        <time>2020-05-22T12:18:37Z</time>
      </trkpt>
      <trkpt lat="48.72931" lon="7.23903">
        <ele>297</ele>
        <time>2020-05-22T12:18:39Z</time>
      </trkpt>
      <trkpt lat="48.72932" lon="7.23901">
        <ele>297</ele>
        <time>2020-05-22T12:18:40Z</time>
      </trkpt>
      <trkpt lat="48.72933" lon="7.23898">
        <ele>297.1</ele>
        <time>2020-05-22T12:18:41Z</time>
      </trkpt>
      <trkpt lat="48.72933" lon="7.23895">
        <ele>297.1</ele>
        <time>2020-05-22T12:18:42Z</time>
      </trkpt>
      <trkpt lat="48.72933" lon="7.23883">
        <ele>297.3</ele>
        <time>2020-05-22T12:18:44Z</time>
      </trkpt>
      <trkpt lat="48.72933" lon="7.23871">
        <ele>297.5</ele>
        <time>2020-05-22T12:18:46Z</time>
      </trkpt>
      <trkpt lat="48.72933" lon="7.23866">
        <ele>297.5</ele>
        <time>2020-05-22T12:18:47Z</time>
      </trkpt>
      <trkpt lat="48.72933" lon="7.23859">
        <ele>297.6</ele>
        <time>2020-05-22T12:18:48Z</time>
      </trkpt>
      <trkpt lat="48.72933" lon="7.23847">
        <ele>297.8</ele>
        <time>2020-05-22T12:18:50Z</time>
      </trkpt>
      <trkpt lat="48.72934" lon="7.23835">
        <ele>298</ele>
        <time>2020-05-22T12:18:52Z</time>
      </trkpt>
      <trkpt lat="48.72934" lon="7.2383">
        <ele>298</ele>
        <time>2020-05-22T12:18:53Z</time>
      </trkpt>
      <trkpt lat="48.72934" lon="7.23826">
        <ele>298.1</ele>
        <time>2020-05-22T12:18:54Z</time>
      </trkpt>
      <trkpt lat="48.72932" lon="7.23816">
        <ele>298.4</ele>
        <time>2020-05-22T12:18:56Z</time>
      </trkpt>
      <trkpt lat="48.7293" lon="7.23811">
        <ele>298.6</ele>
        <time>2020-05-22T12:18:57Z</time>
      </trkpt>
      <trkpt lat="48.72929" lon="7.2381">
        <ele>298.7</ele>
        <time>2020-05-22T12:18:58Z</time>
      </trkpt>
      <trkpt lat="48.72928" lon="7.23808">
        <ele>298.8</ele>
        <time>2020-05-22T12:18:59Z</time>
      </trkpt>
      <trkpt lat="48.72927" lon="7.23806">
        <ele>298.9</ele>
        <time>2020-05-22T12:19:00Z</time>
      </trkpt>
      <trkpt lat="48.72927" lon="7.23798">
        <ele>299.4</ele>
        <time>2020-05-22T12:19:02Z</time>
      </trkpt>
      <trkpt lat="48.72925" lon="7.2379">
        <ele>299.9</ele>
        <time>2020-05-22T12:19:04Z</time>
      </trkpt>
      <trkpt lat="48.72925" lon="7.23787">
        <ele>300.2</ele>
        <time>2020-05-22T12:19:05Z</time>
      </trkpt>
      <trkpt lat="48.72926" lon="7.23783">
        <ele>300.5</ele>
        <time>2020-05-22T12:19:07Z</time>
      </trkpt>
      <trkpt lat="48.72926" lon="7.23778">
        <ele>301</ele>
        <time>2020-05-22T12:19:09Z</time>
      </trkpt>
      <trkpt lat="48.72927" lon="7.23776">
        <ele>301.2</ele>
        <time>2020-05-22T12:19:10Z</time>
      </trkpt>
      <trkpt lat="48.72927" lon="7.23773">
        <ele>301.6</ele>
        <time>2020-05-22T12:19:11Z</time>
      </trkpt>
      <trkpt lat="48.72927" lon="7.23767">
        <ele>302.1</ele>
        <time>2020-05-22T12:19:13Z</time>
      </trkpt>
      <trkpt lat="48.72927" lon="7.23763">
        <ele>302.6</ele>
        <time>2020-05-22T12:19:14Z</time>
      </trkpt>
      <trkpt lat="48.72929" lon="7.23755">
        <ele>303.4</ele>
        <time>2020-05-22T12:19:16Z</time>
      </trkpt>
      <trkpt lat="48.72931" lon="7.23749">
        <ele>304</ele>
        <time>2020-05-22T12:19:18Z</time>
      </trkpt>
      <trkpt lat="48.72932" lon="7.23742">
        <ele>304.6</ele>
        <time>2020-05-22T12:19:19Z</time>
      </trkpt>
      <trkpt lat="48.72933" lon="7.23739">
        <ele>304.9</ele>
        <time>2020-05-22T12:19:20Z</time>
      </trkpt>
      <trkpt lat="48.72933" lon="7.23733">
        <ele>305.4</ele>
        <time>2020-05-22T12:19:22Z</time>
      </trkpt>
      <trkpt lat="48.72932" lon="7.23727">
        <ele>305.7</ele>
        <time>2020-05-22T12:19:24Z</time>
      </trkpt>
      <trkpt lat="48.72931" lon="7.2372">
        <ele>306.1</ele>
        <time>2020-05-22T12:19:26Z</time>
      </trkpt>
      <trkpt lat="48.72931" lon="7.23717">
        <ele>306.2</ele>
        <time>2020-05-22T12:19:27Z</time>
      </trkpt>
      <trkpt lat="48.7293" lon="7.23713">
        <ele>306.3</ele>
        <time>2020-05-22T12:19:29Z</time>
      </trkpt>
      <trkpt lat="48.7293" lon="7.2371">
        <ele>306.3</ele>
        <time>2020-05-22T12:19:30Z</time>
      </trkpt>
      <trkpt lat="48.72928" lon="7.237">
        <ele>306.3</ele>
        <time>2020-05-22T12:19:32Z</time>
      </trkpt>
      <trkpt lat="48.72926" lon="7.23693">
        <ele>306.3</ele>
        <time>2020-05-22T12:19:33Z</time>
      </trkpt>
      <trkpt lat="48.72921" lon="7.23669">
        <ele>305.7</ele>
        <time>2020-05-22T12:19:35Z</time>
      </trkpt>
      <trkpt lat="48.72919" lon="7.23654">
        <ele>305.3</ele>
        <time>2020-05-22T12:19:37Z</time>
      </trkpt>
      <trkpt lat="48.72918" lon="7.23635">
        <ele>305</ele>
        <time>2020-05-22T12:19:39Z</time>
      </trkpt>
      <trkpt lat="48.72916" lon="7.23616">
        <ele>304.8</ele>
        <time>2020-05-22T12:19:41Z</time>
      </trkpt>
      <trkpt lat="48.72915" lon="7.236">
        <ele>305</ele>
        <time>2020-05-22T12:19:43Z</time>
      </trkpt>
      <trkpt lat="48.72915" lon="7.23592">
        <ele>305.1</ele>
        <time>2020-05-22T12:19:44Z</time>
      </trkpt>
      <trkpt lat="48.72917" lon="7.23578">
        <ele>305.5</ele>
        <time>2020-05-22T12:19:46Z</time>
      </trkpt>
      <trkpt lat="48.72916" lon="7.23572">
        <ele>305.7</ele>
        <time>2020-05-22T12:19:47Z</time>
      </trkpt>
      <trkpt lat="48.72915" lon="7.23557">
        <ele>306.3</ele>
        <time>2020-05-22T12:19:49Z</time>
      </trkpt>
      <trkpt lat="48.72913" lon="7.23544">
        <ele>306.7</ele>
        <time>2020-05-22T12:19:51Z</time>
      </trkpt>
      <trkpt lat="48.72911" lon="7.23538">
        <ele>306.9</ele>
        <time>2020-05-22T12:19:53Z</time>
      </trkpt>
      <trkpt lat="48.72911" lon="7.23533">
        <ele>307.1</ele>
        <time>2020-05-22T12:19:54Z</time>
      </trkpt>
      <trkpt lat="48.7291" lon="7.23531">
        <ele>307.1</ele>
        <time>2020-05-22T12:19:55Z</time>
      </trkpt>
      <trkpt lat="48.72911" lon="7.23527">
        <ele>307.2</ele>
        <time>2020-05-22T12:19:56Z</time>
      </trkpt>
      <trkpt lat="48.72913" lon="7.23519">
        <ele>307.3</ele>
        <time>2020-05-22T12:19:58Z</time>
      </trkpt>
      <trkpt lat="48.72915" lon="7.23505">
        <ele>307.4</ele>
        <time>2020-05-22T12:20:00Z</time>
      </trkpt>
      <trkpt lat="48.72914" lon="7.23495">
        <ele>307.5</ele>
        <time>2020-05-22T12:20:01Z</time>
      </trkpt>
      <trkpt lat="48.72914" lon="7.23488">
        <ele>307.5</ele>
        <time>2020-05-22T12:20:02Z</time>
      </trkpt>
      <trkpt lat="48.72913" lon="7.23482">
        <ele>307.5</ele>
        <time>2020-05-22T12:20:03Z</time>
      </trkpt>
      <trkpt lat="48.72913" lon="7.23478">
        <ele>307.5</ele>
        <time>2020-05-22T12:20:04Z</time>
      </trkpt>
      <trkpt lat="48.72912" lon="7.23464">
        <ele>307.4</ele>
        <time>2020-05-22T12:20:06Z</time>
      </trkpt>
      <trkpt lat="48.72913" lon="7.23455">
        <ele>307.3</ele>
        <time>2020-05-22T12:20:07Z</time>
      </trkpt>
      <trkpt lat="48.72913" lon="7.23448">
        <ele>307.2</ele>
        <time>2020-05-22T12:20:08Z</time>
      </trkpt>
      <trkpt lat="48.72911" lon="7.23436">
        <ele>306.9</ele>
        <time>2020-05-22T12:20:10Z</time>
      </trkpt>
      <trkpt lat="48.7291" lon="7.23431">
        <ele>306.8</ele>
        <time>2020-05-22T12:20:11Z</time>
      </trkpt>
      <trkpt lat="48.72909" lon="7.23424">
        <ele>306.6</ele>
        <time>2020-05-22T12:20:13Z</time>
      </trkpt>
      <trkpt lat="48.72906" lon="7.23422">
        <ele>306.4</ele>
        <time>2020-05-22T12:20:15Z</time>
      </trkpt>
      <trkpt lat="48.72903" lon="7.23417">
        <ele>306.1</ele>
        <time>2020-05-22T12:20:17Z</time>
      </trkpt>
      <trkpt lat="48.72902" lon="7.23413">
        <ele>305.9</ele>
        <time>2020-05-22T12:20:18Z</time>
      </trkpt>
      <trkpt lat="48.72902" lon="7.23411">
        <ele>305.8</ele>
        <time>2020-05-22T12:20:19Z</time>
      </trkpt>
      <trkpt lat="48.72902" lon="7.23401">
        <ele>305</ele>
        <time>2020-05-22T12:20:21Z</time>
      </trkpt>
      <trkpt lat="48.72901" lon="7.23397">
        <ele>304.8</ele>
        <time>2020-05-22T12:20:22Z</time>
      </trkpt>
      <trkpt lat="48.729" lon="7.23395">
        <ele>304.6</ele>
        <time>2020-05-22T12:20:23Z</time>
      </trkpt>
      <trkpt lat="48.72894" lon="7.23385">
        <ele>303.9</ele>
        <time>2020-05-22T12:20:25Z</time>
      </trkpt>
      <trkpt lat="48.72891" lon="7.23379">
        <ele>303.6</ele>
        <time>2020-05-22T12:20:26Z</time>
      </trkpt>
      <trkpt lat="48.72889" lon="7.23373">
        <ele>303.3</ele>
        <time>2020-05-22T12:20:27Z</time>
      </trkpt>
      <trkpt lat="48.72887" lon="7.23363">
        <ele>302.8</ele>
        <time>2020-05-22T12:20:29Z</time>
      </trkpt>
      <trkpt lat="48.72886" lon="7.23359">
        <ele>302.6</ele>
        <time>2020-05-22T12:20:30Z</time>
      </trkpt>
      <trkpt lat="48.72886" lon="7.23355">
        <ele>302.5</ele>
        <time>2020-05-22T12:20:31Z</time>
      </trkpt>
      <trkpt lat="48.72887" lon="7.23351">
        <ele>302.3</ele>
        <time>2020-05-22T12:20:33Z</time>
      </trkpt>
      <trkpt lat="48.72887" lon="7.23351">
        <ele>302.3</ele>
        <time>2020-05-22T12:20:34Z</time>
      </trkpt>
      <trkpt lat="48.72887" lon="7.2335">
        <ele>302.3</ele>
        <time>2020-05-22T12:20:35Z</time>
      </trkpt>
      <trkpt lat="48.72888" lon="7.23347">
        <ele>302.1</ele>
        <time>2020-05-22T12:20:37Z</time>
      </trkpt>
      <trkpt lat="48.72889" lon="7.23343">
        <ele>301.9</ele>
        <time>2020-05-22T12:20:39Z</time>
      </trkpt>
      <trkpt lat="48.72889" lon="7.23338">
        <ele>301.7</ele>
        <time>2020-05-22T12:20:41Z</time>
      </trkpt>
      <trkpt lat="48.72889" lon="7.23337">
        <ele>301.7</ele>
        <time>2020-05-22T12:20:42Z</time>
      </trkpt>
      <trkpt lat="48.72889" lon="7.23336">
        <ele>301.6</ele>
        <time>2020-05-22T12:20:43Z</time>
      </trkpt>
      <trkpt lat="48.7289" lon="7.23333">
        <ele>301.4</ele>
        <time>2020-05-22T12:20:45Z</time>
      </trkpt>
      <trkpt lat="48.72891" lon="7.23332">
        <ele>301.4</ele>
        <time>2020-05-22T12:20:46Z</time>
      </trkpt>
      <trkpt lat="48.72891" lon="7.23331">
        <ele>301.3</ele>
        <time>2020-05-22T12:20:47Z</time>
      </trkpt>
      <trkpt lat="48.72891" lon="7.23325">
        <ele>301</ele>
        <time>2020-05-22T12:20:49Z</time>
      </trkpt>
      <trkpt lat="48.7289" lon="7.2332">
        <ele>300.7</ele>
        <time>2020-05-22T12:20:50Z</time>
      </trkpt>
      <trkpt lat="48.72889" lon="7.23315">
        <ele>300.4</ele>
        <time>2020-05-22T12:20:51Z</time>
      </trkpt>
      <trkpt lat="48.72887" lon="7.23302">
        <ele>299.5</ele>
        <time>2020-05-22T12:20:53Z</time>
      </trkpt>
      <trkpt lat="48.72886" lon="7.23296">
        <ele>299.1</ele>
        <time>2020-05-22T12:20:54Z</time>
      </trkpt>
      <trkpt lat="48.72889" lon="7.23283">
        <ele>298</ele>
        <time>2020-05-22T12:20:56Z</time>
      </trkpt>
      <trkpt lat="48.72889" lon="7.23274">
        <ele>297.3</ele>
        <time>2020-05-22T12:20:57Z</time>
      </trkpt>
      <trkpt lat="48.72887" lon="7.23255">
        <ele>295.9</ele>
        <time>2020-05-22T12:20:59Z</time>
      </trkpt>
      <trkpt lat="48.72886" lon="7.23247">
        <ele>295.5</ele>
        <time>2020-05-22T12:21:00Z</time>
      </trkpt>
      <trkpt lat="48.72889" lon="7.23235">
        <ele>297</ele>
        <time>2020-05-22T12:21:02Z</time>
      </trkpt>
      <trkpt lat="48.72891" lon="7.23231">
        <ele>297.6</ele>
        <time>2020-05-22T12:21:03Z</time>
      </trkpt>
      <trkpt lat="48.72895" lon="7.23227">
        <ele>298.5</ele>
        <time>2020-05-22T12:21:04Z</time>
      </trkpt>
      <trkpt lat="48.72898" lon="7.23224">
        <ele>299.2</ele>
        <time>2020-05-22T12:21:05Z</time>
      </trkpt>
      <trkpt lat="48.72904" lon="7.23218">
        <ele>300.4</ele>
        <time>2020-05-22T12:21:07Z</time>
      </trkpt>
      <trkpt lat="48.72907" lon="7.23216">
        <ele>301</ele>
        <time>2020-05-22T12:21:08Z</time>
      </trkpt>
      <trkpt lat="48.72911" lon="7.23214">
        <ele>301.7</ele>
        <time>2020-05-22T12:21:09Z</time>
      </trkpt>
      <trkpt lat="48.72916" lon="7.23213">
        <ele>302.7</ele>
        <time>2020-05-22T12:21:11Z</time>
      </trkpt>
      <trkpt lat="48.7292" lon="7.23212">
        <ele>303.2</ele>
        <time>2020-05-22T12:21:12Z</time>
      </trkpt>
      <trkpt lat="48.72923" lon="7.23212">
        <ele>303.8</ele>
        <time>2020-05-22T12:21:13Z</time>
      </trkpt>
      <trkpt lat="48.72924" lon="7.23212">
        <ele>303.9</ele>
        <time>2020-05-22T12:21:14Z</time>
      </trkpt>
      <trkpt lat="48.72926" lon="7.23213">
        <ele>304.3</ele>
        <time>2020-05-22T12:21:15Z</time>
      </trkpt>
      <trkpt lat="48.72928" lon="7.23214">
        <ele>304.7</ele>
        <time>2020-05-22T12:21:17Z</time>
      </trkpt>
      <trkpt lat="48.72933" lon="7.23215">
        <ele>305.5</ele>
        <time>2020-05-22T12:21:19Z</time>
      </trkpt>
      <trkpt lat="48.72939" lon="7.23215">
        <ele>306.6</ele>
        <time>2020-05-22T12:21:21Z</time>
      </trkpt>
      <trkpt lat="48.72944" lon="7.23215">
        <ele>307.4</ele>
        <time>2020-05-22T12:21:22Z</time>
      </trkpt>
      <trkpt lat="48.72951" lon="7.23219">
        <ele>308.6</ele>
        <time>2020-05-22T12:21:24Z</time>
      </trkpt>
      <trkpt lat="48.72963" lon="7.23221">
        <ele>310.7</ele>
        <time>2020-05-22T12:21:26Z</time>
      </trkpt>
      <trkpt lat="48.72967" lon="7.2322">
        <ele>311.4</ele>
        <time>2020-05-22T12:21:27Z</time>
      </trkpt>
      <trkpt lat="48.72971" lon="7.2322">
        <ele>311.8</ele>
        <time>2020-05-22T12:21:28Z</time>
      </trkpt>
      <trkpt lat="48.72975" lon="7.23222">
        <ele>312.2</ele>
        <time>2020-05-22T12:21:29Z</time>
      </trkpt>
      <trkpt lat="48.7298" lon="7.23222">
        <ele>312.5</ele>
        <time>2020-05-22T12:21:30Z</time>
      </trkpt>
      <trkpt lat="48.72989" lon="7.23223">
        <ele>312.7</ele>
        <time>2020-05-22T12:21:32Z</time>
      </trkpt>
      <trkpt lat="48.72993" lon="7.23221">
        <ele>312.8</ele>
        <time>2020-05-22T12:21:34Z</time>
      </trkpt>
      <trkpt lat="48.72995" lon="7.23217">
        <ele>312.7</ele>
        <time>2020-05-22T12:21:36Z</time>
      </trkpt>
      <trkpt lat="48.72996" lon="7.23215">
        <ele>312.7</ele>
        <time>2020-05-22T12:21:37Z</time>
      </trkpt>
      <trkpt lat="48.72996" lon="7.23214">
        <ele>312.7</ele>
        <time>2020-05-22T12:21:39Z</time>
      </trkpt>
      <trkpt lat="48.72997" lon="7.23213">
        <ele>312.7</ele>
        <time>2020-05-22T12:21:41Z</time>
      </trkpt>
      <trkpt lat="48.72998" lon="7.23212">
        <ele>312.7</ele>
        <time>2020-05-22T12:21:43Z</time>
      </trkpt>
      <trkpt lat="48.72998" lon="7.23211">
        <ele>312.7</ele>
        <time>2020-05-22T12:21:44Z</time>
      </trkpt>
      <trkpt lat="48.72999" lon="7.23209">
        <ele>312.7</ele>
        <time>2020-05-22T12:21:45Z</time>
      </trkpt>
      <trkpt lat="48.73001" lon="7.23206">
        <ele>312.6</ele>
        <time>2020-05-22T12:21:47Z</time>
      </trkpt>
      <trkpt lat="48.73001" lon="7.23204">
        <ele>312.6</ele>
        <time>2020-05-22T12:21:49Z</time>
      </trkpt>
      <trkpt lat="48.73001" lon="7.23203">
        <ele>312.5</ele>
        <time>2020-05-22T12:21:51Z</time>
      </trkpt>
      <trkpt lat="48.73002" lon="7.23201">
        <ele>312.5</ele>
        <time>2020-05-22T12:21:52Z</time>
      </trkpt>
      <trkpt lat="48.73002" lon="7.232">
        <ele>312.5</ele>
        <time>2020-05-22T12:21:53Z</time>
      </trkpt>
      <trkpt lat="48.73004" lon="7.2319">
        <ele>312.2</ele>
        <time>2020-05-22T12:21:55Z</time>
      </trkpt>
      <trkpt lat="48.73004" lon="7.23177">
        <ele>311.9</ele>
        <time>2020-05-22T12:21:57Z</time>
      </trkpt>
      <trkpt lat="48.73005" lon="7.23172">
        <ele>311.7</ele>
        <time>2020-05-22T12:21:58Z</time>
      </trkpt>
      <trkpt lat="48.73007" lon="7.23165">
        <ele>311.5</ele>
        <time>2020-05-22T12:22:00Z</time>
      </trkpt>
      <trkpt lat="48.73008" lon="7.23161">
        <ele>311.4</ele>
        <time>2020-05-22T12:22:01Z</time>
      </trkpt>
      <trkpt lat="48.73012" lon="7.2315">
        <ele>311.2</ele>
        <time>2020-05-22T12:22:03Z</time>
      </trkpt>
      <trkpt lat="48.73014" lon="7.23138">
        <ele>311</ele>
        <time>2020-05-22T12:22:05Z</time>
      </trkpt>
      <trkpt lat="48.73014" lon="7.23132">
        <ele>310.9</ele>
        <time>2020-05-22T12:22:06Z</time>
      </trkpt>
      <trkpt lat="48.73014" lon="7.23122">
        <ele>310.7</ele>
        <time>2020-05-22T12:22:08Z</time>
      </trkpt>
      <trkpt lat="48.73015" lon="7.23115">
        <ele>310.6</ele>
        <time>2020-05-22T12:22:09Z</time>
      </trkpt>
      <trkpt lat="48.73014" lon="7.23106">
        <ele>310.3</ele>
        <time>2020-05-22T12:22:11Z</time>
      </trkpt>
      <trkpt lat="48.73014" lon="7.231">
        <ele>310.2</ele>
        <time>2020-05-22T12:22:12Z</time>
      </trkpt>
      <trkpt lat="48.73018" lon="7.23087">
        <ele>309.7</ele>
        <time>2020-05-22T12:22:14Z</time>
      </trkpt>
      <trkpt lat="48.73017" lon="7.23079">
        <ele>309.4</ele>
        <time>2020-05-22T12:22:15Z</time>
      </trkpt>
      <trkpt lat="48.73016" lon="7.23074">
        <ele>309.3</ele>
        <time>2020-05-22T12:22:16Z</time>
      </trkpt>
      <trkpt lat="48.73014" lon="7.23071">
        <ele>309.1</ele>
        <time>2020-05-22T12:22:17Z</time>
      </trkpt>
      <trkpt lat="48.73012" lon="7.23057">
        <ele>308.6</ele>
        <time>2020-05-22T12:22:19Z</time>
      </trkpt>
      <trkpt lat="48.73011" lon="7.2305">
        <ele>308.2</ele>
        <time>2020-05-22T12:22:20Z</time>
      </trkpt>
      <trkpt lat="48.73011" lon="7.23043">
        <ele>307.9</ele>
        <time>2020-05-22T12:22:21Z</time>
      </trkpt>
      <trkpt lat="48.7301" lon="7.23029">
        <ele>307.3</ele>
        <time>2020-05-22T12:22:23Z</time>
      </trkpt>
      <trkpt lat="48.73007" lon="7.23007">
        <ele>306.2</ele>
        <time>2020-05-22T12:22:25Z</time>
      </trkpt>
      <trkpt lat="48.73006" lon="7.22997">
        <ele>305.7</ele>
        <time>2020-05-22T12:22:26Z</time>
      </trkpt>
      <trkpt lat="48.73005" lon="7.22989">
        <ele>305.3</ele>
        <time>2020-05-22T12:22:27Z</time>
      </trkpt>
      <trkpt lat="48.73006" lon="7.22974">
        <ele>304.5</ele>
        <time>2020-05-22T12:22:29Z</time>
      </trkpt>
      <trkpt lat="48.73006" lon="7.22967">
        <ele>304.2</ele>
        <time>2020-05-22T12:22:30Z</time>
      </trkpt>
      <trkpt lat="48.73003" lon="7.22953">
        <ele>303.5</ele>
        <time>2020-05-22T12:22:32Z</time>
      </trkpt>
      <trkpt lat="48.73" lon="7.22936">
        <ele>302.7</ele>
        <time>2020-05-22T12:22:34Z</time>
      </trkpt>
      <trkpt lat="48.73001" lon="7.22919">
        <ele>301.9</ele>
        <time>2020-05-22T12:22:36Z</time>
      </trkpt>
      <trkpt lat="48.73003" lon="7.22912">
        <ele>301.6</ele>
        <time>2020-05-22T12:22:37Z</time>
      </trkpt>
      <trkpt lat="48.73006" lon="7.22907">
        <ele>301.3</ele>
        <time>2020-05-22T12:22:38Z</time>
      </trkpt>
      <trkpt lat="48.73008" lon="7.22904">
        <ele>301</ele>
        <time>2020-05-22T12:22:39Z</time>
      </trkpt>
      <trkpt lat="48.73012" lon="7.22893">
        <ele>300.5</ele>
        <time>2020-05-22T12:22:41Z</time>
      </trkpt>
      <trkpt lat="48.73011" lon="7.22882">
        <ele>300</ele>
        <time>2020-05-22T12:22:43Z</time>
      </trkpt>
      <trkpt lat="48.73011" lon="7.22878">
        <ele>299.9</ele>
        <time>2020-05-22T12:22:44Z</time>
      </trkpt>
      <trkpt lat="48.73013" lon="7.22875">
        <ele>299.7</ele>
        <time>2020-05-22T12:22:45Z</time>
      </trkpt>
      <trkpt lat="48.73013" lon="7.22868">
        <ele>299.4</ele>
        <time>2020-05-22T12:22:47Z</time>
      </trkpt>
      <trkpt lat="48.73015" lon="7.22865">
        <ele>299.2</ele>
        <time>2020-05-22T12:22:49Z</time>
      </trkpt>
      <trkpt lat="48.73016" lon="7.22866">
        <ele>299.2</ele>
        <time>2020-05-22T12:22:50Z</time>
      </trkpt>
      <trkpt lat="48.73016" lon="7.22866">
        <ele>299.2</ele>
        <time>2020-05-22T12:22:51Z</time>
      </trkpt>
      <trkpt lat="48.73017" lon="7.22866">
        <ele>299.1</ele>
        <time>2020-05-22T12:22:53Z</time>
      </trkpt>
      <trkpt lat="48.73019" lon="7.22867">
        <ele>299</ele>
        <time>2020-05-22T12:22:55Z</time>
      </trkpt>
      <trkpt lat="48.7302" lon="7.22866">
        <ele>298.9</ele>
        <time>2020-05-22T12:22:56Z</time>
      </trkpt>
      <trkpt lat="48.7302" lon="7.22865">
        <ele>298.9</ele>
        <time>2020-05-22T12:22:57Z</time>
      </trkpt>
      <trkpt lat="48.73021" lon="7.22864">
        <ele>298.8</ele>
        <time>2020-05-22T12:22:58Z</time>
      </trkpt>
      <trkpt lat="48.73021" lon="7.2286">
        <ele>298.7</ele>
        <time>2020-05-22T12:23:00Z</time>
      </trkpt>
      <trkpt lat="48.73021" lon="7.22859">
        <ele>298.6</ele>
        <time>2020-05-22T12:23:01Z</time>
      </trkpt>
      <trkpt lat="48.73021" lon="7.22856">
        <ele>298.5</ele>
        <time>2020-05-22T12:23:02Z</time>
      </trkpt>
      <trkpt lat="48.73021" lon="7.22855">
        <ele>298.4</ele>
        <time>2020-05-22T12:23:04Z</time>
      </trkpt>
      <trkpt lat="48.73022" lon="7.22854">
        <ele>298.4</ele>
        <time>2020-05-22T12:23:05Z</time>
      </trkpt>
      <trkpt lat="48.73022" lon="7.2285">
        <ele>298.2</ele>
        <time>2020-05-22T12:23:07Z</time>
      </trkpt>
      <trkpt lat="48.73022" lon="7.22849">
        <ele>298.2</ele>
        <time>2020-05-22T12:23:09Z</time>
      </trkpt>
      <trkpt lat="48.73021" lon="7.22848">
        <ele>298.2</ele>
        <time>2020-05-22T12:23:11Z</time>
      </trkpt>
      <trkpt lat="48.73021" lon="7.22847">
        <ele>298.1</ele>
        <time>2020-05-22T12:23:12Z</time>
      </trkpt>
      <trkpt lat="48.73021" lon="7.22847">
        <ele>298.1</ele>
        <time>2020-05-22T12:23:13Z</time>
      </trkpt>
      <trkpt lat="48.7302" lon="7.22846">
        <ele>298.1</ele>
        <time>2020-05-22T12:23:14Z</time>
      </trkpt>
      <trkpt lat="48.7302" lon="7.22845">
        <ele>298.1</ele>
        <time>2020-05-22T12:23:16Z</time>
      </trkpt>
      <trkpt lat="48.7302" lon="7.22845">
        <ele>298</ele>
        <time>2020-05-22T12:23:17Z</time>
      </trkpt>
      <trkpt lat="48.7302" lon="7.22844">
        <ele>298</ele>
        <time>2020-05-22T12:23:18Z</time>
      </trkpt>
      <trkpt lat="48.73017" lon="7.22834">
        <ele>297.6</ele>
        <time>2020-05-22T12:23:20Z</time>
      </trkpt>
      <trkpt lat="48.73015" lon="7.22828">
        <ele>297.4</ele>
        <time>2020-05-22T12:23:21Z</time>
      </trkpt>
      <trkpt lat="48.73011" lon="7.22818">
        <ele>296.8</ele>
        <time>2020-05-22T12:23:23Z</time>
      </trkpt>
      <trkpt lat="48.73008" lon="7.22812">
        <ele>296.5</ele>
        <time>2020-05-22T12:23:24Z</time>
      </trkpt>
      <trkpt lat="48.73005" lon="7.22806">
        <ele>295.9</ele>
        <time>2020-05-22T12:23:26Z</time>
      </trkpt>
      <trkpt lat="48.73003" lon="7.22805">
        <ele>295.8</ele>
        <time>2020-05-22T12:23:28Z</time>
      </trkpt>
      <trkpt lat="48.73003" lon="7.22805">
        <ele>295.8</ele>
        <time>2020-05-22T12:23:29Z</time>
      </trkpt>
      <trkpt lat="48.73003" lon="7.22804">
        <ele>295.7</ele>
        <time>2020-05-22T12:23:30Z</time>
      </trkpt>
      <trkpt lat="48.73003" lon="7.22803">
        <ele>295.6</ele>
        <time>2020-05-22T12:23:32Z</time>
      </trkpt>
      <trkpt lat="48.73003" lon="7.22802">
        <ele>295.5</ele>
        <time>2020-05-22T12:23:33Z</time>
      </trkpt>
      <trkpt lat="48.73003" lon="7.22803">
        <ele>295.5</ele>
        <time>2020-05-22T12:23:35Z</time>
      </trkpt>
      <trkpt lat="48.73003" lon="7.22803">
        <ele>295.5</ele>
        <time>2020-05-22T12:23:36Z</time>
      </trkpt>
      <trkpt lat="48.73003" lon="7.22803">
        <ele>295.5</ele>
        <time>2020-05-22T12:23:37Z</time>
      </trkpt>
      <trkpt lat="48.73003" lon="7.22803">
        <ele>295.4</ele>
        <time>2020-05-22T12:23:38Z</time>
      </trkpt>
      <trkpt lat="48.73002" lon="7.22803">
        <ele>295.4</ele>
        <time>2020-05-22T12:23:40Z</time>
      </trkpt>
      <trkpt lat="48.73002" lon="7.22803">
        <ele>295.3</ele>
        <time>2020-05-22T12:23:41Z</time>
      </trkpt>
      <trkpt lat="48.73001" lon="7.22803">
        <ele>295.3</ele>
        <time>2020-05-22T12:23:43Z</time>
      </trkpt>
      <trkpt lat="48.73001" lon="7.22804">
        <ele>295.2</ele>
        <time>2020-05-22T12:23:44Z</time>
      </trkpt>
      <trkpt lat="48.73" lon="7.22805">
        <ele>295</ele>
        <time>2020-05-22T12:23:45Z</time>
      </trkpt>
      <trkpt lat="48.73" lon="7.22806">
        <ele>294.9</ele>
        <time>2020-05-22T12:23:46Z</time>
      </trkpt>
      <trkpt lat="48.72999" lon="7.22809">
        <ele>294.5</ele>
        <time>2020-05-22T12:23:48Z</time>
      </trkpt>
      <trkpt lat="48.72999" lon="7.22811">
        <ele>294.3</ele>
        <time>2020-05-22T12:23:50Z</time>
      </trkpt>
      <trkpt lat="48.72999" lon="7.22816">
        <ele>293.7</ele>
        <time>2020-05-22T12:23:52Z</time>
      </trkpt>
      <trkpt lat="48.72999" lon="7.22819">
        <ele>293.2</ele>
        <time>2020-05-22T12:23:53Z</time>
      </trkpt>
      <trkpt lat="48.72999" lon="7.2282">
        <ele>293</ele>
        <time>2020-05-22T12:23:55Z</time>
      </trkpt>
      <trkpt lat="48.72999" lon="7.22821">
        <ele>292.9</ele>
        <time>2020-05-22T12:23:56Z</time>
      </trkpt>
      <trkpt lat="48.72999" lon="7.22822">
        <ele>292.7</ele>
        <time>2020-05-22T12:23:57Z</time>
      </trkpt>
      <trkpt lat="48.72998" lon="7.22824">
        <ele>292.4</ele>
        <time>2020-05-22T12:23:59Z</time>
      </trkpt>
      <trkpt lat="48.72998" lon="7.22828">
        <ele>291.6</ele>
        <time>2020-05-22T12:24:01Z</time>
      </trkpt>
      <trkpt lat="48.72997" lon="7.22832">
        <ele>290.8</ele>
        <time>2020-05-22T12:24:02Z</time>
      </trkpt>
      <trkpt lat="48.72995" lon="7.22836">
        <ele>290</ele>
        <time>2020-05-22T12:24:04Z</time>
      </trkpt>
      <trkpt lat="48.72993" lon="7.22839">
        <ele>289.2</ele>
        <time>2020-05-22T12:24:06Z</time>
      </trkpt>
      <trkpt lat="48.72991" lon="7.22841">
        <ele>288.5</ele>
        <time>2020-05-22T12:24:07Z</time>
      </trkpt>
      <trkpt lat="48.72989" lon="7.22842">
        <ele>287.8</ele>
        <time>2020-05-22T12:24:09Z</time>
      </trkpt>
      <trkpt lat="48.72987" lon="7.22843">
        <ele>287.2</ele>
        <time>2020-05-22T12:24:10Z</time>
      </trkpt>
      <trkpt lat="48.72982" lon="7.22845">
        <ele>285.8</ele>
        <time>2020-05-22T12:24:12Z</time>
      </trkpt>
      <trkpt lat="48.7298" lon="7.22845">
        <ele>285.2</ele>
        <time>2020-05-22T12:24:14Z</time>
      </trkpt>
      <trkpt lat="48.72977" lon="7.22844">
        <ele>284.5</ele>
        <time>2020-05-22T12:24:16Z</time>
      </trkpt>
      <trkpt lat="48.72977" lon="7.22844">
        <ele>284.3</ele>
        <time>2020-05-22T12:24:18Z</time>
      </trkpt>
      <trkpt lat="48.72977" lon="7.22844">
        <ele>284.3</ele>
        <time>2020-05-22T12:24:19Z</time>
      </trkpt>
      <trkpt lat="48.72977" lon="7.22843">
        <ele>284.1</ele>
        <time>2020-05-22T12:24:21Z</time>
      </trkpt>
      <trkpt lat="48.72977" lon="7.22843">
        <ele>284</ele>
        <time>2020-05-22T12:24:22Z</time>
      </trkpt>
      <trkpt lat="48.72977" lon="7.22843">
        <ele>283.9</ele>
        <time>2020-05-22T12:24:23Z</time>
      </trkpt>
      <trkpt lat="48.72978" lon="7.22843">
        <ele>283.8</ele>
        <time>2020-05-22T12:24:25Z</time>
      </trkpt>
      <trkpt lat="48.72978" lon="7.22843">
        <ele>283.7</ele>
        <time>2020-05-22T12:24:27Z</time>
      </trkpt>
      <trkpt lat="48.72975" lon="7.2284">
        <ele>282.5</ele>
        <time>2020-05-22T12:24:50Z</time>
      </trkpt>
      <trkpt lat="48.72974" lon="7.22838">
        <ele>282.1</ele>
        <time>2020-05-22T12:24:52Z</time>
      </trkpt>
      <trkpt lat="48.72973" lon="7.22837">
        <ele>281.8</ele>
        <time>2020-05-22T12:24:53Z</time>
      </trkpt>
      <trkpt lat="48.72973" lon="7.22835">
        <ele>281.5</ele>
        <time>2020-05-22T12:24:54Z</time>
      </trkpt>
      <trkpt lat="48.72973" lon="7.22832">
        <ele>281.1</ele>
        <time>2020-05-22T12:24:56Z</time>
      </trkpt>
      <trkpt lat="48.72973" lon="7.22832">
        <ele>280.9</ele>
        <time>2020-05-22T12:24:58Z</time>
      </trkpt>
      <trkpt lat="48.72973" lon="7.22831">
        <ele>280.7</ele>
        <time>2020-05-22T12:24:59Z</time>
      </trkpt>
      <trkpt lat="48.72973" lon="7.22829">
        <ele>280.5</ele>
        <time>2020-05-22T12:25:01Z</time>
      </trkpt>
      <trkpt lat="48.72973" lon="7.2283">
        <ele>280.4</ele>
        <time>2020-05-22T12:25:03Z</time>
      </trkpt>
      <trkpt lat="48.72973" lon="7.22831">
        <ele>280.3</ele>
        <time>2020-05-22T12:25:05Z</time>
      </trkpt>
      <trkpt lat="48.72973" lon="7.22831">
        <ele>280.2</ele>
        <time>2020-05-22T12:25:06Z</time>
      </trkpt>
      <trkpt lat="48.72973" lon="7.22832">
        <ele>280.1</ele>
        <time>2020-05-22T12:25:08Z</time>
      </trkpt>
      <trkpt lat="48.72973" lon="7.22832">
        <ele>280.1</ele>
        <time>2020-05-22T12:25:09Z</time>
      </trkpt>
      <trkpt lat="48.72973" lon="7.22832">
        <ele>280</ele>
        <time>2020-05-22T12:25:11Z</time>
      </trkpt>
      <trkpt lat="48.72972" lon="7.22833">
        <ele>279.9</ele>
        <time>2020-05-22T12:25:13Z</time>
      </trkpt>
      <trkpt lat="48.7297" lon="7.22832">
        <ele>279.3</ele>
        <time>2020-05-22T12:25:15Z</time>
      </trkpt>
      <trkpt lat="48.72968" lon="7.22832">
        <ele>279</ele>
        <time>2020-05-22T12:25:17Z</time>
      </trkpt>
      <trkpt lat="48.72967" lon="7.22832">
        <ele>278.9</ele>
        <time>2020-05-22T12:25:19Z</time>
      </trkpt>
      <trkpt lat="48.72967" lon="7.22831">
        <ele>278.8</ele>
        <time>2020-05-22T12:25:20Z</time>
      </trkpt>
      <trkpt lat="48.72966" lon="7.22831">
        <ele>278.7</ele>
        <time>2020-05-22T12:25:21Z</time>
      </trkpt>
      <trkpt lat="48.72962" lon="7.22834">
        <ele>278</ele>
        <time>2020-05-22T12:25:23Z</time>
      </trkpt>
      <trkpt lat="48.7296" lon="7.22834">
        <ele>277.7</ele>
        <time>2020-05-22T12:25:24Z</time>
      </trkpt>
      <trkpt lat="48.72958" lon="7.22834">
        <ele>277.6</ele>
        <time>2020-05-22T12:25:25Z</time>
      </trkpt>
      <trkpt lat="48.72955" lon="7.22833">
        <ele>277.2</ele>
        <time>2020-05-22T12:25:27Z</time>
      </trkpt>
      <trkpt lat="48.72949" lon="7.22837">
        <ele>276.7</ele>
        <time>2020-05-22T12:25:29Z</time>
      </trkpt>
      <trkpt lat="48.72946" lon="7.22839">
        <ele>276.6</ele>
        <time>2020-05-22T12:25:31Z</time>
      </trkpt>
      <trkpt lat="48.72944" lon="7.2284">
        <ele>276.5</ele>
        <time>2020-05-22T12:25:32Z</time>
      </trkpt>
      <trkpt lat="48.72943" lon="7.22841">
        <ele>276.5</ele>
        <time>2020-05-22T12:25:34Z</time>
      </trkpt>
      <trkpt lat="48.72942" lon="7.22841">
        <ele>276.5</ele>
        <time>2020-05-22T12:25:36Z</time>
      </trkpt>
      <trkpt lat="48.72941" lon="7.22842">
        <ele>276.4</ele>
        <time>2020-05-22T12:25:37Z</time>
      </trkpt>
      <trkpt lat="48.7294" lon="7.22843">
        <ele>276.4</ele>
        <time>2020-05-22T12:25:39Z</time>
      </trkpt>
      <trkpt lat="48.72939" lon="7.22843">
        <ele>276.4</ele>
        <time>2020-05-22T12:25:41Z</time>
      </trkpt>
      <trkpt lat="48.72939" lon="7.22844">
        <ele>276.4</ele>
        <time>2020-05-22T12:25:42Z</time>
      </trkpt>
      <trkpt lat="48.72938" lon="7.22844">
        <ele>276.4</ele>
        <time>2020-05-22T12:25:43Z</time>
      </trkpt>
      <trkpt lat="48.72937" lon="7.22845">
        <ele>276.3</ele>
        <time>2020-05-22T12:25:45Z</time>
      </trkpt>
      <trkpt lat="48.72932" lon="7.22849">
        <ele>276.2</ele>
        <time>2020-05-22T12:25:47Z</time>
      </trkpt>
      <trkpt lat="48.72926" lon="7.22853">
        <ele>275.9</ele>
        <time>2020-05-22T12:25:49Z</time>
      </trkpt>
      <trkpt lat="48.72922" lon="7.22855">
        <ele>275.7</ele>
        <time>2020-05-22T12:25:51Z</time>
      </trkpt>
      <trkpt lat="48.72921" lon="7.22855">
        <ele>275.7</ele>
        <time>2020-05-22T12:25:52Z</time>
      </trkpt>
      <trkpt lat="48.72918" lon="7.22855">
        <ele>275.6</ele>
        <time>2020-05-22T12:25:54Z</time>
      </trkpt>
      <trkpt lat="48.72918" lon="7.22855">
        <ele>275.5</ele>
        <time>2020-05-22T12:25:56Z</time>
      </trkpt>
      <trkpt lat="48.72917" lon="7.22855">
        <ele>275.2</ele>
        <time>2020-05-22T12:25:57Z</time>
      </trkpt>
      <trkpt lat="48.72914" lon="7.22853">
        <ele>275.1</ele>
        <time>2020-05-22T12:25:59Z</time>
      </trkpt>
      <trkpt lat="48.72912" lon="7.22849">
        <ele>275</ele>
        <time>2020-05-22T12:26:01Z</time>
      </trkpt>
      <trkpt lat="48.72912" lon="7.22849">
        <ele>275</ele>
        <time>2020-05-22T12:26:02Z</time>
      </trkpt>
      <trkpt lat="48.72911" lon="7.22845">
        <ele>274.9</ele>
        <time>2020-05-22T12:26:04Z</time>
      </trkpt>
      <trkpt lat="48.7291" lon="7.22845">
        <ele>274.9</ele>
        <time>2020-05-22T12:26:05Z</time>
      </trkpt>
      <trkpt lat="48.7291" lon="7.22845">
        <ele>274.9</ele>
        <time>2020-05-22T12:26:06Z</time>
      </trkpt>
      <trkpt lat="48.7291" lon="7.22843">
        <ele>274.8</ele>
        <time>2020-05-22T12:26:08Z</time>
      </trkpt>
      <trkpt lat="48.72909" lon="7.22839">
        <ele>274.6</ele>
        <time>2020-05-22T12:26:10Z</time>
      </trkpt>
      <trkpt lat="48.72908" lon="7.22836">
        <ele>274.4</ele>
        <time>2020-05-22T12:26:11Z</time>
      </trkpt>
      <trkpt lat="48.72907" lon="7.22831">
        <ele>274.1</ele>
        <time>2020-05-22T12:26:13Z</time>
      </trkpt>
      <trkpt lat="48.72906" lon="7.22825">
        <ele>273.7</ele>
        <time>2020-05-22T12:26:14Z</time>
      </trkpt>
      <trkpt lat="48.72903" lon="7.22815">
        <ele>273</ele>
        <time>2020-05-22T12:26:15Z</time>
      </trkpt>
      <trkpt lat="48.72902" lon="7.22806">
        <ele>272.3</ele>
        <time>2020-05-22T12:26:16Z</time>
      </trkpt>
      <trkpt lat="48.729" lon="7.228">
        <ele>271.8</ele>
        <time>2020-05-22T12:26:17Z</time>
      </trkpt>
      <trkpt lat="48.72896" lon="7.22789">
        <ele>271.1</ele>
        <time>2020-05-22T12:26:19Z</time>
      </trkpt>
      <trkpt lat="48.72894" lon="7.22784">
        <ele>270.8</ele>
        <time>2020-05-22T12:26:20Z</time>
      </trkpt>
      <trkpt lat="48.72885" lon="7.22774">
        <ele>270.1</ele>
        <time>2020-05-22T12:26:22Z</time>
      </trkpt>
      <trkpt lat="48.72881" lon="7.22771">
        <ele>269.9</ele>
        <time>2020-05-22T12:26:23Z</time>
      </trkpt>
      <trkpt lat="48.72876" lon="7.22765">
        <ele>269.6</ele>
        <time>2020-05-22T12:26:25Z</time>
      </trkpt>
      <trkpt lat="48.72872" lon="7.22758">
        <ele>269.4</ele>
        <time>2020-05-22T12:26:27Z</time>
      </trkpt>
      <trkpt lat="48.72871" lon="7.22755">
        <ele>269.3</ele>
        <time>2020-05-22T12:26:29Z</time>
      </trkpt>
      <trkpt lat="48.7287" lon="7.22747">
        <ele>269.3</ele>
        <time>2020-05-22T12:26:31Z</time>
      </trkpt>
      <trkpt lat="48.7287" lon="7.22743">
        <ele>269.2</ele>
        <time>2020-05-22T12:26:32Z</time>
      </trkpt>
      <trkpt lat="48.72869" lon="7.22737">
        <ele>269.3</ele>
        <time>2020-05-22T12:26:34Z</time>
      </trkpt>
      <trkpt lat="48.72869" lon="7.22735">
        <ele>269.3</ele>
        <time>2020-05-22T12:26:35Z</time>
      </trkpt>
      <trkpt lat="48.72869" lon="7.22727">
        <ele>269.3</ele>
        <time>2020-05-22T12:26:37Z</time>
      </trkpt>
      <trkpt lat="48.72869" lon="7.22724">
        <ele>269.3</ele>
        <time>2020-05-22T12:26:38Z</time>
      </trkpt>
      <trkpt lat="48.72869" lon="7.22718">
        <ele>269.3</ele>
        <time>2020-05-22T12:26:40Z</time>
      </trkpt>
      <trkpt lat="48.72868" lon="7.22712">
        <ele>269.3</ele>
        <time>2020-05-22T12:26:41Z</time>
      </trkpt>
      <trkpt lat="48.72868" lon="7.2271">
        <ele>269.3</ele>
        <time>2020-05-22T12:26:42Z</time>
      </trkpt>
      <trkpt lat="48.72864" lon="7.22702">
        <ele>269.1</ele>
        <time>2020-05-22T12:26:44Z</time>
      </trkpt>
      <trkpt lat="48.72863" lon="7.22699">
        <ele>269</ele>
        <time>2020-05-22T12:26:45Z</time>
      </trkpt>
      <trkpt lat="48.72859" lon="7.22692">
        <ele>268.9</ele>
        <time>2020-05-22T12:26:47Z</time>
      </trkpt>
      <trkpt lat="48.72857" lon="7.2269">
        <ele>268.8</ele>
        <time>2020-05-22T12:26:49Z</time>
      </trkpt>
      <trkpt lat="48.72856" lon="7.2269">
        <ele>268.8</ele>
        <time>2020-05-22T12:26:50Z</time>
      </trkpt>
      <trkpt lat="48.72855" lon="7.2269">
        <ele>268.8</ele>
        <time>2020-05-22T12:26:51Z</time>
      </trkpt>
      <trkpt lat="48.72853" lon="7.22692">
        <ele>268.7</ele>
        <time>2020-05-22T12:26:53Z</time>
      </trkpt>
      <trkpt lat="48.72852" lon="7.22693">
        <ele>268.7</ele>
        <time>2020-05-22T12:26:54Z</time>
      </trkpt>
      <trkpt lat="48.72852" lon="7.22695">
        <ele>268.6</ele>
        <time>2020-05-22T12:26:56Z</time>
      </trkpt>
      <trkpt lat="48.72851" lon="7.22696">
        <ele>268.6</ele>
        <time>2020-05-22T12:26:57Z</time>
      </trkpt>
      <trkpt lat="48.72852" lon="7.22704">
        <ele>268.4</ele>
        <time>2020-05-22T12:26:59Z</time>
      </trkpt>
      <trkpt lat="48.72852" lon="7.22703">
        <ele>268.4</ele>
        <time>2020-05-22T12:27:00Z</time>
      </trkpt>
      <trkpt lat="48.72852" lon="7.22705">
        <ele>268.3</ele>
        <time>2020-05-22T12:27:02Z</time>
      </trkpt>
      <trkpt lat="48.72853" lon="7.22711">
        <ele>268.1</ele>
        <time>2020-05-22T12:27:04Z</time>
      </trkpt>
      <trkpt lat="48.72854" lon="7.22716">
        <ele>268</ele>
        <time>2020-05-22T12:27:05Z</time>
      </trkpt>
      <trkpt lat="48.72855" lon="7.22717">
        <ele>268</ele>
        <time>2020-05-22T12:27:06Z</time>
      </trkpt>
      <trkpt lat="48.72856" lon="7.22719">
        <ele>267.9</ele>
        <time>2020-05-22T12:27:07Z</time>
      </trkpt>
      <trkpt lat="48.72853" lon="7.22719">
        <ele>267.7</ele>
        <time>2020-05-22T12:27:08Z</time>
      </trkpt>
      <trkpt lat="48.7285" lon="7.22721">
        <ele>267.5</ele>
        <time>2020-05-22T12:27:09Z</time>
      </trkpt>
      <trkpt lat="48.72847" lon="7.22726">
        <ele>267.3</ele>
        <time>2020-05-22T12:27:10Z</time>
      </trkpt>
      <trkpt lat="48.72845" lon="7.22731">
        <ele>267</ele>
        <time>2020-05-22T12:27:11Z</time>
      </trkpt>
      <trkpt lat="48.72845" lon="7.22737">
        <ele>266.7</ele>
        <time>2020-05-22T12:27:13Z</time>
      </trkpt>
      <trkpt lat="48.72844" lon="7.22743">
        <ele>266.5</ele>
        <time>2020-05-22T12:27:14Z</time>
      </trkpt>
      <trkpt lat="48.72846" lon="7.22754">
        <ele>266</ele>
        <time>2020-05-22T12:27:16Z</time>
      </trkpt>
      <trkpt lat="48.7285" lon="7.22762">
        <ele>265.5</ele>
        <time>2020-05-22T12:27:18Z</time>
      </trkpt>
      <trkpt lat="48.72851" lon="7.22767">
        <ele>265.2</ele>
        <time>2020-05-22T12:27:19Z</time>
      </trkpt>
      <trkpt lat="48.72849" lon="7.22775">
        <ele>264.8</ele>
        <time>2020-05-22T12:27:21Z</time>
      </trkpt>
      <trkpt lat="48.72849" lon="7.22779">
        <ele>264.6</ele>
        <time>2020-05-22T12:27:22Z</time>
      </trkpt>
      <trkpt lat="48.72849" lon="7.22788">
        <ele>264</ele>
        <time>2020-05-22T12:27:24Z</time>
      </trkpt>
      <trkpt lat="48.7285" lon="7.22806">
        <ele>263</ele>
        <time>2020-05-22T12:27:26Z</time>
      </trkpt>
      <trkpt lat="48.72852" lon="7.2282">
        <ele>262.1</ele>
        <time>2020-05-22T12:27:28Z</time>
      </trkpt>
      <trkpt lat="48.72854" lon="7.22832">
        <ele>261.3</ele>
        <time>2020-05-22T12:27:30Z</time>
      </trkpt>
      <trkpt lat="48.72854" lon="7.22842">
        <ele>260.8</ele>
        <time>2020-05-22T12:27:32Z</time>
      </trkpt>
      <trkpt lat="48.72854" lon="7.22855">
        <ele>260.1</ele>
        <time>2020-05-22T12:27:34Z</time>
      </trkpt>
      <trkpt lat="48.72854" lon="7.2286">
        <ele>259.9</ele>
        <time>2020-05-22T12:27:35Z</time>
      </trkpt>
      <trkpt lat="48.72854" lon="7.22867">
        <ele>259.5</ele>
        <time>2020-05-22T12:27:36Z</time>
      </trkpt>
      <trkpt lat="48.72851" lon="7.22881">
        <ele>258.9</ele>
        <time>2020-05-22T12:27:38Z</time>
      </trkpt>
      <trkpt lat="48.72852" lon="7.2289">
        <ele>258.7</ele>
        <time>2020-05-22T12:27:39Z</time>
      </trkpt>
      <trkpt lat="48.72845" lon="7.22898">
        <ele>258.5</ele>
        <time>2020-05-22T12:27:41Z</time>
      </trkpt>
      <trkpt lat="48.72845" lon="7.22899">
        <ele>258.5</ele>
        <time>2020-05-22T12:27:42Z</time>
      </trkpt>
      <trkpt lat="48.72844" lon="7.22899">
        <ele>258.5</ele>
        <time>2020-05-22T12:27:43Z</time>
      </trkpt>
      <trkpt lat="48.72844" lon="7.229">
        <ele>258.5</ele>
        <time>2020-05-22T12:27:45Z</time>
      </trkpt>
      <trkpt lat="48.72844" lon="7.22901">
        <ele>258.5</ele>
        <time>2020-05-22T12:27:46Z</time>
      </trkpt>
      <trkpt lat="48.72843" lon="7.22901">
        <ele>258.5</ele>
        <time>2020-05-22T12:27:48Z</time>
      </trkpt>
      <trkpt lat="48.72843" lon="7.22902">
        <ele>258.5</ele>
        <time>2020-05-22T12:27:49Z</time>
      </trkpt>
      <trkpt lat="48.72843" lon="7.22903">
        <ele>258.5</ele>
        <time>2020-05-22T12:27:51Z</time>
      </trkpt>
      <trkpt lat="48.72843" lon="7.22904">
        <ele>258.5</ele>
        <time>2020-05-22T12:27:52Z</time>
      </trkpt>
      <trkpt lat="48.72842" lon="7.22904">
        <ele>258.5</ele>
        <time>2020-05-22T12:27:53Z</time>
      </trkpt>
      <trkpt lat="48.72838" lon="7.22915">
        <ele>258.4</ele>
        <time>2020-05-22T12:27:55Z</time>
      </trkpt>
      <trkpt lat="48.72833" lon="7.2292">
        <ele>258.3</ele>
        <time>2020-05-22T12:27:57Z</time>
      </trkpt>
      <trkpt lat="48.72829" lon="7.22925">
        <ele>258.1</ele>
        <time>2020-05-22T12:27:59Z</time>
      </trkpt>
      <trkpt lat="48.72827" lon="7.22927">
        <ele>258.3</ele>
        <time>2020-05-22T12:28:00Z</time>
      </trkpt>
      <trkpt lat="48.72826" lon="7.22929">
        <ele>258.3</ele>
        <time>2020-05-22T12:28:01Z</time>
      </trkpt>
      <trkpt lat="48.72823" lon="7.22934">
        <ele>258.4</ele>
        <time>2020-05-22T12:28:03Z</time>
      </trkpt>
      <trkpt lat="48.72819" lon="7.22939">
        <ele>258.5</ele>
        <time>2020-05-22T12:28:05Z</time>
      </trkpt>
      <trkpt lat="48.72816" lon="7.2294">
        <ele>258.5</ele>
        <time>2020-05-22T12:28:06Z</time>
      </trkpt>
      <trkpt lat="48.72814" lon="7.22941">
        <ele>258.5</ele>
        <time>2020-05-22T12:28:07Z</time>
      </trkpt>
      <trkpt lat="48.72813" lon="7.22943">
        <ele>258.6</ele>
        <time>2020-05-22T12:28:09Z</time>
      </trkpt>
      <trkpt lat="48.72812" lon="7.22944">
        <ele>258.6</ele>
        <time>2020-05-22T12:28:11Z</time>
      </trkpt>
      <trkpt lat="48.72807" lon="7.2295">
        <ele>258.7</ele>
        <time>2020-05-22T12:28:13Z</time>
      </trkpt>
      <trkpt lat="48.72801" lon="7.22954">
        <ele>258.8</ele>
        <time>2020-05-22T12:28:15Z</time>
      </trkpt>
      <trkpt lat="48.72799" lon="7.22956">
        <ele>258.9</ele>
        <time>2020-05-22T12:28:16Z</time>
      </trkpt>
      <trkpt lat="48.72796" lon="7.22958">
        <ele>258.9</ele>
        <time>2020-05-22T12:28:17Z</time>
      </trkpt>
      <trkpt lat="48.72794" lon="7.2296">
        <ele>259</ele>
        <time>2020-05-22T12:28:19Z</time>
      </trkpt>
      <trkpt lat="48.72794" lon="7.22963">
        <ele>259</ele>
        <time>2020-05-22T12:28:21Z</time>
      </trkpt>
      <trkpt lat="48.72793" lon="7.22961">
        <ele>259</ele>
        <time>2020-05-22T12:28:22Z</time>
      </trkpt>
      <trkpt lat="48.72791" lon="7.22959">
        <ele>259.1</ele>
        <time>2020-05-22T12:28:23Z</time>
      </trkpt>
      <trkpt lat="48.7279" lon="7.22958">
        <ele>259.1</ele>
        <time>2020-05-22T12:28:25Z</time>
      </trkpt>
      <trkpt lat="48.72788" lon="7.22958">
        <ele>259.1</ele>
        <time>2020-05-22T12:28:27Z</time>
      </trkpt>
      <trkpt lat="48.72786" lon="7.22957">
        <ele>259.2</ele>
        <time>2020-05-22T12:28:29Z</time>
      </trkpt>
      <trkpt lat="48.72785" lon="7.22956">
        <ele>259.2</ele>
        <time>2020-05-22T12:28:30Z</time>
      </trkpt>
      <trkpt lat="48.72783" lon="7.22955">
        <ele>259.3</ele>
        <time>2020-05-22T12:28:32Z</time>
      </trkpt>
      <trkpt lat="48.72782" lon="7.22954">
        <ele>259.3</ele>
        <time>2020-05-22T12:28:33Z</time>
      </trkpt>
      <trkpt lat="48.72782" lon="7.22952">
        <ele>259.3</ele>
        <time>2020-05-22T12:28:34Z</time>
      </trkpt>
      <trkpt lat="48.72782" lon="7.22952">
        <ele>259.3</ele>
        <time>2020-05-22T12:28:36Z</time>
      </trkpt>
      <trkpt lat="48.72782" lon="7.22951">
        <ele>259.3</ele>
        <time>2020-05-22T12:28:37Z</time>
      </trkpt>
      <trkpt lat="48.72782" lon="7.2295">
        <ele>259.4</ele>
        <time>2020-05-22T12:28:39Z</time>
      </trkpt>
      <trkpt lat="48.72782" lon="7.22947">
        <ele>259.4</ele>
        <time>2020-05-22T12:28:41Z</time>
      </trkpt>
      <trkpt lat="48.72781" lon="7.22947">
        <ele>259.4</ele>
        <time>2020-05-22T12:28:43Z</time>
      </trkpt>
      <trkpt lat="48.72781" lon="7.22946">
        <ele>259.4</ele>
        <time>2020-05-22T12:28:44Z</time>
      </trkpt>
      <trkpt lat="48.72779" lon="7.22945">
        <ele>260.2</ele>
        <time>2020-05-22T12:28:46Z</time>
      </trkpt>
      <trkpt lat="48.72778" lon="7.22944">
        <ele>260.4</ele>
        <time>2020-05-22T12:28:48Z</time>
      </trkpt>
      <trkpt lat="48.72777" lon="7.22942">
        <ele>260.7</ele>
        <time>2020-05-22T12:28:50Z</time>
      </trkpt>
      <trkpt lat="48.72777" lon="7.2294">
        <ele>260.9</ele>
        <time>2020-05-22T12:28:52Z</time>
      </trkpt>
      <trkpt lat="48.72777" lon="7.22937">
        <ele>261.3</ele>
        <time>2020-05-22T12:28:53Z</time>
      </trkpt>
      <trkpt lat="48.72776" lon="7.22935">
        <ele>261.5</ele>
        <time>2020-05-22T12:28:54Z</time>
      </trkpt>
      <trkpt lat="48.72776" lon="7.22934">
        <ele>261.7</ele>
        <time>2020-05-22T12:28:55Z</time>
      </trkpt>
      <trkpt lat="48.72776" lon="7.22932">
        <ele>262</ele>
        <time>2020-05-22T12:28:57Z</time>
      </trkpt>
      <trkpt lat="48.72775" lon="7.22932">
        <ele>262</ele>
        <time>2020-05-22T12:28:58Z</time>
      </trkpt>
      <trkpt lat="48.72775" lon="7.22931">
        <ele>262.2</ele>
        <time>2020-05-22T12:28:59Z</time>
      </trkpt>
      <trkpt lat="48.72775" lon="7.22929">
        <ele>262.4</ele>
        <time>2020-05-22T12:29:01Z</time>
      </trkpt>
      <trkpt lat="48.72775" lon="7.22928">
        <ele>262.6</ele>
        <time>2020-05-22T12:29:02Z</time>
      </trkpt>
      <trkpt lat="48.72775" lon="7.22926">
        <ele>262.7</ele>
        <time>2020-05-22T12:29:04Z</time>
      </trkpt>
      <trkpt lat="48.72774" lon="7.22925">
        <ele>262.9</ele>
        <time>2020-05-22T12:29:06Z</time>
      </trkpt>
      <trkpt lat="48.72774" lon="7.22924">
        <ele>263.1</ele>
        <time>2020-05-22T12:29:07Z</time>
      </trkpt>
      <trkpt lat="48.72774" lon="7.22921">
        <ele>263.5</ele>
        <time>2020-05-22T12:29:09Z</time>
      </trkpt>
      <trkpt lat="48.72773" lon="7.2292">
        <ele>263.7</ele>
        <time>2020-05-22T12:29:10Z</time>
      </trkpt>
      <trkpt lat="48.72773" lon="7.22917">
        <ele>264.1</ele>
        <time>2020-05-22T12:29:12Z</time>
      </trkpt>
      <trkpt lat="48.72774" lon="7.22914">
        <ele>264.5</ele>
        <time>2020-05-22T12:29:14Z</time>
      </trkpt>
      <trkpt lat="48.72774" lon="7.22912">
        <ele>264.8</ele>
        <time>2020-05-22T12:29:16Z</time>
      </trkpt>
      <trkpt lat="48.72775" lon="7.22911">
        <ele>265</ele>
        <time>2020-05-22T12:29:18Z</time>
      </trkpt>
      <trkpt lat="48.72775" lon="7.22909">
        <ele>265.2</ele>
        <time>2020-05-22T12:29:20Z</time>
      </trkpt>
      <trkpt lat="48.72776" lon="7.22907">
        <ele>265.5</ele>
        <time>2020-05-22T12:29:21Z</time>
      </trkpt>
      <trkpt lat="48.72776" lon="7.22904">
        <ele>266</ele>
        <time>2020-05-22T12:29:23Z</time>
      </trkpt>
      <trkpt lat="48.72777" lon="7.22903">
        <ele>266.2</ele>
        <time>2020-05-22T12:29:24Z</time>
      </trkpt>
      <trkpt lat="48.72777" lon="7.22902">
        <ele>266.3</ele>
        <time>2020-05-22T12:29:25Z</time>
      </trkpt>
      <trkpt lat="48.72778" lon="7.22899">
        <ele>266.7</ele>
        <time>2020-05-22T12:29:27Z</time>
      </trkpt>
      <trkpt lat="48.72778" lon="7.22898">
        <ele>266.9</ele>
        <time>2020-05-22T12:29:28Z</time>
      </trkpt>
      <trkpt lat="48.7278" lon="7.22896">
        <ele>267.4</ele>
        <time>2020-05-22T12:29:30Z</time>
      </trkpt>
      <trkpt lat="48.72782" lon="7.22895">
        <ele>267.8</ele>
        <time>2020-05-22T12:29:32Z</time>
      </trkpt>
      <trkpt lat="48.72782" lon="7.22894">
        <ele>267.9</ele>
        <time>2020-05-22T12:29:33Z</time>
      </trkpt>
      <trkpt lat="48.72782" lon="7.22894">
        <ele>267.9</ele>
        <time>2020-05-22T12:29:35Z</time>
      </trkpt>
      <trkpt lat="48.72782" lon="7.22894">
        <ele>268</ele>
        <time>2020-05-22T12:29:36Z</time>
      </trkpt>
      <trkpt lat="48.72782" lon="7.22894">
        <ele>268</ele>
        <time>2020-05-22T12:29:37Z</time>
      </trkpt>
      <trkpt lat="48.72783" lon="7.22891">
        <ele>268.4</ele>
        <time>2020-05-22T12:29:39Z</time>
      </trkpt>
      <trkpt lat="48.72783" lon="7.2289">
        <ele>268.6</ele>
        <time>2020-05-22T12:29:41Z</time>
      </trkpt>
      <trkpt lat="48.72784" lon="7.2289">
        <ele>268.7</ele>
        <time>2020-05-22T12:29:43Z</time>
      </trkpt>
      <trkpt lat="48.72784" lon="7.22891">
        <ele>268.8</ele>
        <time>2020-05-22T12:29:44Z</time>
      </trkpt>
      <trkpt lat="48.72784" lon="7.2289">
        <ele>268.8</ele>
        <time>2020-05-22T12:29:46Z</time>
      </trkpt>
      <trkpt lat="48.72785" lon="7.22889">
        <ele>269</ele>
        <time>2020-05-22T12:29:48Z</time>
      </trkpt>
      <trkpt lat="48.72785" lon="7.22889">
        <ele>269</ele>
        <time>2020-05-22T12:29:50Z</time>
      </trkpt>
      <trkpt lat="48.72785" lon="7.22889">
        <ele>269.1</ele>
        <time>2020-05-22T12:29:52Z</time>
      </trkpt>
      <trkpt lat="48.72785" lon="7.2289">
        <ele>269.1</ele>
        <time>2020-05-22T12:29:54Z</time>
      </trkpt>
      <trkpt lat="48.72785" lon="7.22888">
        <ele>269.3</ele>
        <time>2020-05-22T12:29:56Z</time>
      </trkpt>
      <trkpt lat="48.72786" lon="7.22887">
        <ele>269.6</ele>
        <time>2020-05-22T12:29:57Z</time>
      </trkpt>
      <trkpt lat="48.72787" lon="7.22885">
        <ele>269.8</ele>
        <time>2020-05-22T12:29:58Z</time>
      </trkpt>
      <trkpt lat="48.72788" lon="7.22881">
        <ele>270.4</ele>
        <time>2020-05-22T12:30:00Z</time>
      </trkpt>
      <trkpt lat="48.7279" lon="7.22876">
        <ele>271.1</ele>
        <time>2020-05-22T12:30:02Z</time>
      </trkpt>
      <trkpt lat="48.72792" lon="7.22874">
        <ele>271.4</ele>
        <time>2020-05-22T12:30:03Z</time>
      </trkpt>
      <trkpt lat="48.72792" lon="7.22873">
        <ele>271.6</ele>
        <time>2020-05-22T12:30:04Z</time>
      </trkpt>
      <trkpt lat="48.72793" lon="7.22872">
        <ele>271.8</ele>
        <time>2020-05-22T12:30:05Z</time>
      </trkpt>
      <trkpt lat="48.72795" lon="7.22867">
        <ele>272.4</ele>
        <time>2020-05-22T12:30:07Z</time>
      </trkpt>
      <trkpt lat="48.72797" lon="7.22864">
        <ele>272.8</ele>
        <time>2020-05-22T12:30:09Z</time>
      </trkpt>
      <trkpt lat="48.72799" lon="7.22861">
        <ele>273.3</ele>
        <time>2020-05-22T12:30:11Z</time>
      </trkpt>
      <trkpt lat="48.728" lon="7.22859">
        <ele>273.5</ele>
        <time>2020-05-22T12:30:12Z</time>
      </trkpt>
      <trkpt lat="48.72802" lon="7.22854">
        <ele>274.2</ele>
        <time>2020-05-22T12:30:14Z</time>
      </trkpt>
      <trkpt lat="48.72804" lon="7.22849">
        <ele>274.7</ele>
        <time>2020-05-22T12:30:16Z</time>
      </trkpt>
      <trkpt lat="48.72803" lon="7.22847">
        <ele>274.9</ele>
        <time>2020-05-22T12:30:17Z</time>
      </trkpt>
      <trkpt lat="48.72803" lon="7.22841">
        <ele>275.6</ele>
        <time>2020-05-22T12:30:19Z</time>
      </trkpt>
      <trkpt lat="48.72802" lon="7.22835">
        <ele>276.2</ele>
        <time>2020-05-22T12:30:21Z</time>
      </trkpt>
      <trkpt lat="48.72801" lon="7.22833">
        <ele>276.4</ele>
        <time>2020-05-22T12:30:22Z</time>
      </trkpt>
      <trkpt lat="48.72801" lon="7.22831">
        <ele>276.6</ele>
        <time>2020-05-22T12:30:23Z</time>
      </trkpt>
      <trkpt lat="48.728" lon="7.22826">
        <ele>277.1</ele>
        <time>2020-05-22T12:30:25Z</time>
      </trkpt>
      <trkpt lat="48.72799" lon="7.22822">
        <ele>277.5</ele>
        <time>2020-05-22T12:30:27Z</time>
      </trkpt>
      <trkpt lat="48.72798" lon="7.22818">
        <ele>277.9</ele>
        <time>2020-05-22T12:30:29Z</time>
      </trkpt>
      <trkpt lat="48.72798" lon="7.22815">
        <ele>278.2</ele>
        <time>2020-05-22T12:30:30Z</time>
      </trkpt>
      <trkpt lat="48.72799" lon="7.22811">
        <ele>278.5</ele>
        <time>2020-05-22T12:30:32Z</time>
      </trkpt>
      <trkpt lat="48.72799" lon="7.2281">
        <ele>278.7</ele>
        <time>2020-05-22T12:30:33Z</time>
      </trkpt>
      <trkpt lat="48.72799" lon="7.22806">
        <ele>279</ele>
        <time>2020-05-22T12:30:35Z</time>
      </trkpt>
      <trkpt lat="48.72798" lon="7.22803">
        <ele>279.3</ele>
        <time>2020-05-22T12:30:37Z</time>
      </trkpt>
      <trkpt lat="48.72797" lon="7.22799">
        <ele>279.6</ele>
        <time>2020-05-22T12:30:39Z</time>
      </trkpt>
      <trkpt lat="48.72797" lon="7.22796">
        <ele>280</ele>
        <time>2020-05-22T12:30:41Z</time>
      </trkpt>
      <trkpt lat="48.72796" lon="7.22791">
        <ele>280.4</ele>
        <time>2020-05-22T12:30:43Z</time>
      </trkpt>
      <trkpt lat="48.72795" lon="7.22787">
        <ele>280.8</ele>
        <time>2020-05-22T12:30:45Z</time>
      </trkpt>
      <trkpt lat="48.72794" lon="7.22784">
        <ele>281.1</ele>
        <time>2020-05-22T12:30:46Z</time>
      </trkpt>
      <trkpt lat="48.72793" lon="7.22778">
        <ele>281.7</ele>
        <time>2020-05-22T12:30:48Z</time>
      </trkpt>
      <trkpt lat="48.72792" lon="7.22775">
        <ele>282</ele>
        <time>2020-05-22T12:30:50Z</time>
      </trkpt>
      <trkpt lat="48.72792" lon="7.22773">
        <ele>282.1</ele>
        <time>2020-05-22T12:30:51Z</time>
      </trkpt>
      <trkpt lat="48.7279" lon="7.22768">
        <ele>282.6</ele>
        <time>2020-05-22T12:30:53Z</time>
      </trkpt>
      <trkpt lat="48.72789" lon="7.22764">
        <ele>282.9</ele>
        <time>2020-05-22T12:30:54Z</time>
      </trkpt>
      <trkpt lat="48.72787" lon="7.22761">
        <ele>283.4</ele>
        <time>2020-05-22T12:30:56Z</time>
      </trkpt>
      <trkpt lat="48.72785" lon="7.22759">
        <ele>283.7</ele>
        <time>2020-05-22T12:30:57Z</time>
      </trkpt>
      <trkpt lat="48.7278" lon="7.22754">
        <ele>284.4</ele>
        <time>2020-05-22T12:30:59Z</time>
      </trkpt>
      <trkpt lat="48.72777" lon="7.2275">
        <ele>285</ele>
        <time>2020-05-22T12:31:01Z</time>
      </trkpt>
      <trkpt lat="48.72774" lon="7.22748">
        <ele>285.4</ele>
        <time>2020-05-22T12:31:02Z</time>
      </trkpt>
      <trkpt lat="48.72774" lon="7.22747">
        <ele>285.5</ele>
        <time>2020-05-22T12:31:03Z</time>
      </trkpt>
      <trkpt lat="48.72771" lon="7.22744">
        <ele>286</ele>
        <time>2020-05-22T12:31:05Z</time>
      </trkpt>
      <trkpt lat="48.7277" lon="7.22742">
        <ele>286.2</ele>
        <time>2020-05-22T12:31:07Z</time>
      </trkpt>
      <trkpt lat="48.72767" lon="7.22738">
        <ele>286.7</ele>
        <time>2020-05-22T12:31:09Z</time>
      </trkpt>
      <trkpt lat="48.72765" lon="7.22736">
        <ele>287.1</ele>
        <time>2020-05-22T12:31:11Z</time>
      </trkpt>
      <trkpt lat="48.72763" lon="7.22735">
        <ele>287.3</ele>
        <time>2020-05-22T12:31:12Z</time>
      </trkpt>
      <trkpt lat="48.72762" lon="7.22731">
        <ele>287.7</ele>
        <time>2020-05-22T12:31:14Z</time>
      </trkpt>
      <trkpt lat="48.7276" lon="7.22726">
        <ele>288.3</ele>
        <time>2020-05-22T12:31:16Z</time>
      </trkpt>
      <trkpt lat="48.72758" lon="7.22724">
        <ele>288.5</ele>
        <time>2020-05-22T12:31:17Z</time>
      </trkpt>
      <trkpt lat="48.72756" lon="7.2272">
        <ele>289</ele>
        <time>2020-05-22T12:31:19Z</time>
      </trkpt>
      <trkpt lat="48.72755" lon="7.2272">
        <ele>289.1</ele>
        <time>2020-05-22T12:31:20Z</time>
      </trkpt>
      <trkpt lat="48.72752" lon="7.22717">
        <ele>289.5</ele>
        <time>2020-05-22T12:31:22Z</time>
      </trkpt>
      <trkpt lat="48.72751" lon="7.22715">
        <ele>289.8</ele>
        <time>2020-05-22T12:31:24Z</time>
      </trkpt>
      <trkpt lat="48.72749" lon="7.22714">
        <ele>289.9</ele>
        <time>2020-05-22T12:31:25Z</time>
      </trkpt>
      <trkpt lat="48.72749" lon="7.22713">
        <ele>290.1</ele>
        <time>2020-05-22T12:31:26Z</time>
      </trkpt>
      <trkpt lat="48.72746" lon="7.22712">
        <ele>290.5</ele>
        <time>2020-05-22T12:31:28Z</time>
      </trkpt>
      <trkpt lat="48.72743" lon="7.22711">
        <ele>290.8</ele>
        <time>2020-05-22T12:31:30Z</time>
      </trkpt>
      <trkpt lat="48.72742" lon="7.22711">
        <ele>290.9</ele>
        <time>2020-05-22T12:31:31Z</time>
      </trkpt>
      <trkpt lat="48.72738" lon="7.2271">
        <ele>291.3</ele>
        <time>2020-05-22T12:31:33Z</time>
      </trkpt>
      <trkpt lat="48.72737" lon="7.2271">
        <ele>291.4</ele>
        <time>2020-05-22T12:31:34Z</time>
      </trkpt>
      <trkpt lat="48.72734" lon="7.2271">
        <ele>291.7</ele>
        <time>2020-05-22T12:31:36Z</time>
      </trkpt>
      <trkpt lat="48.7273" lon="7.2271">
        <ele>292.2</ele>
        <time>2020-05-22T12:31:38Z</time>
      </trkpt>
      <trkpt lat="48.72728" lon="7.2271">
        <ele>292.4</ele>
        <time>2020-05-22T12:31:39Z</time>
      </trkpt>
      <trkpt lat="48.72725" lon="7.22709">
        <ele>292.6</ele>
        <time>2020-05-22T12:31:41Z</time>
      </trkpt>
      <trkpt lat="48.72721" lon="7.22709">
        <ele>293</ele>
        <time>2020-05-22T12:31:43Z</time>
      </trkpt>
      <trkpt lat="48.7272" lon="7.2271">
        <ele>293.1</ele>
        <time>2020-05-22T12:31:44Z</time>
      </trkpt>
      <trkpt lat="48.72714" lon="7.22713">
        <ele>293.6</ele>
        <time>2020-05-22T12:31:46Z</time>
      </trkpt>
      <trkpt lat="48.72711" lon="7.22715">
        <ele>293.9</ele>
        <time>2020-05-22T12:31:48Z</time>
      </trkpt>
      <trkpt lat="48.72709" lon="7.22716">
        <ele>294.1</ele>
        <time>2020-05-22T12:31:49Z</time>
      </trkpt>
      <trkpt lat="48.72705" lon="7.22721">
        <ele>294.5</ele>
        <time>2020-05-22T12:31:51Z</time>
      </trkpt>
      <trkpt lat="48.72701" lon="7.22725">
        <ele>294.8</ele>
        <time>2020-05-22T12:31:53Z</time>
      </trkpt>
      <trkpt lat="48.72698" lon="7.22729">
        <ele>295.2</ele>
        <time>2020-05-22T12:31:55Z</time>
      </trkpt>
      <trkpt lat="48.72694" lon="7.22734">
        <ele>295.7</ele>
        <time>2020-05-22T12:31:57Z</time>
      </trkpt>
      <trkpt lat="48.72692" lon="7.22737">
        <ele>295.9</ele>
        <time>2020-05-22T12:31:58Z</time>
      </trkpt>
      <trkpt lat="48.72689" lon="7.2274">
        <ele>296.2</ele>
        <time>2020-05-22T12:32:00Z</time>
      </trkpt>
      <trkpt lat="48.72685" lon="7.22743">
        <ele>296.7</ele>
        <time>2020-05-22T12:32:02Z</time>
      </trkpt>
      <trkpt lat="48.7268" lon="7.22747">
        <ele>297.2</ele>
        <time>2020-05-22T12:32:04Z</time>
      </trkpt>
      <trkpt lat="48.72677" lon="7.22749">
        <ele>297.5</ele>
        <time>2020-05-22T12:32:05Z</time>
      </trkpt>
      <trkpt lat="48.72676" lon="7.22749">
        <ele>297.7</ele>
        <time>2020-05-22T12:32:06Z</time>
      </trkpt>
      <trkpt lat="48.72672" lon="7.22749">
        <ele>298.4</ele>
        <time>2020-05-22T12:32:08Z</time>
      </trkpt>
      <trkpt lat="48.72672" lon="7.22748">
        <ele>298.5</ele>
        <time>2020-05-22T12:32:09Z</time>
      </trkpt>
      <trkpt lat="48.72671" lon="7.22747">
        <ele>298.6</ele>
        <time>2020-05-22T12:32:10Z</time>
      </trkpt>
      <trkpt lat="48.72671" lon="7.22747">
        <ele>298.6</ele>
        <time>2020-05-22T12:32:11Z</time>
      </trkpt>
      <trkpt lat="48.7267" lon="7.22745">
        <ele>298.8</ele>
        <time>2020-05-22T12:32:13Z</time>
      </trkpt>
      <trkpt lat="48.72669" lon="7.22744">
        <ele>298.9</ele>
        <time>2020-05-22T12:32:15Z</time>
      </trkpt>
      <trkpt lat="48.7267" lon="7.22743">
        <ele>299</ele>
        <time>2020-05-22T12:32:17Z</time>
      </trkpt>
      <trkpt lat="48.72669" lon="7.22742">
        <ele>299.2</ele>
        <time>2020-05-22T12:32:19Z</time>
      </trkpt>
      <trkpt lat="48.72668" lon="7.22741">
        <ele>299.3</ele>
        <time>2020-05-22T12:32:20Z</time>
      </trkpt>
      <trkpt lat="48.72668" lon="7.2274">
        <ele>299.5</ele>
        <time>2020-05-22T12:32:21Z</time>
      </trkpt>
      <trkpt lat="48.72666" lon="7.22738">
        <ele>299.7</ele>
        <time>2020-05-22T12:32:22Z</time>
      </trkpt>
      <trkpt lat="48.72664" lon="7.22735">
        <ele>300</ele>
        <time>2020-05-22T12:32:24Z</time>
      </trkpt>
      <trkpt lat="48.72662" lon="7.22733">
        <ele>300.4</ele>
        <time>2020-05-22T12:32:26Z</time>
      </trkpt>
      <trkpt lat="48.72659" lon="7.22732">
        <ele>300.7</ele>
        <time>2020-05-22T12:32:27Z</time>
      </trkpt>
      <trkpt lat="48.72655" lon="7.22732">
        <ele>301.2</ele>
        <time>2020-05-22T12:32:29Z</time>
      </trkpt>
      <trkpt lat="48.72653" lon="7.22731">
        <ele>301.4</ele>
        <time>2020-05-22T12:32:30Z</time>
      </trkpt>
      <trkpt lat="48.72652" lon="7.22732">
        <ele>301.5</ele>
        <time>2020-05-22T12:32:32Z</time>
      </trkpt>
      <trkpt lat="48.72651" lon="7.22732">
        <ele>301.6</ele>
        <time>2020-05-22T12:32:33Z</time>
      </trkpt>
      <trkpt lat="48.7265" lon="7.22733">
        <ele>301.7</ele>
        <time>2020-05-22T12:32:35Z</time>
      </trkpt>
      <trkpt lat="48.7265" lon="7.22734">
        <ele>301.8</ele>
        <time>2020-05-22T12:32:36Z</time>
      </trkpt>
      <trkpt lat="48.72649" lon="7.22734">
        <ele>301.9</ele>
        <time>2020-05-22T12:32:37Z</time>
      </trkpt>
      <trkpt lat="48.72647" lon="7.22732">
        <ele>302.1</ele>
        <time>2020-05-22T12:32:39Z</time>
      </trkpt>
      <trkpt lat="48.72646" lon="7.22731">
        <ele>302.3</ele>
        <time>2020-05-22T12:32:40Z</time>
      </trkpt>
      <trkpt lat="48.72644" lon="7.2273">
        <ele>302.5</ele>
        <time>2020-05-22T12:32:42Z</time>
      </trkpt>
      <trkpt lat="48.72643" lon="7.2273">
        <ele>302.6</ele>
        <time>2020-05-22T12:32:44Z</time>
      </trkpt>
      <trkpt lat="48.72642" lon="7.2273">
        <ele>302.7</ele>
        <time>2020-05-22T12:32:45Z</time>
      </trkpt>
      <trkpt lat="48.72641" lon="7.22729">
        <ele>302.8</ele>
        <time>2020-05-22T12:32:46Z</time>
      </trkpt>
      <trkpt lat="48.7264" lon="7.22727">
        <ele>303</ele>
        <time>2020-05-22T12:32:48Z</time>
      </trkpt>
      <trkpt lat="48.72639" lon="7.22727">
        <ele>303.1</ele>
        <time>2020-05-22T12:32:49Z</time>
      </trkpt>
      <trkpt lat="48.72638" lon="7.22726">
        <ele>303.1</ele>
        <time>2020-05-22T12:32:50Z</time>
      </trkpt>
      <trkpt lat="48.72636" lon="7.22724">
        <ele>303.5</ele>
        <time>2020-05-22T12:32:52Z</time>
      </trkpt>
      <trkpt lat="48.72635" lon="7.22724">
        <ele>303.6</ele>
        <time>2020-05-22T12:32:54Z</time>
      </trkpt>
      <trkpt lat="48.72635" lon="7.22725">
        <ele>303.7</ele>
        <time>2020-05-22T12:32:56Z</time>
      </trkpt>
      <trkpt lat="48.72634" lon="7.22726">
        <ele>303.8</ele>
        <time>2020-05-22T12:32:57Z</time>
      </trkpt>
      <trkpt lat="48.72632" lon="7.22726">
        <ele>304</ele>
        <time>2020-05-22T12:32:58Z</time>
      </trkpt>
      <trkpt lat="48.7263" lon="7.22727">
        <ele>304.2</ele>
        <time>2020-05-22T12:32:59Z</time>
      </trkpt>
      <trkpt lat="48.72628" lon="7.22724">
        <ele>304.6</ele>
        <time>2020-05-22T12:33:01Z</time>
      </trkpt>
      <trkpt lat="48.72626" lon="7.22719">
        <ele>305</ele>
        <time>2020-05-22T12:33:03Z</time>
      </trkpt>
      <trkpt lat="48.72625" lon="7.22717">
        <ele>305.2</ele>
        <time>2020-05-22T12:33:05Z</time>
      </trkpt>
      <trkpt lat="48.72622" lon="7.22713">
        <ele>305.6</ele>
        <time>2020-05-22T12:33:07Z</time>
      </trkpt>
      <trkpt lat="48.72621" lon="7.22712">
        <ele>305.8</ele>
        <time>2020-05-22T12:33:08Z</time>
      </trkpt>
      <trkpt lat="48.72617" lon="7.22709">
        <ele>306.3</ele>
        <time>2020-05-22T12:33:10Z</time>
      </trkpt>
      <trkpt lat="48.72616" lon="7.22708">
        <ele>306.5</ele>
        <time>2020-05-22T12:33:11Z</time>
      </trkpt>
      <trkpt lat="48.72613" lon="7.22705">
        <ele>307</ele>
        <time>2020-05-22T12:33:13Z</time>
      </trkpt>
      <trkpt lat="48.72609" lon="7.22702">
        <ele>307.5</ele>
        <time>2020-05-22T12:33:15Z</time>
      </trkpt>
      <trkpt lat="48.72607" lon="7.22701">
        <ele>307.7</ele>
        <time>2020-05-22T12:33:16Z</time>
      </trkpt>
      <trkpt lat="48.72604" lon="7.22697">
        <ele>308.3</ele>
        <time>2020-05-22T12:33:18Z</time>
      </trkpt>
      <trkpt lat="48.72602" lon="7.22694">
        <ele>308.6</ele>
        <time>2020-05-22T12:33:20Z</time>
      </trkpt>
      <trkpt lat="48.72599" lon="7.22691">
        <ele>309</ele>
        <time>2020-05-22T12:33:22Z</time>
      </trkpt>
      <trkpt lat="48.72596" lon="7.22689">
        <ele>309.4</ele>
        <time>2020-05-22T12:33:24Z</time>
      </trkpt>
      <trkpt lat="48.72593" lon="7.22687">
        <ele>309.8</ele>
        <time>2020-05-22T12:33:26Z</time>
      </trkpt>
      <trkpt lat="48.7259" lon="7.22684">
        <ele>310.1</ele>
        <time>2020-05-22T12:33:28Z</time>
      </trkpt>
      <trkpt lat="48.72589" lon="7.22683">
        <ele>310.3</ele>
        <time>2020-05-22T12:33:29Z</time>
      </trkpt>
      <trkpt lat="48.72587" lon="7.22679">
        <ele>310.7</ele>
        <time>2020-05-22T12:33:31Z</time>
      </trkpt>
      <trkpt lat="48.72585" lon="7.22677">
        <ele>310.9</ele>
        <time>2020-05-22T12:33:33Z</time>
      </trkpt>
      <trkpt lat="48.72583" lon="7.22674">
        <ele>311.2</ele>
        <time>2020-05-22T12:33:35Z</time>
      </trkpt>
      <trkpt lat="48.7258" lon="7.2267">
        <ele>311.5</ele>
        <time>2020-05-22T12:33:37Z</time>
      </trkpt>
      <trkpt lat="48.72576" lon="7.22666">
        <ele>311.9</ele>
        <time>2020-05-22T12:33:39Z</time>
      </trkpt>
      <trkpt lat="48.72574" lon="7.22663">
        <ele>312.2</ele>
        <time>2020-05-22T12:33:41Z</time>
      </trkpt>
      <trkpt lat="48.72571" lon="7.22659">
        <ele>312.5</ele>
        <time>2020-05-22T12:33:43Z</time>
      </trkpt>
      <trkpt lat="48.72567" lon="7.22653">
        <ele>313</ele>
        <time>2020-05-22T12:33:45Z</time>
      </trkpt>
      <trkpt lat="48.72564" lon="7.22649">
        <ele>313.3</ele>
        <time>2020-05-22T12:33:47Z</time>
      </trkpt>
      <trkpt lat="48.72562" lon="7.22647">
        <ele>313.5</ele>
        <time>2020-05-22T12:33:48Z</time>
      </trkpt>
      <trkpt lat="48.72558" lon="7.22646">
        <ele>313.7</ele>
        <time>2020-05-22T12:33:50Z</time>
      </trkpt>
      <trkpt lat="48.72553" lon="7.22643">
        <ele>314.1</ele>
        <time>2020-05-22T12:33:52Z</time>
      </trkpt>
      <trkpt lat="48.72548" lon="7.22639">
        <ele>314.4</ele>
        <time>2020-05-22T12:33:54Z</time>
      </trkpt>
      <trkpt lat="48.72546" lon="7.22638">
        <ele>314.5</ele>
        <time>2020-05-22T12:33:55Z</time>
      </trkpt>
      <trkpt lat="48.72545" lon="7.22636">
        <ele>314.6</ele>
        <time>2020-05-22T12:33:56Z</time>
      </trkpt>
      <trkpt lat="48.72539" lon="7.22631">
        <ele>314.9</ele>
        <time>2020-05-22T12:33:58Z</time>
      </trkpt>
      <trkpt lat="48.72537" lon="7.22629">
        <ele>315</ele>
        <time>2020-05-22T12:33:59Z</time>
      </trkpt>
      <trkpt lat="48.72532" lon="7.22623">
        <ele>315.4</ele>
        <time>2020-05-22T12:34:01Z</time>
      </trkpt>
      <trkpt lat="48.7253" lon="7.22621">
        <ele>315.5</ele>
        <time>2020-05-22T12:34:02Z</time>
      </trkpt>
      <trkpt lat="48.72526" lon="7.22614">
        <ele>315.8</ele>
        <time>2020-05-22T12:34:04Z</time>
      </trkpt>
      <trkpt lat="48.7252" lon="7.2261">
        <ele>316.2</ele>
        <time>2020-05-22T12:34:06Z</time>
      </trkpt>
      <trkpt lat="48.72517" lon="7.22608">
        <ele>316.3</ele>
        <time>2020-05-22T12:34:07Z</time>
      </trkpt>
      <trkpt lat="48.72513" lon="7.22603">
        <ele>316.5</ele>
        <time>2020-05-22T12:34:09Z</time>
      </trkpt>
      <trkpt lat="48.72511" lon="7.22599">
        <ele>316.7</ele>
        <time>2020-05-22T12:34:10Z</time>
      </trkpt>
      <trkpt lat="48.72509" lon="7.22596">
        <ele>316.8</ele>
        <time>2020-05-22T12:34:11Z</time>
      </trkpt>
      <trkpt lat="48.72505" lon="7.22588">
        <ele>317.1</ele>
        <time>2020-05-22T12:34:13Z</time>
      </trkpt>
      <trkpt lat="48.72502" lon="7.22585">
        <ele>317.2</ele>
        <time>2020-05-22T12:34:14Z</time>
      </trkpt>
      <trkpt lat="48.72498" lon="7.22581">
        <ele>317.4</ele>
        <time>2020-05-22T12:34:15Z</time>
      </trkpt>
      <trkpt lat="48.72494" lon="7.22578">
        <ele>317.7</ele>
        <time>2020-05-22T12:34:16Z</time>
      </trkpt>
      <trkpt lat="48.72486" lon="7.22572">
        <ele>318</ele>
        <time>2020-05-22T12:34:18Z</time>
      </trkpt>
      <trkpt lat="48.72478" lon="7.22569">
        <ele>318.3</ele>
        <time>2020-05-22T12:34:20Z</time>
      </trkpt>
      <trkpt lat="48.72469" lon="7.22567">
        <ele>318.4</ele>
        <time>2020-05-22T12:34:22Z</time>
      </trkpt>
      <trkpt lat="48.72464" lon="7.22567">
        <ele>318.4</ele>
        <time>2020-05-22T12:34:23Z</time>
      </trkpt>
      <trkpt lat="48.72459" lon="7.22569">
        <ele>318.3</ele>
        <time>2020-05-22T12:34:24Z</time>
      </trkpt>
      <trkpt lat="48.72454" lon="7.22572">
        <ele>316.7</ele>
        <time>2020-05-22T12:34:25Z</time>
      </trkpt>
      <trkpt lat="48.72447" lon="7.22581">
        <ele>313.7</ele>
        <time>2020-05-22T12:34:27Z</time>
      </trkpt>
      <trkpt lat="48.72445" lon="7.22584">
        <ele>312.8</ele>
        <time>2020-05-22T12:34:28Z</time>
      </trkpt>
      <trkpt lat="48.72439" lon="7.22589">
        <ele>311.1</ele>
        <time>2020-05-22T12:34:30Z</time>
      </trkpt>
      <trkpt lat="48.72436" lon="7.22592">
        <ele>310.6</ele>
        <time>2020-05-22T12:34:31Z</time>
      </trkpt>
      <trkpt lat="48.72432" lon="7.22599">
        <ele>309.6</ele>
        <time>2020-05-22T12:34:33Z</time>
      </trkpt>
      <trkpt lat="48.72428" lon="7.22602">
        <ele>308.9</ele>
        <time>2020-05-22T12:34:34Z</time>
      </trkpt>
      <trkpt lat="48.72422" lon="7.22611">
        <ele>307.7</ele>
        <time>2020-05-22T12:34:36Z</time>
      </trkpt>
      <trkpt lat="48.72413" lon="7.22621">
        <ele>306.1</ele>
        <time>2020-05-22T12:34:38Z</time>
      </trkpt>
      <trkpt lat="48.72402" lon="7.22633">
        <ele>304.2</ele>
        <time>2020-05-22T12:34:40Z</time>
      </trkpt>
      <trkpt lat="48.72391" lon="7.22648">
        <ele>301.9</ele>
        <time>2020-05-22T12:34:42Z</time>
      </trkpt>
      <trkpt lat="48.72385" lon="7.22655">
        <ele>300.7</ele>
        <time>2020-05-22T12:34:43Z</time>
      </trkpt>
      <trkpt lat="48.72378" lon="7.22659">
        <ele>299.6</ele>
        <time>2020-05-22T12:34:44Z</time>
      </trkpt>
      <trkpt lat="48.72361" lon="7.22668">
        <ele>297.1</ele>
        <time>2020-05-22T12:34:46Z</time>
      </trkpt>
      <trkpt lat="48.72348" lon="7.22672">
        <ele>295.3</ele>
        <time>2020-05-22T12:34:48Z</time>
      </trkpt>
      <trkpt lat="48.72341" lon="7.22671">
        <ele>294.4</ele>
        <time>2020-05-22T12:34:49Z</time>
      </trkpt>
      <trkpt lat="48.72328" lon="7.22671">
        <ele>292.8</ele>
        <time>2020-05-22T12:34:51Z</time>
      </trkpt>
      <trkpt lat="48.72321" lon="7.22668">
        <ele>292.8</ele>
        <time>2020-05-22T12:34:53Z</time>
      </trkpt>
      <trkpt lat="48.72322" lon="7.22668">
        <ele>292.8</ele>
        <time>2020-05-22T12:34:55Z</time>
      </trkpt>
      <trkpt lat="48.72323" lon="7.22667">
        <ele>292.8</ele>
        <time>2020-05-22T12:34:56Z</time>
      </trkpt>
      <trkpt lat="48.72323" lon="7.22666">
        <ele>292.8</ele>
        <time>2020-05-22T12:34:57Z</time>
      </trkpt>
      <trkpt lat="48.72323" lon="7.22664">
        <ele>292.8</ele>
        <time>2020-05-22T12:35:01Z</time>
      </trkpt>
      <trkpt lat="48.72323" lon="7.22663">
        <ele>292.8</ele>
        <time>2020-05-22T12:35:03Z</time>
      </trkpt>
      <trkpt lat="48.72323" lon="7.22664">
        <ele>292.8</ele>
        <time>2020-05-22T12:35:05Z</time>
      </trkpt>
      <trkpt lat="48.72323" lon="7.22664">
        <ele>292.8</ele>
        <time>2020-05-22T12:35:06Z</time>
      </trkpt>
      <trkpt lat="48.72323" lon="7.22664">
        <ele>292.8</ele>
        <time>2020-05-22T12:35:07Z</time>
      </trkpt>
      <trkpt lat="48.72326" lon="7.22665">
        <ele>292.8</ele>
        <time>2020-05-22T12:35:15Z</time>
      </trkpt>
      <trkpt lat="48.72326" lon="7.22665">
        <ele>292.8</ele>
        <time>2020-05-22T12:35:17Z</time>
      </trkpt>
      <trkpt lat="48.72326" lon="7.22665">
        <ele>292.8</ele>
        <time>2020-05-22T12:35:18Z</time>
      </trkpt>
      <trkpt lat="48.72329" lon="7.22666">
        <ele>292.8</ele>
        <time>2020-05-22T12:35:20Z</time>
      </trkpt>
      <trkpt lat="48.72332" lon="7.22669">
        <ele>292.8</ele>
        <time>2020-05-22T12:35:22Z</time>
      </trkpt>
      <trkpt lat="48.72334" lon="7.2267">
        <ele>292.9</ele>
        <time>2020-05-22T12:35:23Z</time>
      </trkpt>
      <trkpt lat="48.72338" lon="7.22676">
        <ele>292.9</ele>
        <time>2020-05-22T12:35:25Z</time>
      </trkpt>
      <trkpt lat="48.72343" lon="7.22682">
        <ele>292.9</ele>
        <time>2020-05-22T12:35:27Z</time>
      </trkpt>
      <trkpt lat="48.72349" lon="7.22682">
        <ele>292.9</ele>
        <time>2020-05-22T12:35:29Z</time>
      </trkpt>
      <trkpt lat="48.72349" lon="7.22674">
        <ele>293</ele>
        <time>2020-05-22T12:35:31Z</time>
      </trkpt>
      <trkpt lat="48.72343" lon="7.22669">
        <ele>293</ele>
        <time>2020-05-22T12:35:33Z</time>
      </trkpt>
      <trkpt lat="48.72341" lon="7.22668">
        <ele>293</ele>
        <time>2020-05-22T12:35:34Z</time>
      </trkpt>
      <trkpt lat="48.72334" lon="7.22662">
        <ele>293</ele>
        <time>2020-05-22T12:35:36Z</time>
      </trkpt>
      <trkpt lat="48.72331" lon="7.22657">
        <ele>297.3</ele>
        <time>2020-05-22T12:35:37Z</time>
      </trkpt>
      <trkpt lat="48.72329" lon="7.22653">
        <ele>301.6</ele>
        <time>2020-05-22T12:35:38Z</time>
      </trkpt>
      <trkpt lat="48.72325" lon="7.22646">
        <ele>306.7</ele>
        <time>2020-05-22T12:35:40Z</time>
      </trkpt>
      <trkpt lat="48.72323" lon="7.2264">
        <ele>311</ele>
        <time>2020-05-22T12:35:42Z</time>
      </trkpt>
      <trkpt lat="48.72321" lon="7.22636">
        <ele>315.3</ele>
        <time>2020-05-22T12:35:43Z</time>
      </trkpt>
      <trkpt lat="48.72321" lon="7.22635">
        <ele>315.2</ele>
        <time>2020-05-22T12:35:44Z</time>
      </trkpt>
      <trkpt lat="48.7232" lon="7.22631">
        <ele>315.2</ele>
        <time>2020-05-22T12:35:46Z</time>
      </trkpt>
      <trkpt lat="48.72319" lon="7.22629">
        <ele>315.2</ele>
        <time>2020-05-22T12:35:47Z</time>
      </trkpt>
      <trkpt lat="48.72318" lon="7.22628">
        <ele>315.1</ele>
        <time>2020-05-22T12:35:48Z</time>
      </trkpt>
      <trkpt lat="48.72315" lon="7.22624">
        <ele>315.1</ele>
        <time>2020-05-22T12:35:50Z</time>
      </trkpt>
      <trkpt lat="48.72313" lon="7.22621">
        <ele>315</ele>
        <time>2020-05-22T12:35:52Z</time>
      </trkpt>
      <trkpt lat="48.72311" lon="7.22616">
        <ele>315</ele>
        <time>2020-05-22T12:35:54Z</time>
      </trkpt>
      <trkpt lat="48.72309" lon="7.22612">
        <ele>314.9</ele>
        <time>2020-05-22T12:35:56Z</time>
      </trkpt>
      <trkpt lat="48.72307" lon="7.22609">
        <ele>314.9</ele>
        <time>2020-05-22T12:35:58Z</time>
      </trkpt>
      <trkpt lat="48.72303" lon="7.22604">
        <ele>314.8</ele>
        <time>2020-05-22T12:36:00Z</time>
      </trkpt>
      <trkpt lat="48.72301" lon="7.22602">
        <ele>314.8</ele>
        <time>2020-05-22T12:36:01Z</time>
      </trkpt>
      <trkpt lat="48.72298" lon="7.226">
        <ele>314.7</ele>
        <time>2020-05-22T12:36:03Z</time>
      </trkpt>
      <trkpt lat="48.72296" lon="7.22595">
        <ele>314.7</ele>
        <time>2020-05-22T12:36:05Z</time>
      </trkpt>
      <trkpt lat="48.72294" lon="7.22589">
        <ele>314.7</ele>
        <time>2020-05-22T12:36:07Z</time>
      </trkpt>
      <trkpt lat="48.72291" lon="7.22585">
        <ele>314.6</ele>
        <time>2020-05-22T12:36:09Z</time>
      </trkpt>
      <trkpt lat="48.72288" lon="7.22579">
        <ele>314.6</ele>
        <time>2020-05-22T12:36:11Z</time>
      </trkpt>
      <trkpt lat="48.72285" lon="7.22575">
        <ele>314.7</ele>
        <time>2020-05-22T12:36:13Z</time>
      </trkpt>
      <trkpt lat="48.72281" lon="7.2257">
        <ele>314.7</ele>
        <time>2020-05-22T12:36:15Z</time>
      </trkpt>
      <trkpt lat="48.7228" lon="7.22569">
        <ele>314.7</ele>
        <time>2020-05-22T12:36:16Z</time>
      </trkpt>
      <trkpt lat="48.72276" lon="7.22565">
        <ele>314.8</ele>
        <time>2020-05-22T12:36:18Z</time>
      </trkpt>
      <trkpt lat="48.72273" lon="7.22562">
        <ele>314.8</ele>
        <time>2020-05-22T12:36:20Z</time>
      </trkpt>
      <trkpt lat="48.7227" lon="7.22559">
        <ele>314.9</ele>
        <time>2020-05-22T12:36:22Z</time>
      </trkpt>
      <trkpt lat="48.72266" lon="7.22555">
        <ele>315.1</ele>
        <time>2020-05-22T12:36:24Z</time>
      </trkpt>
      <trkpt lat="48.72263" lon="7.22551">
        <ele>315.2</ele>
        <time>2020-05-22T12:36:26Z</time>
      </trkpt>
      <trkpt lat="48.72261" lon="7.22547">
        <ele>315.3</ele>
        <time>2020-05-22T12:36:28Z</time>
      </trkpt>
      <trkpt lat="48.7226" lon="7.22545">
        <ele>315.4</ele>
        <time>2020-05-22T12:36:29Z</time>
      </trkpt>
      <trkpt lat="48.72259" lon="7.22543">
        <ele>315.5</ele>
        <time>2020-05-22T12:36:31Z</time>
      </trkpt>
      <trkpt lat="48.72256" lon="7.22538">
        <ele>315.7</ele>
        <time>2020-05-22T12:36:33Z</time>
      </trkpt>
      <trkpt lat="48.72254" lon="7.22535">
        <ele>315.8</ele>
        <time>2020-05-22T12:36:35Z</time>
      </trkpt>
      <trkpt lat="48.72253" lon="7.22533">
        <ele>315.9</ele>
        <time>2020-05-22T12:36:36Z</time>
      </trkpt>
      <trkpt lat="48.7225" lon="7.2253">
        <ele>316.2</ele>
        <time>2020-05-22T12:36:38Z</time>
      </trkpt>
      <trkpt lat="48.72248" lon="7.22526">
        <ele>316.4</ele>
        <time>2020-05-22T12:36:40Z</time>
      </trkpt>
      <trkpt lat="48.72245" lon="7.22521">
        <ele>316.8</ele>
        <time>2020-05-22T12:36:42Z</time>
      </trkpt>
      <trkpt lat="48.7224" lon="7.22518">
        <ele>317.1</ele>
        <time>2020-05-22T12:36:44Z</time>
      </trkpt>
      <trkpt lat="48.72237" lon="7.22516">
        <ele>317.3</ele>
        <time>2020-05-22T12:36:45Z</time>
      </trkpt>
      <trkpt lat="48.72236" lon="7.22516">
        <ele>317.4</ele>
        <time>2020-05-22T12:36:46Z</time>
      </trkpt>
      <trkpt lat="48.72234" lon="7.22513">
        <ele>317.6</ele>
        <time>2020-05-22T12:36:47Z</time>
      </trkpt>
      <trkpt lat="48.72231" lon="7.22505">
        <ele>318.2</ele>
        <time>2020-05-22T12:36:49Z</time>
      </trkpt>
      <trkpt lat="48.72229" lon="7.22495">
        <ele>318.7</ele>
        <time>2020-05-22T12:36:51Z</time>
      </trkpt>
      <trkpt lat="48.72228" lon="7.22488">
        <ele>319.1</ele>
        <time>2020-05-22T12:36:53Z</time>
      </trkpt>
      <trkpt lat="48.72226" lon="7.22484">
        <ele>319.3</ele>
        <time>2020-05-22T12:36:54Z</time>
      </trkpt>
      <trkpt lat="48.72225" lon="7.22483">
        <ele>319.4</ele>
        <time>2020-05-22T12:36:55Z</time>
      </trkpt>
      <trkpt lat="48.72222" lon="7.22479">
        <ele>319.6</ele>
        <time>2020-05-22T12:36:56Z</time>
      </trkpt>
      <trkpt lat="48.72217" lon="7.22474">
        <ele>320</ele>
        <time>2020-05-22T12:36:58Z</time>
      </trkpt>
      <trkpt lat="48.72215" lon="7.22471">
        <ele>320.2</ele>
        <time>2020-05-22T12:36:59Z</time>
      </trkpt>
      <trkpt lat="48.7221" lon="7.22466">
        <ele>320.6</ele>
        <time>2020-05-22T12:37:01Z</time>
      </trkpt>
      <trkpt lat="48.72206" lon="7.2246">
        <ele>320.9</ele>
        <time>2020-05-22T12:37:03Z</time>
      </trkpt>
      <trkpt lat="48.72204" lon="7.22457">
        <ele>321.1</ele>
        <time>2020-05-22T12:37:04Z</time>
      </trkpt>
      <trkpt lat="48.72198" lon="7.22452">
        <ele>321.6</ele>
        <time>2020-05-22T12:37:06Z</time>
      </trkpt>
      <trkpt lat="48.72193" lon="7.22446">
        <ele>322</ele>
        <time>2020-05-22T12:37:08Z</time>
      </trkpt>
      <trkpt lat="48.7219" lon="7.22439">
        <ele>322.4</ele>
        <time>2020-05-22T12:37:10Z</time>
      </trkpt>
      <trkpt lat="48.7219" lon="7.22435">
        <ele>322.6</ele>
        <time>2020-05-22T12:37:11Z</time>
      </trkpt>
      <trkpt lat="48.72191" lon="7.22429">
        <ele>322.8</ele>
        <time>2020-05-22T12:37:13Z</time>
      </trkpt>
      <trkpt lat="48.72192" lon="7.22426">
        <ele>323</ele>
        <time>2020-05-22T12:37:14Z</time>
      </trkpt>
      <trkpt lat="48.72192" lon="7.22424">
        <ele>323</ele>
        <time>2020-05-22T12:37:15Z</time>
      </trkpt>
      <trkpt lat="48.72192" lon="7.22423">
        <ele>323.1</ele>
        <time>2020-05-22T12:37:16Z</time>
      </trkpt>
      <trkpt lat="48.72193" lon="7.2242">
        <ele>323.2</ele>
        <time>2020-05-22T12:37:18Z</time>
      </trkpt>
      <trkpt lat="48.72192" lon="7.22418">
        <ele>323.3</ele>
        <time>2020-05-22T12:37:20Z</time>
      </trkpt>
      <trkpt lat="48.72191" lon="7.22416">
        <ele>323.4</ele>
        <time>2020-05-22T12:37:22Z</time>
      </trkpt>
      <trkpt lat="48.7219" lon="7.22414">
        <ele>323.5</ele>
        <time>2020-05-22T12:37:23Z</time>
      </trkpt>
      <trkpt lat="48.72187" lon="7.22407">
        <ele>323.9</ele>
        <time>2020-05-22T12:37:25Z</time>
      </trkpt>
      <trkpt lat="48.72187" lon="7.22403">
        <ele>324</ele>
        <time>2020-05-22T12:37:27Z</time>
      </trkpt>
      <trkpt lat="48.72186" lon="7.22401">
        <ele>324.1</ele>
        <time>2020-05-22T12:37:29Z</time>
      </trkpt>
      <trkpt lat="48.72186" lon="7.22399">
        <ele>324.2</ele>
        <time>2020-05-22T12:37:30Z</time>
      </trkpt>
      <trkpt lat="48.72185" lon="7.22395">
        <ele>324.4</ele>
        <time>2020-05-22T12:37:32Z</time>
      </trkpt>
      <trkpt lat="48.72185" lon="7.22392">
        <ele>324.5</ele>
        <time>2020-05-22T12:37:34Z</time>
      </trkpt>
      <trkpt lat="48.72184" lon="7.22389">
        <ele>324.7</ele>
        <time>2020-05-22T12:37:36Z</time>
      </trkpt>
      <trkpt lat="48.72184" lon="7.22388">
        <ele>324.7</ele>
        <time>2020-05-22T12:37:37Z</time>
      </trkpt>
      <trkpt lat="48.72182" lon="7.22385">
        <ele>324.9</ele>
        <time>2020-05-22T12:37:39Z</time>
      </trkpt>
      <trkpt lat="48.72182" lon="7.22382">
        <ele>325</ele>
        <time>2020-05-22T12:37:40Z</time>
      </trkpt>
      <trkpt lat="48.7218" lon="7.22377">
        <ele>325.3</ele>
        <time>2020-05-22T12:37:42Z</time>
      </trkpt>
      <trkpt lat="48.7218" lon="7.22373">
        <ele>325.5</ele>
        <time>2020-05-22T12:37:44Z</time>
      </trkpt>
      <trkpt lat="48.72179" lon="7.2237">
        <ele>325.7</ele>
        <time>2020-05-22T12:37:46Z</time>
      </trkpt>
      <trkpt lat="48.72179" lon="7.22366">
        <ele>325.9</ele>
        <time>2020-05-22T12:37:48Z</time>
      </trkpt>
      <trkpt lat="48.72179" lon="7.22364">
        <ele>325.9</ele>
        <time>2020-05-22T12:37:49Z</time>
      </trkpt>
      <trkpt lat="48.72178" lon="7.22363">
        <ele>326.1</ele>
        <time>2020-05-22T12:37:50Z</time>
      </trkpt>
      <trkpt lat="48.72178" lon="7.22362">
        <ele>326.1</ele>
        <time>2020-05-22T12:37:52Z</time>
      </trkpt>
      <trkpt lat="48.72178" lon="7.2236">
        <ele>326.2</ele>
        <time>2020-05-22T12:37:53Z</time>
      </trkpt>
      <trkpt lat="48.72178" lon="7.22358">
        <ele>326.4</ele>
        <time>2020-05-22T12:37:55Z</time>
      </trkpt>
      <trkpt lat="48.72179" lon="7.22355">
        <ele>326.5</ele>
        <time>2020-05-22T12:37:57Z</time>
      </trkpt>
      <trkpt lat="48.72179" lon="7.22354">
        <ele>326.6</ele>
        <time>2020-05-22T12:37:58Z</time>
      </trkpt>
      <trkpt lat="48.72178" lon="7.22352">
        <ele>326.7</ele>
        <time>2020-05-22T12:38:00Z</time>
      </trkpt>
      <trkpt lat="48.72178" lon="7.22352">
        <ele>326.8</ele>
        <time>2020-05-22T12:38:01Z</time>
      </trkpt>
      <trkpt lat="48.72178" lon="7.22351">
        <ele>326.8</ele>
        <time>2020-05-22T12:38:02Z</time>
      </trkpt>
      <trkpt lat="48.72177" lon="7.2235">
        <ele>326.9</ele>
        <time>2020-05-22T12:38:03Z</time>
      </trkpt>
      <trkpt lat="48.72177" lon="7.22349">
        <ele>326.9</ele>
        <time>2020-05-22T12:38:04Z</time>
      </trkpt>
      <trkpt lat="48.72176" lon="7.22347">
        <ele>327.1</ele>
        <time>2020-05-22T12:38:06Z</time>
      </trkpt>
      <trkpt lat="48.72176" lon="7.22345">
        <ele>327.2</ele>
        <time>2020-05-22T12:38:07Z</time>
      </trkpt>
      <trkpt lat="48.72175" lon="7.22342">
        <ele>327.4</ele>
        <time>2020-05-22T12:38:09Z</time>
      </trkpt>
      <trkpt lat="48.72175" lon="7.22341">
        <ele>327.5</ele>
        <time>2020-05-22T12:38:10Z</time>
      </trkpt>
      <trkpt lat="48.72175" lon="7.22339">
        <ele>327.6</ele>
        <time>2020-05-22T12:38:11Z</time>
      </trkpt>
      <trkpt lat="48.72175" lon="7.22337">
        <ele>327.7</ele>
        <time>2020-05-22T12:38:12Z</time>
      </trkpt>
      <trkpt lat="48.72175" lon="7.22336">
        <ele>327.8</ele>
        <time>2020-05-22T12:38:13Z</time>
      </trkpt>
      <trkpt lat="48.72175" lon="7.22333">
        <ele>328</ele>
        <time>2020-05-22T12:38:15Z</time>
      </trkpt>
      <trkpt lat="48.72176" lon="7.22331">
        <ele>328.1</ele>
        <time>2020-05-22T12:38:17Z</time>
      </trkpt>
      <trkpt lat="48.72176" lon="7.2233">
        <ele>328.2</ele>
        <time>2020-05-22T12:38:19Z</time>
      </trkpt>
      <trkpt lat="48.72176" lon="7.22327">
        <ele>328.4</ele>
        <time>2020-05-22T12:38:21Z</time>
      </trkpt>
      <trkpt lat="48.72176" lon="7.22326">
        <ele>328.4</ele>
        <time>2020-05-22T12:38:22Z</time>
      </trkpt>
      <trkpt lat="48.72177" lon="7.22324">
        <ele>328.6</ele>
        <time>2020-05-22T12:38:24Z</time>
      </trkpt>
      <trkpt lat="48.72177" lon="7.22322">
        <ele>328.7</ele>
        <time>2020-05-22T12:38:26Z</time>
      </trkpt>
      <trkpt lat="48.72177" lon="7.22322">
        <ele>328.8</ele>
        <time>2020-05-22T12:38:27Z</time>
      </trkpt>
      <trkpt lat="48.72177" lon="7.22321">
        <ele>328.8</ele>
        <time>2020-05-22T12:38:28Z</time>
      </trkpt>
      <trkpt lat="48.72177" lon="7.2232">
        <ele>328.9</ele>
        <time>2020-05-22T12:38:30Z</time>
      </trkpt>
      <trkpt lat="48.72177" lon="7.22319">
        <ele>329</ele>
        <time>2020-05-22T12:38:32Z</time>
      </trkpt>
      <trkpt lat="48.72176" lon="7.22317">
        <ele>329.1</ele>
        <time>2020-05-22T12:38:34Z</time>
      </trkpt>
      <trkpt lat="48.72176" lon="7.22317">
        <ele>329.1</ele>
        <time>2020-05-22T12:38:35Z</time>
      </trkpt>
      <trkpt lat="48.72176" lon="7.22317">
        <ele>329.1</ele>
        <time>2020-05-22T12:38:36Z</time>
      </trkpt>
      <trkpt lat="48.72176" lon="7.22316">
        <ele>329.2</ele>
        <time>2020-05-22T12:38:38Z</time>
      </trkpt>
      <trkpt lat="48.72177" lon="7.22315">
        <ele>329.3</ele>
        <time>2020-05-22T12:38:40Z</time>
      </trkpt>
      <trkpt lat="48.72177" lon="7.22315">
        <ele>329.3</ele>
        <time>2020-05-22T12:38:41Z</time>
      </trkpt>
      <trkpt lat="48.72177" lon="7.22315">
        <ele>329.3</ele>
        <time>2020-05-22T12:38:42Z</time>
      </trkpt>
      <trkpt lat="48.72177" lon="7.22315">
        <ele>329.3</ele>
        <time>2020-05-22T12:38:43Z</time>
      </trkpt>
      <trkpt lat="48.72176" lon="7.22314">
        <ele>329.4</ele>
        <time>2020-05-22T12:38:45Z</time>
      </trkpt>
      <trkpt lat="48.72176" lon="7.22314">
        <ele>329.4</ele>
        <time>2020-05-22T12:38:46Z</time>
      </trkpt>
      <trkpt lat="48.72176" lon="7.22313">
        <ele>329.5</ele>
        <time>2020-05-22T12:38:48Z</time>
      </trkpt>
      <trkpt lat="48.72177" lon="7.22313">
        <ele>329.5</ele>
        <time>2020-05-22T12:38:50Z</time>
      </trkpt>
      <trkpt lat="48.72176" lon="7.22312">
        <ele>329.5</ele>
        <time>2020-05-22T12:38:51Z</time>
      </trkpt>
      <trkpt lat="48.72176" lon="7.2231">
        <ele>329.7</ele>
        <time>2020-05-22T12:38:53Z</time>
      </trkpt>
      <trkpt lat="48.72176" lon="7.22308">
        <ele>329.8</ele>
        <time>2020-05-22T12:38:54Z</time>
      </trkpt>
      <trkpt lat="48.72176" lon="7.22305">
        <ele>330</ele>
        <time>2020-05-22T12:38:56Z</time>
      </trkpt>
      <trkpt lat="48.72176" lon="7.22302">
        <ele>330.2</ele>
        <time>2020-05-22T12:38:58Z</time>
      </trkpt>
      <trkpt lat="48.72176" lon="7.22301">
        <ele>330.3</ele>
        <time>2020-05-22T12:38:59Z</time>
      </trkpt>
      <trkpt lat="48.72176" lon="7.223">
        <ele>330.3</ele>
        <time>2020-05-22T12:39:00Z</time>
      </trkpt>
      <trkpt lat="48.72177" lon="7.22297">
        <ele>330.5</ele>
        <time>2020-05-22T12:39:02Z</time>
      </trkpt>
      <trkpt lat="48.72176" lon="7.22292">
        <ele>330.8</ele>
        <time>2020-05-22T12:39:04Z</time>
      </trkpt>
      <trkpt lat="48.72176" lon="7.22288">
        <ele>331</ele>
        <time>2020-05-22T12:39:06Z</time>
      </trkpt>
      <trkpt lat="48.72177" lon="7.22282">
        <ele>331.3</ele>
        <time>2020-05-22T12:39:08Z</time>
      </trkpt>
      <trkpt lat="48.72177" lon="7.22279">
        <ele>331.5</ele>
        <time>2020-05-22T12:39:09Z</time>
      </trkpt>
      <trkpt lat="48.72177" lon="7.22274">
        <ele>331.7</ele>
        <time>2020-05-22T12:39:11Z</time>
      </trkpt>
      <trkpt lat="48.72177" lon="7.22269">
        <ele>332</ele>
        <time>2020-05-22T12:39:13Z</time>
      </trkpt>
      <trkpt lat="48.72177" lon="7.22264">
        <ele>332.3</ele>
        <time>2020-05-22T12:39:14Z</time>
      </trkpt>
      <trkpt lat="48.72177" lon="7.22263">
        <ele>332.3</ele>
        <time>2020-05-22T12:39:15Z</time>
      </trkpt>
      <trkpt lat="48.72176" lon="7.22257">
        <ele>332.6</ele>
        <time>2020-05-22T12:39:17Z</time>
      </trkpt>
      <trkpt lat="48.72175" lon="7.22255">
        <ele>332.7</ele>
        <time>2020-05-22T12:39:18Z</time>
      </trkpt>
      <trkpt lat="48.72174" lon="7.22253">
        <ele>332.8</ele>
        <time>2020-05-22T12:39:19Z</time>
      </trkpt>
      <trkpt lat="48.72173" lon="7.22246">
        <ele>333</ele>
        <time>2020-05-22T12:39:21Z</time>
      </trkpt>
      <trkpt lat="48.72174" lon="7.22241">
        <ele>333.2</ele>
        <time>2020-05-22T12:39:23Z</time>
      </trkpt>
      <trkpt lat="48.72174" lon="7.22238">
        <ele>333.3</ele>
        <time>2020-05-22T12:39:24Z</time>
      </trkpt>
      <trkpt lat="48.72174" lon="7.22232">
        <ele>333.5</ele>
        <time>2020-05-22T12:39:26Z</time>
      </trkpt>
      <trkpt lat="48.72173" lon="7.22227">
        <ele>333.7</ele>
        <time>2020-05-22T12:39:28Z</time>
      </trkpt>
      <trkpt lat="48.72173" lon="7.22224">
        <ele>333.8</ele>
        <time>2020-05-22T12:39:30Z</time>
      </trkpt>
      <trkpt lat="48.72174" lon="7.22222">
        <ele>333.9</ele>
        <time>2020-05-22T12:39:31Z</time>
      </trkpt>
      <trkpt lat="48.72175" lon="7.22218">
        <ele>334</ele>
        <time>2020-05-22T12:39:33Z</time>
      </trkpt>
      <trkpt lat="48.72175" lon="7.22215">
        <ele>334.1</ele>
        <time>2020-05-22T12:39:35Z</time>
      </trkpt>
      <trkpt lat="48.72176" lon="7.22211">
        <ele>334.3</ele>
        <time>2020-05-22T12:39:37Z</time>
      </trkpt>
      <trkpt lat="48.72176" lon="7.22209">
        <ele>334.4</ele>
        <time>2020-05-22T12:39:38Z</time>
      </trkpt>
      <trkpt lat="48.72176" lon="7.22206">
        <ele>334.5</ele>
        <time>2020-05-22T12:39:39Z</time>
      </trkpt>
      <trkpt lat="48.72176" lon="7.22202">
        <ele>334.6</ele>
        <time>2020-05-22T12:39:41Z</time>
      </trkpt>
      <trkpt lat="48.72176" lon="7.22201">
        <ele>334.7</ele>
        <time>2020-05-22T12:39:42Z</time>
      </trkpt>
      <trkpt lat="48.72176" lon="7.22199">
        <ele>334.8</ele>
        <time>2020-05-22T12:39:43Z</time>
      </trkpt>
      <trkpt lat="48.72176" lon="7.22195">
        <ele>335</ele>
        <time>2020-05-22T12:39:45Z</time>
      </trkpt>
      <trkpt lat="48.72176" lon="7.22191">
        <ele>335.2</ele>
        <time>2020-05-22T12:39:47Z</time>
      </trkpt>
      <trkpt lat="48.72176" lon="7.22188">
        <ele>335.3</ele>
        <time>2020-05-22T12:39:48Z</time>
      </trkpt>
      <trkpt lat="48.72177" lon="7.22185">
        <ele>335.4</ele>
        <time>2020-05-22T12:39:49Z</time>
      </trkpt>
      <trkpt lat="48.72177" lon="7.22183">
        <ele>335.6</ele>
        <time>2020-05-22T12:39:50Z</time>
      </trkpt>
      <trkpt lat="48.72177" lon="7.22179">
        <ele>335.8</ele>
        <time>2020-05-22T12:39:52Z</time>
      </trkpt>
      <trkpt lat="48.72177" lon="7.22176">
        <ele>336</ele>
        <time>2020-05-22T12:39:54Z</time>
      </trkpt>
      <trkpt lat="48.7218" lon="7.22171">
        <ele>336.2</ele>
        <time>2020-05-22T12:39:56Z</time>
      </trkpt>
      <trkpt lat="48.7218" lon="7.2217">
        <ele>336.4</ele>
        <time>2020-05-22T12:39:57Z</time>
      </trkpt>
      <trkpt lat="48.72182" lon="7.22166">
        <ele>336.5</ele>
        <time>2020-05-22T12:39:59Z</time>
      </trkpt>
      <trkpt lat="48.72182" lon="7.22162">
        <ele>336.8</ele>
        <time>2020-05-22T12:40:01Z</time>
      </trkpt>
      <trkpt lat="48.72183" lon="7.2216">
        <ele>336.9</ele>
        <time>2020-05-22T12:40:02Z</time>
      </trkpt>
      <trkpt lat="48.72184" lon="7.22155">
        <ele>337.1</ele>
        <time>2020-05-22T12:40:04Z</time>
      </trkpt>
      <trkpt lat="48.72185" lon="7.2215">
        <ele>337.4</ele>
        <time>2020-05-22T12:40:06Z</time>
      </trkpt>
      <trkpt lat="48.72186" lon="7.22147">
        <ele>337.5</ele>
        <time>2020-05-22T12:40:07Z</time>
      </trkpt>
      <trkpt lat="48.72188" lon="7.22143">
        <ele>337.7</ele>
        <time>2020-05-22T12:40:09Z</time>
      </trkpt>
      <trkpt lat="48.7219" lon="7.22136">
        <ele>338</ele>
        <time>2020-05-22T12:40:11Z</time>
      </trkpt>
      <trkpt lat="48.7219" lon="7.22134">
        <ele>338</ele>
        <time>2020-05-22T12:40:13Z</time>
      </trkpt>
      <trkpt lat="48.7219" lon="7.22132">
        <ele>338.1</ele>
        <time>2020-05-22T12:40:14Z</time>
      </trkpt>
      <trkpt lat="48.72192" lon="7.22127">
        <ele>338.3</ele>
        <time>2020-05-22T12:40:16Z</time>
      </trkpt>
      <trkpt lat="48.72192" lon="7.22126">
        <ele>338.3</ele>
        <time>2020-05-22T12:40:17Z</time>
      </trkpt>
      <trkpt lat="48.72193" lon="7.22124">
        <ele>338.4</ele>
        <time>2020-05-22T12:40:18Z</time>
      </trkpt>
      <trkpt lat="48.72195" lon="7.2212">
        <ele>338.5</ele>
        <time>2020-05-22T12:40:20Z</time>
      </trkpt>
      <trkpt lat="48.72196" lon="7.22116">
        <ele>338.6</ele>
        <time>2020-05-22T12:40:22Z</time>
      </trkpt>
      <trkpt lat="48.72197" lon="7.22112">
        <ele>338.8</ele>
        <time>2020-05-22T12:40:24Z</time>
      </trkpt>
      <trkpt lat="48.72198" lon="7.22108">
        <ele>338.9</ele>
        <time>2020-05-22T12:40:26Z</time>
      </trkpt>
      <trkpt lat="48.72198" lon="7.22103">
        <ele>339</ele>
        <time>2020-05-22T12:40:28Z</time>
      </trkpt>
      <trkpt lat="48.72198" lon="7.22101">
        <ele>339.1</ele>
        <time>2020-05-22T12:40:29Z</time>
      </trkpt>
      <trkpt lat="48.72199" lon="7.22095">
        <ele>339.2</ele>
        <time>2020-05-22T12:40:31Z</time>
      </trkpt>
      <trkpt lat="48.72199" lon="7.22091">
        <ele>339.4</ele>
        <time>2020-05-22T12:40:33Z</time>
      </trkpt>
      <trkpt lat="48.72199" lon="7.22088">
        <ele>339.4</ele>
        <time>2020-05-22T12:40:34Z</time>
      </trkpt>
      <trkpt lat="48.72198" lon="7.22084">
        <ele>339.6</ele>
        <time>2020-05-22T12:40:36Z</time>
      </trkpt>
      <trkpt lat="48.72198" lon="7.2208">
        <ele>339.6</ele>
        <time>2020-05-22T12:40:38Z</time>
      </trkpt>
      <trkpt lat="48.72199" lon="7.22077">
        <ele>339.8</ele>
        <time>2020-05-22T12:40:40Z</time>
      </trkpt>
      <trkpt lat="48.722" lon="7.22075">
        <ele>339.8</ele>
        <time>2020-05-22T12:40:41Z</time>
      </trkpt>
      <trkpt lat="48.722" lon="7.22073">
        <ele>339.9</ele>
        <time>2020-05-22T12:40:42Z</time>
      </trkpt>
      <trkpt lat="48.72202" lon="7.2207">
        <ele>340</ele>
        <time>2020-05-22T12:40:44Z</time>
      </trkpt>
      <trkpt lat="48.72203" lon="7.22068">
        <ele>340</ele>
        <time>2020-05-22T12:40:45Z</time>
      </trkpt>
      <trkpt lat="48.72203" lon="7.22068">
        <ele>340</ele>
        <time>2020-05-22T12:40:46Z</time>
      </trkpt>
      <trkpt lat="48.72204" lon="7.22064">
        <ele>340.1</ele>
        <time>2020-05-22T12:40:48Z</time>
      </trkpt>
      <trkpt lat="48.72204" lon="7.2206">
        <ele>340.2</ele>
        <time>2020-05-22T12:40:49Z</time>
      </trkpt>
      <trkpt lat="48.72204" lon="7.22059">
        <ele>340.2</ele>
        <time>2020-05-22T12:40:50Z</time>
      </trkpt>
      <trkpt lat="48.72205" lon="7.22058">
        <ele>340.2</ele>
        <time>2020-05-22T12:40:51Z</time>
      </trkpt>
      <trkpt lat="48.72206" lon="7.22054">
        <ele>340.3</ele>
        <time>2020-05-22T12:40:53Z</time>
      </trkpt>
      <trkpt lat="48.72206" lon="7.22051">
        <ele>340.4</ele>
        <time>2020-05-22T12:40:55Z</time>
      </trkpt>
      <trkpt lat="48.72207" lon="7.22048">
        <ele>340.4</ele>
        <time>2020-05-22T12:40:57Z</time>
      </trkpt>
      <trkpt lat="48.72207" lon="7.22046">
        <ele>340.5</ele>
        <time>2020-05-22T12:40:58Z</time>
      </trkpt>
      <trkpt lat="48.72208" lon="7.22041">
        <ele>340.6</ele>
        <time>2020-05-22T12:41:00Z</time>
      </trkpt>
      <trkpt lat="48.72208" lon="7.22039">
        <ele>340.6</ele>
        <time>2020-05-22T12:41:02Z</time>
      </trkpt>
      <trkpt lat="48.72208" lon="7.22037">
        <ele>340.6</ele>
        <time>2020-05-22T12:41:04Z</time>
      </trkpt>
      <trkpt lat="48.72208" lon="7.22034">
        <ele>340.7</ele>
        <time>2020-05-22T12:41:05Z</time>
      </trkpt>
      <trkpt lat="48.72208" lon="7.22028">
        <ele>340.7</ele>
        <time>2020-05-22T12:41:07Z</time>
      </trkpt>
      <trkpt lat="48.72207" lon="7.22027">
        <ele>340.8</ele>
        <time>2020-05-22T12:41:08Z</time>
      </trkpt>
      <trkpt lat="48.72207" lon="7.22022">
        <ele>340.8</ele>
        <time>2020-05-22T12:41:10Z</time>
      </trkpt>
      <trkpt lat="48.72208" lon="7.22021">
        <ele>340.8</ele>
        <time>2020-05-22T12:41:11Z</time>
      </trkpt>
      <trkpt lat="48.7221" lon="7.22016">
        <ele>340.9</ele>
        <time>2020-05-22T12:41:13Z</time>
      </trkpt>
      <trkpt lat="48.72212" lon="7.22014">
        <ele>341</ele>
        <time>2020-05-22T12:41:14Z</time>
      </trkpt>
      <trkpt lat="48.72213" lon="7.22011">
        <ele>341</ele>
        <time>2020-05-22T12:41:16Z</time>
      </trkpt>
      <trkpt lat="48.72215" lon="7.22008">
        <ele>341.1</ele>
        <time>2020-05-22T12:41:18Z</time>
      </trkpt>
      <trkpt lat="48.72215" lon="7.22005">
        <ele>341.2</ele>
        <time>2020-05-22T12:41:19Z</time>
      </trkpt>
      <trkpt lat="48.72216" lon="7.21999">
        <ele>341.3</ele>
        <time>2020-05-22T12:41:21Z</time>
      </trkpt>
      <trkpt lat="48.72217" lon="7.21995">
        <ele>341.3</ele>
        <time>2020-05-22T12:41:22Z</time>
      </trkpt>
      <trkpt lat="48.72218" lon="7.21988">
        <ele>341.5</ele>
        <time>2020-05-22T12:41:24Z</time>
      </trkpt>
      <trkpt lat="48.72218" lon="7.21981">
        <ele>341.7</ele>
        <time>2020-05-22T12:41:26Z</time>
      </trkpt>
      <trkpt lat="48.7222" lon="7.21975">
        <ele>341.8</ele>
        <time>2020-05-22T12:41:28Z</time>
      </trkpt>
      <trkpt lat="48.72222" lon="7.21971">
        <ele>342</ele>
        <time>2020-05-22T12:41:30Z</time>
      </trkpt>
      <trkpt lat="48.72223" lon="7.21966">
        <ele>342.2</ele>
        <time>2020-05-22T12:41:32Z</time>
      </trkpt>
      <trkpt lat="48.72224" lon="7.21964">
        <ele>342.2</ele>
        <time>2020-05-22T12:41:33Z</time>
      </trkpt>
      <trkpt lat="48.72226" lon="7.2196">
        <ele>342.4</ele>
        <time>2020-05-22T12:41:35Z</time>
      </trkpt>
      <trkpt lat="48.72226" lon="7.21958">
        <ele>342.5</ele>
        <time>2020-05-22T12:41:36Z</time>
      </trkpt>
      <trkpt lat="48.72227" lon="7.21957">
        <ele>342.5</ele>
        <time>2020-05-22T12:41:37Z</time>
      </trkpt>
      <trkpt lat="48.72228" lon="7.21955">
        <ele>342.6</ele>
        <time>2020-05-22T12:41:39Z</time>
      </trkpt>
      <trkpt lat="48.72228" lon="7.21951">
        <ele>342.7</ele>
        <time>2020-05-22T12:41:41Z</time>
      </trkpt>
      <trkpt lat="48.7223" lon="7.21947">
        <ele>342.9</ele>
        <time>2020-05-22T12:41:43Z</time>
      </trkpt>
      <trkpt lat="48.72232" lon="7.21943">
        <ele>343</ele>
        <time>2020-05-22T12:41:45Z</time>
      </trkpt>
      <trkpt lat="48.72234" lon="7.21938">
        <ele>343.2</ele>
        <time>2020-05-22T12:41:47Z</time>
      </trkpt>
      <trkpt lat="48.72237" lon="7.21933">
        <ele>343.4</ele>
        <time>2020-05-22T12:41:49Z</time>
      </trkpt>
      <trkpt lat="48.72238" lon="7.21929">
        <ele>343.5</ele>
        <time>2020-05-22T12:41:51Z</time>
      </trkpt>
      <trkpt lat="48.72239" lon="7.21925">
        <ele>343.6</ele>
        <time>2020-05-22T12:41:53Z</time>
      </trkpt>
      <trkpt lat="48.72239" lon="7.2192">
        <ele>343.7</ele>
        <time>2020-05-22T12:41:55Z</time>
      </trkpt>
      <trkpt lat="48.72239" lon="7.21917">
        <ele>343.8</ele>
        <time>2020-05-22T12:41:56Z</time>
      </trkpt>
      <trkpt lat="48.72238" lon="7.21911">
        <ele>343.9</ele>
        <time>2020-05-22T12:41:58Z</time>
      </trkpt>
      <trkpt lat="48.72239" lon="7.21907">
        <ele>344</ele>
        <time>2020-05-22T12:42:00Z</time>
      </trkpt>
      <trkpt lat="48.72239" lon="7.21904">
        <ele>344</ele>
        <time>2020-05-22T12:42:01Z</time>
      </trkpt>
      <trkpt lat="48.72242" lon="7.21899">
        <ele>344.1</ele>
        <time>2020-05-22T12:42:03Z</time>
      </trkpt>
      <trkpt lat="48.72243" lon="7.21894">
        <ele>344.2</ele>
        <time>2020-05-22T12:42:05Z</time>
      </trkpt>
      <trkpt lat="48.72243" lon="7.21889">
        <ele>344.2</ele>
        <time>2020-05-22T12:42:07Z</time>
      </trkpt>
      <trkpt lat="48.72242" lon="7.21887">
        <ele>344.3</ele>
        <time>2020-05-22T12:42:08Z</time>
      </trkpt>
      <trkpt lat="48.72241" lon="7.21883">
        <ele>344.3</ele>
        <time>2020-05-22T12:42:10Z</time>
      </trkpt>
      <trkpt lat="48.7224" lon="7.21881">
        <ele>344.3</ele>
        <time>2020-05-22T12:42:11Z</time>
      </trkpt>
      <trkpt lat="48.72243" lon="7.21876">
        <ele>344.4</ele>
        <time>2020-05-22T12:42:13Z</time>
      </trkpt>
      <trkpt lat="48.72244" lon="7.21871">
        <ele>344.4</ele>
        <time>2020-05-22T12:42:15Z</time>
      </trkpt>
      <trkpt lat="48.72244" lon="7.21869">
        <ele>344.5</ele>
        <time>2020-05-22T12:42:16Z</time>
      </trkpt>
      <trkpt lat="48.72244" lon="7.21863">
        <ele>344.5</ele>
        <time>2020-05-22T12:42:18Z</time>
      </trkpt>
      <trkpt lat="48.72244" lon="7.2186">
        <ele>344.5</ele>
        <time>2020-05-22T12:42:19Z</time>
      </trkpt>
      <trkpt lat="48.72246" lon="7.21855">
        <ele>344.5</ele>
        <time>2020-05-22T12:42:21Z</time>
      </trkpt>
      <trkpt lat="48.72248" lon="7.21848">
        <ele>344.5</ele>
        <time>2020-05-22T12:42:23Z</time>
      </trkpt>
      <trkpt lat="48.72251" lon="7.21843">
        <ele>344.6</ele>
        <time>2020-05-22T12:42:25Z</time>
      </trkpt>
      <trkpt lat="48.72253" lon="7.21839">
        <ele>344.6</ele>
        <time>2020-05-22T12:42:27Z</time>
      </trkpt>
      <trkpt lat="48.72255" lon="7.21834">
        <ele>344.7</ele>
        <time>2020-05-22T12:42:29Z</time>
      </trkpt>
      <trkpt lat="48.72256" lon="7.21828">
        <ele>344.7</ele>
        <time>2020-05-22T12:42:31Z</time>
      </trkpt>
      <trkpt lat="48.72257" lon="7.21826">
        <ele>344.8</ele>
        <time>2020-05-22T12:42:32Z</time>
      </trkpt>
      <trkpt lat="48.72257" lon="7.21824">
        <ele>344.8</ele>
        <time>2020-05-22T12:42:33Z</time>
      </trkpt>
      <trkpt lat="48.72258" lon="7.21821">
        <ele>344.8</ele>
        <time>2020-05-22T12:42:34Z</time>
      </trkpt>
      <trkpt lat="48.7226" lon="7.21817">
        <ele>344.8</ele>
        <time>2020-05-22T12:42:36Z</time>
      </trkpt>
      <trkpt lat="48.72261" lon="7.21812">
        <ele>344.8</ele>
        <time>2020-05-22T12:42:38Z</time>
      </trkpt>
      <trkpt lat="48.72262" lon="7.21809">
        <ele>344.9</ele>
        <time>2020-05-22T12:42:39Z</time>
      </trkpt>
      <trkpt lat="48.72263" lon="7.21804">
        <ele>344.9</ele>
        <time>2020-05-22T12:42:41Z</time>
      </trkpt>
      <trkpt lat="48.72265" lon="7.21797">
        <ele>344.9</ele>
        <time>2020-05-22T12:42:43Z</time>
      </trkpt>
      <trkpt lat="48.72265" lon="7.21795">
        <ele>344.9</ele>
        <time>2020-05-22T12:42:44Z</time>
      </trkpt>
      <trkpt lat="48.72266" lon="7.21793">
        <ele>344.8</ele>
        <time>2020-05-22T12:42:45Z</time>
      </trkpt>
      <trkpt lat="48.72267" lon="7.21788">
        <ele>344.8</ele>
        <time>2020-05-22T12:42:47Z</time>
      </trkpt>
      <trkpt lat="48.72268" lon="7.21786">
        <ele>344.8</ele>
        <time>2020-05-22T12:42:48Z</time>
      </trkpt>
      <trkpt lat="48.72269" lon="7.21784">
        <ele>344.8</ele>
        <time>2020-05-22T12:42:49Z</time>
      </trkpt>
      <trkpt lat="48.72271" lon="7.2178">
        <ele>344.8</ele>
        <time>2020-05-22T12:42:50Z</time>
      </trkpt>
      <trkpt lat="48.72271" lon="7.21779">
        <ele>344.7</ele>
        <time>2020-05-22T12:42:51Z</time>
      </trkpt>
      <trkpt lat="48.72275" lon="7.21774">
        <ele>344.6</ele>
        <time>2020-05-22T12:42:53Z</time>
      </trkpt>
      <trkpt lat="48.72279" lon="7.21768">
        <ele>344.5</ele>
        <time>2020-05-22T12:42:55Z</time>
      </trkpt>
      <trkpt lat="48.72282" lon="7.21765">
        <ele>344.3</ele>
        <time>2020-05-22T12:42:57Z</time>
      </trkpt>
      <trkpt lat="48.72286" lon="7.21761">
        <ele>344.1</ele>
        <time>2020-05-22T12:42:59Z</time>
      </trkpt>
      <trkpt lat="48.72288" lon="7.21755">
        <ele>343.9</ele>
        <time>2020-05-22T12:43:00Z</time>
      </trkpt>
      <trkpt lat="48.72288" lon="7.21753">
        <ele>343.8</ele>
        <time>2020-05-22T12:43:01Z</time>
      </trkpt>
      <trkpt lat="48.7229" lon="7.21741">
        <ele>343.3</ele>
        <time>2020-05-22T12:43:03Z</time>
      </trkpt>
      <trkpt lat="48.72292" lon="7.21734">
        <ele>342.8</ele>
        <time>2020-05-22T12:43:04Z</time>
      </trkpt>
      <trkpt lat="48.72294" lon="7.21727">
        <ele>342.3</ele>
        <time>2020-05-22T12:43:05Z</time>
      </trkpt>
      <trkpt lat="48.72299" lon="7.21714">
        <ele>341.3</ele>
        <time>2020-05-22T12:43:07Z</time>
      </trkpt>
      <trkpt lat="48.72301" lon="7.21706">
        <ele>340.9</ele>
        <time>2020-05-22T12:43:08Z</time>
      </trkpt>
      <trkpt lat="48.72307" lon="7.21691">
        <ele>340.1</ele>
        <time>2020-05-22T12:43:10Z</time>
      </trkpt>
      <trkpt lat="48.72313" lon="7.21675">
        <ele>339.2</ele>
        <time>2020-05-22T12:43:12Z</time>
      </trkpt>
      <trkpt lat="48.72322" lon="7.21658">
        <ele>338.1</ele>
        <time>2020-05-22T12:43:14Z</time>
      </trkpt>
      <trkpt lat="48.72333" lon="7.21644">
        <ele>337</ele>
        <time>2020-05-22T12:43:16Z</time>
      </trkpt>
      <trkpt lat="48.72344" lon="7.21629">
        <ele>336</ele>
        <time>2020-05-22T12:43:18Z</time>
      </trkpt>
      <trkpt lat="48.7235" lon="7.21623">
        <ele>335.4</ele>
        <time>2020-05-22T12:43:19Z</time>
      </trkpt>
      <trkpt lat="48.72356" lon="7.21614">
        <ele>334.9</ele>
        <time>2020-05-22T12:43:20Z</time>
      </trkpt>
      <trkpt lat="48.72368" lon="7.21597">
        <ele>333.8</ele>
        <time>2020-05-22T12:43:22Z</time>
      </trkpt>
      <trkpt lat="48.72381" lon="7.21581">
        <ele>332.5</ele>
        <time>2020-05-22T12:43:24Z</time>
      </trkpt>
      <trkpt lat="48.72388" lon="7.21575">
        <ele>332</ele>
        <time>2020-05-22T12:43:25Z</time>
      </trkpt>
      <trkpt lat="48.72402" lon="7.21563">
        <ele>331</ele>
        <time>2020-05-22T12:43:27Z</time>
      </trkpt>
      <trkpt lat="48.72416" lon="7.21554">
        <ele>329.8</ele>
        <time>2020-05-22T12:43:29Z</time>
      </trkpt>
      <trkpt lat="48.72425" lon="7.21552">
        <ele>329.1</ele>
        <time>2020-05-22T12:43:30Z</time>
      </trkpt>
      <trkpt lat="48.72434" lon="7.21551">
        <ele>328.3</ele>
        <time>2020-05-22T12:43:31Z</time>
      </trkpt>
      <trkpt lat="48.72451" lon="7.21547">
        <ele>326.7</ele>
        <time>2020-05-22T12:43:33Z</time>
      </trkpt>
      <trkpt lat="48.7247" lon="7.21545">
        <ele>325.1</ele>
        <time>2020-05-22T12:43:35Z</time>
      </trkpt>
      <trkpt lat="48.72479" lon="7.21544">
        <ele>324.4</ele>
        <time>2020-05-22T12:43:36Z</time>
      </trkpt>
      <trkpt lat="48.72498" lon="7.21548">
        <ele>323.1</ele>
        <time>2020-05-22T12:43:38Z</time>
      </trkpt>
      <trkpt lat="48.72515" lon="7.21556">
        <ele>323.2</ele>
        <time>2020-05-22T12:43:40Z</time>
      </trkpt>
      <trkpt lat="48.72523" lon="7.21561">
        <ele>323.1</ele>
        <time>2020-05-22T12:43:41Z</time>
      </trkpt>
      <trkpt lat="48.72539" lon="7.21566">
        <ele>322.9</ele>
        <time>2020-05-22T12:43:43Z</time>
      </trkpt>
      <trkpt lat="48.72556" lon="7.2157">
        <ele>322.5</ele>
        <time>2020-05-22T12:43:45Z</time>
      </trkpt>
      <trkpt lat="48.72573" lon="7.21577">
        <ele>321.8</ele>
        <time>2020-05-22T12:43:47Z</time>
      </trkpt>
      <trkpt lat="48.72581" lon="7.2158">
        <ele>321.3</ele>
        <time>2020-05-22T12:43:48Z</time>
      </trkpt>
      <trkpt lat="48.7259" lon="7.2158">
        <ele>320.9</ele>
        <time>2020-05-22T12:43:49Z</time>
      </trkpt>
      <trkpt lat="48.72598" lon="7.21578">
        <ele>320.5</ele>
        <time>2020-05-22T12:43:50Z</time>
      </trkpt>
      <trkpt lat="48.72616" lon="7.21572">
        <ele>319.8</ele>
        <time>2020-05-22T12:43:52Z</time>
      </trkpt>
      <trkpt lat="48.72634" lon="7.21565">
        <ele>319.7</ele>
        <time>2020-05-22T12:43:54Z</time>
      </trkpt>
      <trkpt lat="48.72646" lon="7.2155">
        <ele>319.8</ele>
        <time>2020-05-22T12:43:56Z</time>
      </trkpt>
      <trkpt lat="48.7265" lon="7.21541">
        <ele>319.9</ele>
        <time>2020-05-22T12:43:57Z</time>
      </trkpt>
      <trkpt lat="48.72654" lon="7.21532">
        <ele>319.9</ele>
        <time>2020-05-22T12:43:58Z</time>
      </trkpt>
      <trkpt lat="48.72657" lon="7.21523">
        <ele>319.9</ele>
        <time>2020-05-22T12:43:59Z</time>
      </trkpt>
      <trkpt lat="48.72663" lon="7.21503">
        <ele>320</ele>
        <time>2020-05-22T12:44:01Z</time>
      </trkpt>
      <trkpt lat="48.72664" lon="7.21482">
        <ele>320</ele>
        <time>2020-05-22T12:44:03Z</time>
      </trkpt>
      <trkpt lat="48.72667" lon="7.2146">
        <ele>320</ele>
        <time>2020-05-22T12:44:05Z</time>
      </trkpt>
      <trkpt lat="48.72669" lon="7.2145">
        <ele>320.7</ele>
        <time>2020-05-22T12:44:06Z</time>
      </trkpt>
      <trkpt lat="48.7267" lon="7.2144">
        <ele>320.3</ele>
        <time>2020-05-22T12:44:07Z</time>
      </trkpt>
      <trkpt lat="48.72669" lon="7.21432">
        <ele>319.8</ele>
        <time>2020-05-22T12:44:08Z</time>
      </trkpt>
      <trkpt lat="48.7267" lon="7.21417">
        <ele>320</ele>
        <time>2020-05-22T12:44:10Z</time>
      </trkpt>
      <trkpt lat="48.7267" lon="7.21409">
        <ele>319.1</ele>
        <time>2020-05-22T12:44:11Z</time>
      </trkpt>
      <trkpt lat="48.72671" lon="7.21402">
        <ele>318</ele>
        <time>2020-05-22T12:44:12Z</time>
      </trkpt>
      <trkpt lat="48.72673" lon="7.21393">
        <ele>317.9</ele>
        <time>2020-05-22T12:44:14Z</time>
      </trkpt>
      <trkpt lat="48.72676" lon="7.21387">
        <ele>317.9</ele>
        <time>2020-05-22T12:44:16Z</time>
      </trkpt>
      <trkpt lat="48.72678" lon="7.21381">
        <ele>316.5</ele>
        <time>2020-05-22T12:44:17Z</time>
      </trkpt>
      <trkpt lat="48.7268" lon="7.21377">
        <ele>316.4</ele>
        <time>2020-05-22T12:44:18Z</time>
      </trkpt>
      <trkpt lat="48.72683" lon="7.2137">
        <ele>316.3</ele>
        <time>2020-05-22T12:44:20Z</time>
      </trkpt>
      <trkpt lat="48.72687" lon="7.21365">
        <ele>316.2</ele>
        <time>2020-05-22T12:44:22Z</time>
      </trkpt>
      <trkpt lat="48.7269" lon="7.21358">
        <ele>316.7</ele>
        <time>2020-05-22T12:44:24Z</time>
      </trkpt>
      <trkpt lat="48.72695" lon="7.21353">
        <ele>316.7</ele>
        <time>2020-05-22T12:44:26Z</time>
      </trkpt>
      <trkpt lat="48.72699" lon="7.21348">
        <ele>317.5</ele>
        <time>2020-05-22T12:44:28Z</time>
      </trkpt>
      <trkpt lat="48.72701" lon="7.21345">
        <ele>316.6</ele>
        <time>2020-05-22T12:44:29Z</time>
      </trkpt>
      <trkpt lat="48.72703" lon="7.21338">
        <ele>316.2</ele>
        <time>2020-05-22T12:44:31Z</time>
      </trkpt>
      <trkpt lat="48.72706" lon="7.2133">
        <ele>316</ele>
        <time>2020-05-22T12:44:33Z</time>
      </trkpt>
      <trkpt lat="48.7271" lon="7.21326">
        <ele>316.4</ele>
        <time>2020-05-22T12:44:35Z</time>
      </trkpt>
      <trkpt lat="48.72713" lon="7.21323">
        <ele>316</ele>
        <time>2020-05-22T12:44:37Z</time>
      </trkpt>
      <trkpt lat="48.72718" lon="7.21321">
        <ele>315.6</ele>
        <time>2020-05-22T12:44:39Z</time>
      </trkpt>
      <trkpt lat="48.72722" lon="7.21317">
        <ele>316</ele>
        <time>2020-05-22T12:44:41Z</time>
      </trkpt>
      <trkpt lat="48.72726" lon="7.21314">
        <ele>316.5</ele>
        <time>2020-05-22T12:44:43Z</time>
      </trkpt>
      <trkpt lat="48.72729" lon="7.21309">
        <ele>316.8</ele>
        <time>2020-05-22T12:44:45Z</time>
      </trkpt>
      <trkpt lat="48.72731" lon="7.21306">
        <ele>317.1</ele>
        <time>2020-05-22T12:44:46Z</time>
      </trkpt>
      <trkpt lat="48.72735" lon="7.21302">
        <ele>317.4</ele>
        <time>2020-05-22T12:44:48Z</time>
      </trkpt>
      <trkpt lat="48.72737" lon="7.21301">
        <ele>317.6</ele>
        <time>2020-05-22T12:44:49Z</time>
      </trkpt>
      <trkpt lat="48.7274" lon="7.21297">
        <ele>318</ele>
        <time>2020-05-22T12:44:51Z</time>
      </trkpt>
      <trkpt lat="48.72743" lon="7.21294">
        <ele>318.2</ele>
        <time>2020-05-22T12:44:52Z</time>
      </trkpt>
      <trkpt lat="48.72747" lon="7.2129">
        <ele>318.6</ele>
        <time>2020-05-22T12:44:54Z</time>
      </trkpt>
      <trkpt lat="48.72749" lon="7.21288">
        <ele>318.8</ele>
        <time>2020-05-22T12:44:55Z</time>
      </trkpt>
      <trkpt lat="48.72752" lon="7.21285">
        <ele>319.1</ele>
        <time>2020-05-22T12:44:57Z</time>
      </trkpt>
      <trkpt lat="48.72757" lon="7.21282">
        <ele>319.5</ele>
        <time>2020-05-22T12:44:59Z</time>
      </trkpt>
      <trkpt lat="48.72762" lon="7.2128">
        <ele>319.9</ele>
        <time>2020-05-22T12:45:01Z</time>
      </trkpt>
      <trkpt lat="48.72765" lon="7.21278">
        <ele>320.2</ele>
        <time>2020-05-22T12:45:03Z</time>
      </trkpt>
      <trkpt lat="48.7277" lon="7.21276">
        <ele>320.6</ele>
        <time>2020-05-22T12:45:05Z</time>
      </trkpt>
      <trkpt lat="48.72773" lon="7.21274">
        <ele>320.9</ele>
        <time>2020-05-22T12:45:06Z</time>
      </trkpt>
      <trkpt lat="48.72774" lon="7.21273">
        <ele>321</ele>
        <time>2020-05-22T12:45:07Z</time>
      </trkpt>
      <trkpt lat="48.72776" lon="7.21271">
        <ele>321.2</ele>
        <time>2020-05-22T12:45:08Z</time>
      </trkpt>
      <trkpt lat="48.72781" lon="7.21269">
        <ele>321.6</ele>
        <time>2020-05-22T12:45:10Z</time>
      </trkpt>
      <trkpt lat="48.72784" lon="7.21266">
        <ele>321.9</ele>
        <time>2020-05-22T12:45:12Z</time>
      </trkpt>
      <trkpt lat="48.72786" lon="7.21264">
        <ele>322.1</ele>
        <time>2020-05-22T12:45:13Z</time>
      </trkpt>
      <trkpt lat="48.72789" lon="7.21261">
        <ele>322.4</ele>
        <time>2020-05-22T12:45:15Z</time>
      </trkpt>
      <trkpt lat="48.72792" lon="7.21258">
        <ele>322.7</ele>
        <time>2020-05-22T12:45:16Z</time>
      </trkpt>
      <trkpt lat="48.72793" lon="7.21256">
        <ele>322.9</ele>
        <time>2020-05-22T12:45:17Z</time>
      </trkpt>
      <trkpt lat="48.72796" lon="7.21254">
        <ele>323.2</ele>
        <time>2020-05-22T12:45:18Z</time>
      </trkpt>
      <trkpt lat="48.72797" lon="7.21253">
        <ele>323.2</ele>
        <time>2020-05-22T12:45:19Z</time>
      </trkpt>
      <trkpt lat="48.72799" lon="7.21252">
        <ele>323.4</ele>
        <time>2020-05-22T12:45:20Z</time>
      </trkpt>
      <trkpt lat="48.72803" lon="7.2125">
        <ele>323.7</ele>
        <time>2020-05-22T12:45:22Z</time>
      </trkpt>
      <trkpt lat="48.72805" lon="7.21248">
        <ele>324</ele>
        <time>2020-05-22T12:45:23Z</time>
      </trkpt>
      <trkpt lat="48.7281" lon="7.21243">
        <ele>324.5</ele>
        <time>2020-05-22T12:45:25Z</time>
      </trkpt>
      <trkpt lat="48.72814" lon="7.21239">
        <ele>324.9</ele>
        <time>2020-05-22T12:45:27Z</time>
      </trkpt>
      <trkpt lat="48.72817" lon="7.21235">
        <ele>325.2</ele>
        <time>2020-05-22T12:45:29Z</time>
      </trkpt>
      <trkpt lat="48.72818" lon="7.21233">
        <ele>325.4</ele>
        <time>2020-05-22T12:45:30Z</time>
      </trkpt>
      <trkpt lat="48.72822" lon="7.21228">
        <ele>325.8</ele>
        <time>2020-05-22T12:45:32Z</time>
      </trkpt>
      <trkpt lat="48.72823" lon="7.21226">
        <ele>326</ele>
        <time>2020-05-22T12:45:33Z</time>
      </trkpt>
      <trkpt lat="48.72827" lon="7.21221">
        <ele>326.4</ele>
        <time>2020-05-22T12:45:35Z</time>
      </trkpt>
      <trkpt lat="48.7283" lon="7.21219">
        <ele>326.7</ele>
        <time>2020-05-22T12:45:36Z</time>
      </trkpt>
      <trkpt lat="48.72831" lon="7.21218">
        <ele>326.8</ele>
        <time>2020-05-22T12:45:37Z</time>
      </trkpt>
      <trkpt lat="48.72834" lon="7.21214">
        <ele>327.1</ele>
        <time>2020-05-22T12:45:39Z</time>
      </trkpt>
      <trkpt lat="48.72838" lon="7.21212">
        <ele>327.4</ele>
        <time>2020-05-22T12:45:41Z</time>
      </trkpt>
      <trkpt lat="48.72841" lon="7.21209">
        <ele>327.7</ele>
        <time>2020-05-22T12:45:42Z</time>
      </trkpt>
      <trkpt lat="48.72841" lon="7.21208">
        <ele>327.8</ele>
        <time>2020-05-22T12:45:43Z</time>
      </trkpt>
      <trkpt lat="48.72843" lon="7.21206">
        <ele>328</ele>
        <time>2020-05-22T12:45:44Z</time>
      </trkpt>
      <trkpt lat="48.72846" lon="7.21204">
        <ele>328.3</ele>
        <time>2020-05-22T12:45:46Z</time>
      </trkpt>
      <trkpt lat="48.72849" lon="7.21204">
        <ele>328.6</ele>
        <time>2020-05-22T12:45:48Z</time>
      </trkpt>
      <trkpt lat="48.72853" lon="7.21203">
        <ele>328.8</ele>
        <time>2020-05-22T12:45:49Z</time>
      </trkpt>
      <trkpt lat="48.72854" lon="7.21203">
        <ele>328.9</ele>
        <time>2020-05-22T12:45:50Z</time>
      </trkpt>
      <trkpt lat="48.72856" lon="7.21203">
        <ele>329.1</ele>
        <time>2020-05-22T12:45:51Z</time>
      </trkpt>
      <trkpt lat="48.72859" lon="7.21202">
        <ele>329.4</ele>
        <time>2020-05-22T12:45:53Z</time>
      </trkpt>
      <trkpt lat="48.72861" lon="7.21201">
        <ele>329.5</ele>
        <time>2020-05-22T12:45:54Z</time>
      </trkpt>
      <trkpt lat="48.72864" lon="7.21199">
        <ele>329.8</ele>
        <time>2020-05-22T12:45:56Z</time>
      </trkpt>
      <trkpt lat="48.72867" lon="7.21197">
        <ele>330.1</ele>
        <time>2020-05-22T12:45:58Z</time>
      </trkpt>
      <trkpt lat="48.72871" lon="7.21195">
        <ele>330.4</ele>
        <time>2020-05-22T12:46:00Z</time>
      </trkpt>
      <trkpt lat="48.72873" lon="7.21192">
        <ele>330.7</ele>
        <time>2020-05-22T12:46:02Z</time>
      </trkpt>
      <trkpt lat="48.72877" lon="7.2119">
        <ele>331.1</ele>
        <time>2020-05-22T12:46:04Z</time>
      </trkpt>
      <trkpt lat="48.72882" lon="7.21189">
        <ele>331.5</ele>
        <time>2020-05-22T12:46:06Z</time>
      </trkpt>
      <trkpt lat="48.72885" lon="7.21188">
        <ele>331.7</ele>
        <time>2020-05-22T12:46:07Z</time>
      </trkpt>
      <trkpt lat="48.72888" lon="7.21185">
        <ele>332</ele>
        <time>2020-05-22T12:46:09Z</time>
      </trkpt>
      <trkpt lat="48.72891" lon="7.21182">
        <ele>332.3</ele>
        <time>2020-05-22T12:46:11Z</time>
      </trkpt>
      <trkpt lat="48.72894" lon="7.21182">
        <ele>332.5</ele>
        <time>2020-05-22T12:46:12Z</time>
      </trkpt>
      <trkpt lat="48.72896" lon="7.21182">
        <ele>332.7</ele>
        <time>2020-05-22T12:46:13Z</time>
      </trkpt>
      <trkpt lat="48.72898" lon="7.21181">
        <ele>332.9</ele>
        <time>2020-05-22T12:46:14Z</time>
      </trkpt>
      <trkpt lat="48.72903" lon="7.21178">
        <ele>333.3</ele>
        <time>2020-05-22T12:46:16Z</time>
      </trkpt>
      <trkpt lat="48.72907" lon="7.21175">
        <ele>333.6</ele>
        <time>2020-05-22T12:46:18Z</time>
      </trkpt>
      <trkpt lat="48.72912" lon="7.21172">
        <ele>334</ele>
        <time>2020-05-22T12:46:20Z</time>
      </trkpt>
      <trkpt lat="48.72916" lon="7.21169">
        <ele>334.4</ele>
        <time>2020-05-22T12:46:22Z</time>
      </trkpt>
      <trkpt lat="48.72919" lon="7.21168">
        <ele>334.7</ele>
        <time>2020-05-22T12:46:23Z</time>
      </trkpt>
      <trkpt lat="48.7292" lon="7.21168">
        <ele>334.8</ele>
        <time>2020-05-22T12:46:24Z</time>
      </trkpt>
      <trkpt lat="48.72921" lon="7.21167">
        <ele>334.9</ele>
        <time>2020-05-22T12:46:25Z</time>
      </trkpt>
      <trkpt lat="48.72923" lon="7.21167">
        <ele>335.1</ele>
        <time>2020-05-22T12:46:26Z</time>
      </trkpt>
      <trkpt lat="48.72928" lon="7.21166">
        <ele>335.6</ele>
        <time>2020-05-22T12:46:28Z</time>
      </trkpt>
      <trkpt lat="48.7293" lon="7.21166">
        <ele>335.8</ele>
        <time>2020-05-22T12:46:29Z</time>
      </trkpt>
      <trkpt lat="48.72934" lon="7.21164">
        <ele>336.3</ele>
        <time>2020-05-22T12:46:31Z</time>
      </trkpt>
      <trkpt lat="48.72938" lon="7.21161">
        <ele>336.7</ele>
        <time>2020-05-22T12:46:33Z</time>
      </trkpt>
      <trkpt lat="48.72942" lon="7.2116">
        <ele>337</ele>
        <time>2020-05-22T12:46:35Z</time>
      </trkpt>
      <trkpt lat="48.72944" lon="7.21158">
        <ele>337.2</ele>
        <time>2020-05-22T12:46:36Z</time>
      </trkpt>
      <trkpt lat="48.72948" lon="7.21156">
        <ele>337.6</ele>
        <time>2020-05-22T12:46:38Z</time>
      </trkpt>
      <trkpt lat="48.72952" lon="7.21154">
        <ele>338</ele>
        <time>2020-05-22T12:46:40Z</time>
      </trkpt>
      <trkpt lat="48.72954" lon="7.21153">
        <ele>338.2</ele>
        <time>2020-05-22T12:46:41Z</time>
      </trkpt>
      <trkpt lat="48.72959" lon="7.2115">
        <ele>338.6</ele>
        <time>2020-05-22T12:46:43Z</time>
      </trkpt>
      <trkpt lat="48.72961" lon="7.21148">
        <ele>338.8</ele>
        <time>2020-05-22T12:46:44Z</time>
      </trkpt>
      <trkpt lat="48.72965" lon="7.21145">
        <ele>339.2</ele>
        <time>2020-05-22T12:46:46Z</time>
      </trkpt>
      <trkpt lat="48.72967" lon="7.21143">
        <ele>339.4</ele>
        <time>2020-05-22T12:46:47Z</time>
      </trkpt>
      <trkpt lat="48.72972" lon="7.2114">
        <ele>339.8</ele>
        <time>2020-05-22T12:46:49Z</time>
      </trkpt>
      <trkpt lat="48.72976" lon="7.2114">
        <ele>339.9</ele>
        <time>2020-05-22T12:46:51Z</time>
      </trkpt>
      <trkpt lat="48.72978" lon="7.21139">
        <ele>339.9</ele>
        <time>2020-05-22T12:46:52Z</time>
      </trkpt>
      <trkpt lat="48.72981" lon="7.21137">
        <ele>340.1</ele>
        <time>2020-05-22T12:46:54Z</time>
      </trkpt>
      <trkpt lat="48.72984" lon="7.21135">
        <ele>340.2</ele>
        <time>2020-05-22T12:46:55Z</time>
      </trkpt>
      <trkpt lat="48.72985" lon="7.21135">
        <ele>340.2</ele>
        <time>2020-05-22T12:46:56Z</time>
      </trkpt>
      <trkpt lat="48.72989" lon="7.21132">
        <ele>340.3</ele>
        <time>2020-05-22T12:46:58Z</time>
      </trkpt>
      <trkpt lat="48.72993" lon="7.21127">
        <ele>340.5</ele>
        <time>2020-05-22T12:47:00Z</time>
      </trkpt>
      <trkpt lat="48.72997" lon="7.21124">
        <ele>340.6</ele>
        <time>2020-05-22T12:47:02Z</time>
      </trkpt>
      <trkpt lat="48.73" lon="7.21122">
        <ele>340.7</ele>
        <time>2020-05-22T12:47:03Z</time>
      </trkpt>
      <trkpt lat="48.73001" lon="7.21122">
        <ele>340.7</ele>
        <time>2020-05-22T12:47:04Z</time>
      </trkpt>
      <trkpt lat="48.73004" lon="7.2112">
        <ele>340.8</ele>
        <time>2020-05-22T12:47:05Z</time>
      </trkpt>
      <trkpt lat="48.73005" lon="7.21119">
        <ele>340.8</ele>
        <time>2020-05-22T12:47:06Z</time>
      </trkpt>
      <trkpt lat="48.73009" lon="7.21116">
        <ele>340.9</ele>
        <time>2020-05-22T12:47:08Z</time>
      </trkpt>
      <trkpt lat="48.73011" lon="7.21115">
        <ele>341</ele>
        <time>2020-05-22T12:47:09Z</time>
      </trkpt>
      <trkpt lat="48.73014" lon="7.21111">
        <ele>341.1</ele>
        <time>2020-05-22T12:47:11Z</time>
      </trkpt>
      <trkpt lat="48.73017" lon="7.21107">
        <ele>341.3</ele>
        <time>2020-05-22T12:47:12Z</time>
      </trkpt>
      <trkpt lat="48.73017" lon="7.21106">
        <ele>341.3</ele>
        <time>2020-05-22T12:47:13Z</time>
      </trkpt>
      <trkpt lat="48.73019" lon="7.21103">
        <ele>341.4</ele>
        <time>2020-05-22T12:47:14Z</time>
      </trkpt>
      <trkpt lat="48.73021" lon="7.21096">
        <ele>341.6</ele>
        <time>2020-05-22T12:47:16Z</time>
      </trkpt>
      <trkpt lat="48.73023" lon="7.21089">
        <ele>341.8</ele>
        <time>2020-05-22T12:47:18Z</time>
      </trkpt>
      <trkpt lat="48.73024" lon="7.21084">
        <ele>341.9</ele>
        <time>2020-05-22T12:47:19Z</time>
      </trkpt>
      <trkpt lat="48.73025" lon="7.21083">
        <ele>342</ele>
        <time>2020-05-22T12:47:20Z</time>
      </trkpt>
      <trkpt lat="48.73027" lon="7.21079">
        <ele>342.1</ele>
        <time>2020-05-22T12:47:22Z</time>
      </trkpt>
      <trkpt lat="48.73029" lon="7.21073">
        <ele>342.3</ele>
        <time>2020-05-22T12:47:24Z</time>
      </trkpt>
      <trkpt lat="48.73031" lon="7.21065">
        <ele>342.6</ele>
        <time>2020-05-22T12:47:26Z</time>
      </trkpt>
      <trkpt lat="48.73031" lon="7.2106">
        <ele>342.7</ele>
        <time>2020-05-22T12:47:27Z</time>
      </trkpt>
      <trkpt lat="48.73029" lon="7.21052">
        <ele>343</ele>
        <time>2020-05-22T12:47:29Z</time>
      </trkpt>
      <trkpt lat="48.73028" lon="7.21047">
        <ele>343.1</ele>
        <time>2020-05-22T12:47:30Z</time>
      </trkpt>
      <trkpt lat="48.73028" lon="7.21046">
        <ele>343.2</ele>
        <time>2020-05-22T12:47:31Z</time>
      </trkpt>
      <trkpt lat="48.73026" lon="7.2104">
        <ele>343.4</ele>
        <time>2020-05-22T12:47:33Z</time>
      </trkpt>
      <trkpt lat="48.73024" lon="7.21034">
        <ele>343.6</ele>
        <time>2020-05-22T12:47:35Z</time>
      </trkpt>
      <trkpt lat="48.73023" lon="7.21031">
        <ele>343.7</ele>
        <time>2020-05-22T12:47:36Z</time>
      </trkpt>
      <trkpt lat="48.73021" lon="7.21026">
        <ele>344</ele>
        <time>2020-05-22T12:47:38Z</time>
      </trkpt>
      <trkpt lat="48.7302" lon="7.21022">
        <ele>344.1</ele>
        <time>2020-05-22T12:47:40Z</time>
      </trkpt>
      <trkpt lat="48.73019" lon="7.2102">
        <ele>344.2</ele>
        <time>2020-05-22T12:47:41Z</time>
      </trkpt>
      <trkpt lat="48.73019" lon="7.21018">
        <ele>344.3</ele>
        <time>2020-05-22T12:47:42Z</time>
      </trkpt>
      <trkpt lat="48.73018" lon="7.21014">
        <ele>344.5</ele>
        <time>2020-05-22T12:47:44Z</time>
      </trkpt>
      <trkpt lat="48.73016" lon="7.2101">
        <ele>344.6</ele>
        <time>2020-05-22T12:47:46Z</time>
      </trkpt>
      <trkpt lat="48.73015" lon="7.21005">
        <ele>344.8</ele>
        <time>2020-05-22T12:47:48Z</time>
      </trkpt>
      <trkpt lat="48.73014" lon="7.21003">
        <ele>345</ele>
        <time>2020-05-22T12:47:49Z</time>
      </trkpt>
      <trkpt lat="48.73014" lon="7.21">
        <ele>345.1</ele>
        <time>2020-05-22T12:47:50Z</time>
      </trkpt>
      <trkpt lat="48.73012" lon="7.20995">
        <ele>345.6</ele>
        <time>2020-05-22T12:47:52Z</time>
      </trkpt>
      <trkpt lat="48.7301" lon="7.20991">
        <ele>345.8</ele>
        <time>2020-05-22T12:47:54Z</time>
      </trkpt>
      <trkpt lat="48.73006" lon="7.20988">
        <ele>345.9</ele>
        <time>2020-05-22T12:47:56Z</time>
      </trkpt>
      <trkpt lat="48.73004" lon="7.20987">
        <ele>346.1</ele>
        <time>2020-05-22T12:47:57Z</time>
      </trkpt>
      <trkpt lat="48.73003" lon="7.20986">
        <ele>346.1</ele>
        <time>2020-05-22T12:47:58Z</time>
      </trkpt>
      <trkpt lat="48.72998" lon="7.20986">
        <ele>346.1</ele>
        <time>2020-05-22T12:48:00Z</time>
      </trkpt>
      <trkpt lat="48.72994" lon="7.20986">
        <ele>346.1</ele>
        <time>2020-05-22T12:48:02Z</time>
      </trkpt>
      <trkpt lat="48.72992" lon="7.20985">
        <ele>346.2</ele>
        <time>2020-05-22T12:48:03Z</time>
      </trkpt>
      <trkpt lat="48.72989" lon="7.20982">
        <ele>346.3</ele>
        <time>2020-05-22T12:48:05Z</time>
      </trkpt>
      <trkpt lat="48.72986" lon="7.2098">
        <ele>346.4</ele>
        <time>2020-05-22T12:48:06Z</time>
      </trkpt>
      <trkpt lat="48.72985" lon="7.2098">
        <ele>346.4</ele>
        <time>2020-05-22T12:48:07Z</time>
      </trkpt>
      <trkpt lat="48.72982" lon="7.20977">
        <ele>346.5</ele>
        <time>2020-05-22T12:48:09Z</time>
      </trkpt>
      <trkpt lat="48.7298" lon="7.20975">
        <ele>346.6</ele>
        <time>2020-05-22T12:48:10Z</time>
      </trkpt>
      <trkpt lat="48.72977" lon="7.20969">
        <ele>346.8</ele>
        <time>2020-05-22T12:48:12Z</time>
      </trkpt>
      <trkpt lat="48.72974" lon="7.20963">
        <ele>347</ele>
        <time>2020-05-22T12:48:14Z</time>
      </trkpt>
      <trkpt lat="48.72972" lon="7.2096">
        <ele>347.1</ele>
        <time>2020-05-22T12:48:15Z</time>
      </trkpt>
      <trkpt lat="48.72967" lon="7.20957">
        <ele>347</ele>
        <time>2020-05-22T12:48:17Z</time>
      </trkpt>
      <trkpt lat="48.72963" lon="7.20957">
        <ele>346.9</ele>
        <time>2020-05-22T12:48:18Z</time>
      </trkpt>
      <trkpt lat="48.72956" lon="7.20961">
        <ele>346.8</ele>
        <time>2020-05-22T12:48:20Z</time>
      </trkpt>
      <trkpt lat="48.7295" lon="7.20965">
        <ele>346.7</ele>
        <time>2020-05-22T12:48:22Z</time>
      </trkpt>
      <trkpt lat="48.72948" lon="7.20966">
        <ele>346.6</ele>
        <time>2020-05-22T12:48:23Z</time>
      </trkpt>
      <trkpt lat="48.72942" lon="7.20969">
        <ele>346.5</ele>
        <time>2020-05-22T12:48:25Z</time>
      </trkpt>
      <trkpt lat="48.72936" lon="7.2097">
        <ele>346.4</ele>
        <time>2020-05-22T12:48:27Z</time>
      </trkpt>
      <trkpt lat="48.72934" lon="7.2097">
        <ele>346.4</ele>
        <time>2020-05-22T12:48:28Z</time>
      </trkpt>
      <trkpt lat="48.72929" lon="7.20969">
        <ele>346.3</ele>
        <time>2020-05-22T12:48:30Z</time>
      </trkpt>
      <trkpt lat="48.72924" lon="7.20968">
        <ele>346.3</ele>
        <time>2020-05-22T12:48:32Z</time>
      </trkpt>
      <trkpt lat="48.72919" lon="7.20968">
        <ele>346.3</ele>
        <time>2020-05-22T12:48:34Z</time>
      </trkpt>
      <trkpt lat="48.72917" lon="7.20968">
        <ele>346.3</ele>
        <time>2020-05-22T12:48:35Z</time>
      </trkpt>
      <trkpt lat="48.72912" lon="7.20969">
        <ele>346.4</ele>
        <time>2020-05-22T12:48:37Z</time>
      </trkpt>
      <trkpt lat="48.72908" lon="7.20969">
        <ele>346.4</ele>
        <time>2020-05-22T12:48:38Z</time>
      </trkpt>
      <trkpt lat="48.72907" lon="7.20969">
        <ele>346.4</ele>
        <time>2020-05-22T12:48:39Z</time>
      </trkpt>
      <trkpt lat="48.72903" lon="7.20969">
        <ele>346.5</ele>
        <time>2020-05-22T12:48:41Z</time>
      </trkpt>
      <trkpt lat="48.72901" lon="7.20969">
        <ele>346.6</ele>
        <time>2020-05-22T12:48:42Z</time>
      </trkpt>
      <trkpt lat="48.72899" lon="7.20969">
        <ele>346.6</ele>
        <time>2020-05-22T12:48:43Z</time>
      </trkpt>
      <trkpt lat="48.72898" lon="7.20969">
        <ele>346.6</ele>
        <time>2020-05-22T12:48:44Z</time>
      </trkpt>
      <trkpt lat="48.72893" lon="7.20969">
        <ele>346.8</ele>
        <time>2020-05-22T12:48:46Z</time>
      </trkpt>
      <trkpt lat="48.72889" lon="7.20969">
        <ele>346.8</ele>
        <time>2020-05-22T12:48:48Z</time>
      </trkpt>
      <trkpt lat="48.72885" lon="7.20969">
        <ele>346.9</ele>
        <time>2020-05-22T12:48:49Z</time>
      </trkpt>
      <trkpt lat="48.72884" lon="7.20969">
        <ele>347</ele>
        <time>2020-05-22T12:48:50Z</time>
      </trkpt>
      <trkpt lat="48.72882" lon="7.20969">
        <ele>347</ele>
        <time>2020-05-22T12:48:51Z</time>
      </trkpt>
      <trkpt lat="48.72876" lon="7.20969">
        <ele>347.1</ele>
        <time>2020-05-22T12:48:53Z</time>
      </trkpt>
      <trkpt lat="48.72873" lon="7.20969">
        <ele>347.2</ele>
        <time>2020-05-22T12:48:54Z</time>
      </trkpt>
      <trkpt lat="48.7287" lon="7.20969">
        <ele>347.2</ele>
        <time>2020-05-22T12:48:55Z</time>
      </trkpt>
      <trkpt lat="48.72866" lon="7.20969">
        <ele>347.3</ele>
        <time>2020-05-22T12:48:57Z</time>
      </trkpt>
      <trkpt lat="48.72861" lon="7.20968">
        <ele>347.4</ele>
        <time>2020-05-22T12:48:59Z</time>
      </trkpt>
      <trkpt lat="48.72857" lon="7.20968">
        <ele>347.5</ele>
        <time>2020-05-22T12:49:01Z</time>
      </trkpt>
      <trkpt lat="48.72852" lon="7.20968">
        <ele>347.6</ele>
        <time>2020-05-22T12:49:03Z</time>
      </trkpt>
      <trkpt lat="48.72848" lon="7.20968">
        <ele>347.7</ele>
        <time>2020-05-22T12:49:04Z</time>
      </trkpt>
      <trkpt lat="48.72847" lon="7.20968">
        <ele>347.7</ele>
        <time>2020-05-22T12:49:05Z</time>
      </trkpt>
      <trkpt lat="48.72844" lon="7.20967">
        <ele>347.7</ele>
        <time>2020-05-22T12:49:06Z</time>
      </trkpt>
      <trkpt lat="48.72843" lon="7.20967">
        <ele>347.7</ele>
        <time>2020-05-22T12:49:07Z</time>
      </trkpt>
      <trkpt lat="48.72839" lon="7.20966">
        <ele>347.7</ele>
        <time>2020-05-22T12:49:09Z</time>
      </trkpt>
      <trkpt lat="48.72836" lon="7.20966">
        <ele>347.7</ele>
        <time>2020-05-22T12:49:10Z</time>
      </trkpt>
      <trkpt lat="48.72835" lon="7.20966">
        <ele>347.7</ele>
        <time>2020-05-22T12:49:11Z</time>
      </trkpt>
      <trkpt lat="48.72833" lon="7.20966">
        <ele>347.8</ele>
        <time>2020-05-22T12:49:12Z</time>
      </trkpt>
      <trkpt lat="48.72829" lon="7.20965">
        <ele>347.8</ele>
        <time>2020-05-22T12:49:14Z</time>
      </trkpt>
      <trkpt lat="48.72827" lon="7.20965">
        <ele>347.9</ele>
        <time>2020-05-22T12:49:15Z</time>
      </trkpt>
      <trkpt lat="48.72822" lon="7.20964">
        <ele>347.9</ele>
        <time>2020-05-22T12:49:17Z</time>
      </trkpt>
      <trkpt lat="48.72819" lon="7.20963">
        <ele>348</ele>
        <time>2020-05-22T12:49:18Z</time>
      </trkpt>
      <trkpt lat="48.72817" lon="7.20963">
        <ele>348</ele>
        <time>2020-05-22T12:49:19Z</time>
      </trkpt>
      <trkpt lat="48.72812" lon="7.20962">
        <ele>348.1</ele>
        <time>2020-05-22T12:49:21Z</time>
      </trkpt>
      <trkpt lat="48.7281" lon="7.20962">
        <ele>348.1</ele>
        <time>2020-05-22T12:49:22Z</time>
      </trkpt>
      <trkpt lat="48.72806" lon="7.20961">
        <ele>348</ele>
        <time>2020-05-22T12:49:24Z</time>
      </trkpt>
      <trkpt lat="48.72803" lon="7.2096">
        <ele>348</ele>
        <time>2020-05-22T12:49:25Z</time>
      </trkpt>
      <trkpt lat="48.72802" lon="7.2096">
        <ele>347.9</ele>
        <time>2020-05-22T12:49:26Z</time>
      </trkpt>
      <trkpt lat="48.72797" lon="7.20961">
        <ele>347.7</ele>
        <time>2020-05-22T12:49:28Z</time>
      </trkpt>
      <trkpt lat="48.7279" lon="7.20963">
        <ele>347.9</ele>
        <time>2020-05-22T12:49:30Z</time>
      </trkpt>
      <trkpt lat="48.72784" lon="7.20965">
        <ele>348</ele>
        <time>2020-05-22T12:49:32Z</time>
      </trkpt>
      <trkpt lat="48.72781" lon="7.20966">
        <ele>348.1</ele>
        <time>2020-05-22T12:49:33Z</time>
      </trkpt>
      <trkpt lat="48.72772" lon="7.20967">
        <ele>348.1</ele>
        <time>2020-05-22T12:49:35Z</time>
      </trkpt>
      <trkpt lat="48.72769" lon="7.20967">
        <ele>348.2</ele>
        <time>2020-05-22T12:49:36Z</time>
      </trkpt>
      <trkpt lat="48.72765" lon="7.20967">
        <ele>348.2</ele>
        <time>2020-05-22T12:49:37Z</time>
      </trkpt>
      <trkpt lat="48.72762" lon="7.20968">
        <ele>348.2</ele>
        <time>2020-05-22T12:49:38Z</time>
      </trkpt>
      <trkpt lat="48.72758" lon="7.20968">
        <ele>348.2</ele>
        <time>2020-05-22T12:49:39Z</time>
      </trkpt>
      <trkpt lat="48.7275" lon="7.20972">
        <ele>348.1</ele>
        <time>2020-05-22T12:49:41Z</time>
      </trkpt>
      <trkpt lat="48.72744" lon="7.20975">
        <ele>348</ele>
        <time>2020-05-22T12:49:43Z</time>
      </trkpt>
      <trkpt lat="48.7274" lon="7.20976">
        <ele>347.9</ele>
        <time>2020-05-22T12:49:44Z</time>
      </trkpt>
      <trkpt lat="48.72736" lon="7.20976">
        <ele>347.8</ele>
        <time>2020-05-22T12:49:45Z</time>
      </trkpt>
      <trkpt lat="48.72732" lon="7.20977">
        <ele>347.7</ele>
        <time>2020-05-22T12:49:46Z</time>
      </trkpt>
      <trkpt lat="48.72721" lon="7.20979">
        <ele>347.4</ele>
        <time>2020-05-22T12:49:48Z</time>
      </trkpt>
      <trkpt lat="48.72711" lon="7.2098">
        <ele>347</ele>
        <time>2020-05-22T12:49:50Z</time>
      </trkpt>
      <trkpt lat="48.727" lon="7.20981">
        <ele>346.6</ele>
        <time>2020-05-22T12:49:52Z</time>
      </trkpt>
      <trkpt lat="48.72696" lon="7.20981">
        <ele>346.5</ele>
        <time>2020-05-22T12:49:53Z</time>
      </trkpt>
      <trkpt lat="48.72685" lon="7.20983">
        <ele>346.2</ele>
        <time>2020-05-22T12:49:55Z</time>
      </trkpt>
      <trkpt lat="48.72679" lon="7.20981">
        <ele>346.1</ele>
        <time>2020-05-22T12:49:56Z</time>
      </trkpt>
      <trkpt lat="48.72667" lon="7.20976">
        <ele>345.7</ele>
        <time>2020-05-22T12:49:58Z</time>
      </trkpt>
      <trkpt lat="48.72661" lon="7.20971">
        <ele>345.6</ele>
        <time>2020-05-22T12:49:59Z</time>
      </trkpt>
      <trkpt lat="48.72656" lon="7.20966">
        <ele>345.5</ele>
        <time>2020-05-22T12:50:01Z</time>
      </trkpt>
      <trkpt lat="48.72655" lon="7.20967">
        <ele>345.4</ele>
        <time>2020-05-22T12:50:02Z</time>
      </trkpt>
      <trkpt lat="48.72655" lon="7.20968">
        <ele>345.4</ele>
        <time>2020-05-22T12:50:03Z</time>
      </trkpt>
      <trkpt lat="48.72654" lon="7.20969">
        <ele>345.4</ele>
        <time>2020-05-22T12:50:04Z</time>
      </trkpt>
      <trkpt lat="48.7265" lon="7.2097">
        <ele>344.5</ele>
        <time>2020-05-22T12:50:06Z</time>
      </trkpt>
      <trkpt lat="48.72646" lon="7.20969">
        <ele>344.5</ele>
        <time>2020-05-22T12:50:07Z</time>
      </trkpt>
      <trkpt lat="48.72641" lon="7.20969">
        <ele>344</ele>
        <time>2020-05-22T12:50:08Z</time>
      </trkpt>
      <trkpt lat="48.72621" lon="7.2097">
        <ele>342.5</ele>
        <time>2020-05-22T12:50:10Z</time>
      </trkpt>
      <trkpt lat="48.72606" lon="7.20973">
        <ele>340.9</ele>
        <time>2020-05-22T12:50:12Z</time>
      </trkpt>
      <trkpt lat="48.72592" lon="7.2097">
        <ele>338.9</ele>
        <time>2020-05-22T12:50:14Z</time>
      </trkpt>
      <trkpt lat="48.72585" lon="7.20974">
        <ele>336.6</ele>
        <time>2020-05-22T12:50:15Z</time>
      </trkpt>
      <trkpt lat="48.72568" lon="7.20986">
        <ele>332.6</ele>
        <time>2020-05-22T12:50:17Z</time>
      </trkpt>
      <trkpt lat="48.7256" lon="7.20993">
        <ele>329.9</ele>
        <time>2020-05-22T12:50:18Z</time>
      </trkpt>
      <trkpt lat="48.72549" lon="7.21001">
        <ele>326.4</ele>
        <time>2020-05-22T12:50:20Z</time>
      </trkpt>
      <trkpt lat="48.72544" lon="7.21006">
        <ele>324.4</ele>
        <time>2020-05-22T12:50:21Z</time>
      </trkpt>
      <trkpt lat="48.7254" lon="7.21009">
        <ele>322.9</ele>
        <time>2020-05-22T12:50:22Z</time>
      </trkpt>
      <trkpt lat="48.72535" lon="7.21013">
        <ele>321.1</ele>
        <time>2020-05-22T12:50:23Z</time>
      </trkpt>
      <trkpt lat="48.72525" lon="7.21015">
        <ele>319</ele>
        <time>2020-05-22T12:50:25Z</time>
      </trkpt>
      <trkpt lat="48.72519" lon="7.21018">
        <ele>317.2</ele>
        <time>2020-05-22T12:50:27Z</time>
      </trkpt>
      <trkpt lat="48.72514" lon="7.21019">
        <ele>316.4</ele>
        <time>2020-05-22T12:50:28Z</time>
      </trkpt>
      <trkpt lat="48.72509" lon="7.21019">
        <ele>315.2</ele>
        <time>2020-05-22T12:50:29Z</time>
      </trkpt>
      <trkpt lat="48.72495" lon="7.21015">
        <ele>312.7</ele>
        <time>2020-05-22T12:50:31Z</time>
      </trkpt>
      <trkpt lat="48.72486" lon="7.21005">
        <ele>310.9</ele>
        <time>2020-05-22T12:50:33Z</time>
      </trkpt>
      <trkpt lat="48.72478" lon="7.20996">
        <ele>309.9</ele>
        <time>2020-05-22T12:50:35Z</time>
      </trkpt>
      <trkpt lat="48.72477" lon="7.20991">
        <ele>308.9</ele>
        <time>2020-05-22T12:50:36Z</time>
      </trkpt>
      <trkpt lat="48.72473" lon="7.20981">
        <ele>308.3</ele>
        <time>2020-05-22T12:50:38Z</time>
      </trkpt>
      <trkpt lat="48.72469" lon="7.20974">
        <ele>308.2</ele>
        <time>2020-05-22T12:50:39Z</time>
      </trkpt>
      <trkpt lat="48.72462" lon="7.2096">
        <ele>308</ele>
        <time>2020-05-22T12:50:41Z</time>
      </trkpt>
      <trkpt lat="48.72458" lon="7.20955">
        <ele>307.8</ele>
        <time>2020-05-22T12:50:42Z</time>
      </trkpt>
      <trkpt lat="48.72456" lon="7.20951">
        <ele>307.7</ele>
        <time>2020-05-22T12:50:43Z</time>
      </trkpt>
      <trkpt lat="48.72457" lon="7.20936">
        <ele>307.3</ele>
        <time>2020-05-22T12:50:45Z</time>
      </trkpt>
      <trkpt lat="48.72459" lon="7.20918">
        <ele>306.8</ele>
        <time>2020-05-22T12:50:47Z</time>
      </trkpt>
      <trkpt lat="48.7246" lon="7.2091">
        <ele>306.6</ele>
        <time>2020-05-22T12:50:48Z</time>
      </trkpt>
      <trkpt lat="48.72458" lon="7.209">
        <ele>306.3</ele>
        <time>2020-05-22T12:50:49Z</time>
      </trkpt>
      <trkpt lat="48.72455" lon="7.20878">
        <ele>305.3</ele>
        <time>2020-05-22T12:50:51Z</time>
      </trkpt>
      <trkpt lat="48.72457" lon="7.20861">
        <ele>304.3</ele>
        <time>2020-05-22T12:50:53Z</time>
      </trkpt>
      <trkpt lat="48.72457" lon="7.20841">
        <ele>303.2</ele>
        <time>2020-05-22T12:50:55Z</time>
      </trkpt>
      <trkpt lat="48.72456" lon="7.20822">
        <ele>302.3</ele>
        <time>2020-05-22T12:50:57Z</time>
      </trkpt>
      <trkpt lat="48.72458" lon="7.20812">
        <ele>302</ele>
        <time>2020-05-22T12:50:58Z</time>
      </trkpt>
      <trkpt lat="48.72462" lon="7.20792">
        <ele>301.4</ele>
        <time>2020-05-22T12:51:00Z</time>
      </trkpt>
      <trkpt lat="48.72463" lon="7.2078">
        <ele>301</ele>
        <time>2020-05-22T12:51:01Z</time>
      </trkpt>
      <trkpt lat="48.7247" lon="7.20762">
        <ele>300.4</ele>
        <time>2020-05-22T12:51:03Z</time>
      </trkpt>
      <trkpt lat="48.72472" lon="7.20756">
        <ele>300.1</ele>
        <time>2020-05-22T12:51:04Z</time>
      </trkpt>
      <trkpt lat="48.72474" lon="7.2075">
        <ele>299.9</ele>
        <time>2020-05-22T12:51:05Z</time>
      </trkpt>
      <trkpt lat="48.72476" lon="7.20743">
        <ele>299.6</ele>
        <time>2020-05-22T12:51:06Z</time>
      </trkpt>
      <trkpt lat="48.72479" lon="7.20727">
        <ele>299</ele>
        <time>2020-05-22T12:51:08Z</time>
      </trkpt>
      <trkpt lat="48.72481" lon="7.20719">
        <ele>298.6</ele>
        <time>2020-05-22T12:51:09Z</time>
      </trkpt>
      <trkpt lat="48.72484" lon="7.20699">
        <ele>297.7</ele>
        <time>2020-05-22T12:51:11Z</time>
      </trkpt>
      <trkpt lat="48.72486" lon="7.20688">
        <ele>297.2</ele>
        <time>2020-05-22T12:51:12Z</time>
      </trkpt>
      <trkpt lat="48.72488" lon="7.20678">
        <ele>296.7</ele>
        <time>2020-05-22T12:51:13Z</time>
      </trkpt>
      <trkpt lat="48.72489" lon="7.20669">
        <ele>296.3</ele>
        <time>2020-05-22T12:51:14Z</time>
      </trkpt>
      <trkpt lat="48.72489" lon="7.20655">
        <ele>295.7</ele>
        <time>2020-05-22T12:51:16Z</time>
      </trkpt>
      <trkpt lat="48.72492" lon="7.2064">
        <ele>295.2</ele>
        <time>2020-05-22T12:51:18Z</time>
      </trkpt>
      <trkpt lat="48.72494" lon="7.2062">
        <ele>294.5</ele>
        <time>2020-05-22T12:51:20Z</time>
      </trkpt>
      <trkpt lat="48.72499" lon="7.206">
        <ele>294</ele>
        <time>2020-05-22T12:51:22Z</time>
      </trkpt>
      <trkpt lat="48.72503" lon="7.20591">
        <ele>293.9</ele>
        <time>2020-05-22T12:51:23Z</time>
      </trkpt>
      <trkpt lat="48.72507" lon="7.20583">
        <ele>293.8</ele>
        <time>2020-05-22T12:51:24Z</time>
      </trkpt>
      <trkpt lat="48.72513" lon="7.20568">
        <ele>293.6</ele>
        <time>2020-05-22T12:51:26Z</time>
      </trkpt>
      <trkpt lat="48.72516" lon="7.20553">
        <ele>293.5</ele>
        <time>2020-05-22T12:51:28Z</time>
      </trkpt>
      <trkpt lat="48.72518" lon="7.20544">
        <ele>293.4</ele>
        <time>2020-05-22T12:51:29Z</time>
      </trkpt>
      <trkpt lat="48.72519" lon="7.20537">
        <ele>293.2</ele>
        <time>2020-05-22T12:51:30Z</time>
      </trkpt>
      <trkpt lat="48.72524" lon="7.20526">
        <ele>293</ele>
        <time>2020-05-22T12:51:32Z</time>
      </trkpt>
      <trkpt lat="48.72527" lon="7.2052">
        <ele>292.9</ele>
        <time>2020-05-22T12:51:33Z</time>
      </trkpt>
      <trkpt lat="48.7253" lon="7.20505">
        <ele>292.7</ele>
        <time>2020-05-22T12:51:35Z</time>
      </trkpt>
      <trkpt lat="48.7253" lon="7.20496">
        <ele>292.6</ele>
        <time>2020-05-22T12:51:36Z</time>
      </trkpt>
      <trkpt lat="48.72533" lon="7.20482">
        <ele>292.4</ele>
        <time>2020-05-22T12:51:38Z</time>
      </trkpt>
      <trkpt lat="48.72534" lon="7.20474">
        <ele>292.3</ele>
        <time>2020-05-22T12:51:39Z</time>
      </trkpt>
      <trkpt lat="48.72536" lon="7.20458">
        <ele>292.1</ele>
        <time>2020-05-22T12:51:41Z</time>
      </trkpt>
      <trkpt lat="48.72537" lon="7.2045">
        <ele>291.9</ele>
        <time>2020-05-22T12:51:42Z</time>
      </trkpt>
      <trkpt lat="48.72537" lon="7.2044">
        <ele>291.6</ele>
        <time>2020-05-22T12:51:43Z</time>
      </trkpt>
      <trkpt lat="48.7254" lon="7.2042">
        <ele>291.1</ele>
        <time>2020-05-22T12:51:45Z</time>
      </trkpt>
      <trkpt lat="48.72542" lon="7.2041">
        <ele>290.9</ele>
        <time>2020-05-22T12:51:46Z</time>
      </trkpt>
      <trkpt lat="48.72543" lon="7.20389">
        <ele>290.8</ele>
        <time>2020-05-22T12:51:48Z</time>
      </trkpt>
      <trkpt lat="48.72544" lon="7.2038">
        <ele>290.9</ele>
        <time>2020-05-22T12:51:49Z</time>
      </trkpt>
      <trkpt lat="48.72546" lon="7.20372">
        <ele>291</ele>
        <time>2020-05-22T12:51:50Z</time>
      </trkpt>
      <trkpt lat="48.72547" lon="7.20363">
        <ele>291.1</ele>
        <time>2020-05-22T12:51:51Z</time>
      </trkpt>
      <trkpt lat="48.72549" lon="7.20347">
        <ele>291.4</ele>
        <time>2020-05-22T12:51:53Z</time>
      </trkpt>
      <trkpt lat="48.72551" lon="7.2034">
        <ele>291.6</ele>
        <time>2020-05-22T12:51:54Z</time>
      </trkpt>
      <trkpt lat="48.72551" lon="7.20334">
        <ele>291.8</ele>
        <time>2020-05-22T12:51:55Z</time>
      </trkpt>
      <trkpt lat="48.72552" lon="7.20329">
        <ele>292</ele>
        <time>2020-05-22T12:51:56Z</time>
      </trkpt>
      <trkpt lat="48.72553" lon="7.20322">
        <ele>292.2</ele>
        <time>2020-05-22T12:51:58Z</time>
      </trkpt>
      <trkpt lat="48.72553" lon="7.20317">
        <ele>292.4</ele>
        <time>2020-05-22T12:51:59Z</time>
      </trkpt>
      <trkpt lat="48.72554" lon="7.20308">
        <ele>292.7</ele>
        <time>2020-05-22T12:52:01Z</time>
      </trkpt>
      <trkpt lat="48.72554" lon="7.203">
        <ele>292.8</ele>
        <time>2020-05-22T12:52:03Z</time>
      </trkpt>
      <trkpt lat="48.72553" lon="7.20297">
        <ele>292.9</ele>
        <time>2020-05-22T12:52:04Z</time>
      </trkpt>
      <trkpt lat="48.72552" lon="7.20287">
        <ele>293</ele>
        <time>2020-05-22T12:52:06Z</time>
      </trkpt>
      <trkpt lat="48.72551" lon="7.20283">
        <ele>293</ele>
        <time>2020-05-22T12:52:07Z</time>
      </trkpt>
      <trkpt lat="48.7255" lon="7.20273">
        <ele>293</ele>
        <time>2020-05-22T12:52:09Z</time>
      </trkpt>
      <trkpt lat="48.72548" lon="7.20262">
        <ele>293</ele>
        <time>2020-05-22T12:52:11Z</time>
      </trkpt>
      <trkpt lat="48.72546" lon="7.20256">
        <ele>293</ele>
        <time>2020-05-22T12:52:12Z</time>
      </trkpt>
      <trkpt lat="48.72544" lon="7.20245">
        <ele>293.1</ele>
        <time>2020-05-22T12:52:14Z</time>
      </trkpt>
      <trkpt lat="48.72543" lon="7.20239">
        <ele>293.2</ele>
        <time>2020-05-22T12:52:15Z</time>
      </trkpt>
      <trkpt lat="48.72543" lon="7.20233">
        <ele>293.2</ele>
        <time>2020-05-22T12:52:16Z</time>
      </trkpt>
      <trkpt lat="48.72544" lon="7.20224">
        <ele>293.3</ele>
        <time>2020-05-22T12:52:18Z</time>
      </trkpt>
      <trkpt lat="48.72544" lon="7.20217">
        <ele>293.4</ele>
        <time>2020-05-22T12:52:19Z</time>
      </trkpt>
      <trkpt lat="48.72544" lon="7.20206">
        <ele>293.6</ele>
        <time>2020-05-22T12:52:21Z</time>
      </trkpt>
      <trkpt lat="48.72544" lon="7.202">
        <ele>293.7</ele>
        <time>2020-05-22T12:52:22Z</time>
      </trkpt>
      <trkpt lat="48.72543" lon="7.20195">
        <ele>293.7</ele>
        <time>2020-05-22T12:52:23Z</time>
      </trkpt>
      <trkpt lat="48.72542" lon="7.20186">
        <ele>293.9</ele>
        <time>2020-05-22T12:52:25Z</time>
      </trkpt>
      <trkpt lat="48.7254" lon="7.20174">
        <ele>294</ele>
        <time>2020-05-22T12:52:27Z</time>
      </trkpt>
      <trkpt lat="48.72538" lon="7.20164">
        <ele>293.8</ele>
        <time>2020-05-22T12:52:29Z</time>
      </trkpt>
      <trkpt lat="48.72538" lon="7.20159">
        <ele>293.7</ele>
        <time>2020-05-22T12:52:30Z</time>
      </trkpt>
      <trkpt lat="48.72537" lon="7.20158">
        <ele>293.7</ele>
        <time>2020-05-22T12:52:32Z</time>
      </trkpt>
      <trkpt lat="48.72536" lon="7.20157">
        <ele>293.6</ele>
        <time>2020-05-22T12:52:34Z</time>
      </trkpt>
      <trkpt lat="48.72536" lon="7.20156">
        <ele>293.6</ele>
        <time>2020-05-22T12:52:35Z</time>
      </trkpt>
      <trkpt lat="48.72535" lon="7.20155">
        <ele>293.6</ele>
        <time>2020-05-22T12:52:37Z</time>
      </trkpt>
      <trkpt lat="48.72535" lon="7.20154">
        <ele>293.5</ele>
        <time>2020-05-22T12:52:38Z</time>
      </trkpt>
      <trkpt lat="48.72534" lon="7.20153">
        <ele>293.5</ele>
        <time>2020-05-22T12:52:39Z</time>
      </trkpt>
      <trkpt lat="48.72534" lon="7.20153">
        <ele>293.5</ele>
        <time>2020-05-22T12:52:42Z</time>
      </trkpt>
      <trkpt lat="48.72533" lon="7.20152">
        <ele>293.4</ele>
        <time>2020-05-22T12:52:59Z</time>
      </trkpt>
      <trkpt lat="48.72533" lon="7.20151">
        <ele>293.4</ele>
        <time>2020-05-22T12:53:00Z</time>
      </trkpt>
      <trkpt lat="48.72532" lon="7.2015">
        <ele>293.4</ele>
        <time>2020-05-22T12:53:01Z</time>
      </trkpt>
      <trkpt lat="48.72529" lon="7.20142">
        <ele>293.2</ele>
        <time>2020-05-22T12:53:03Z</time>
      </trkpt>
      <trkpt lat="48.7253" lon="7.20132">
        <ele>292.9</ele>
        <time>2020-05-22T12:53:05Z</time>
      </trkpt>
      <trkpt lat="48.72531" lon="7.20127">
        <ele>292.7</ele>
        <time>2020-05-22T12:53:06Z</time>
      </trkpt>
      <trkpt lat="48.72526" lon="7.20115">
        <ele>292.1</ele>
        <time>2020-05-22T12:53:08Z</time>
      </trkpt>
      <trkpt lat="48.72525" lon="7.20112">
        <ele>291.9</ele>
        <time>2020-05-22T12:53:09Z</time>
      </trkpt>
      <trkpt lat="48.72521" lon="7.201">
        <ele>291.2</ele>
        <time>2020-05-22T12:53:11Z</time>
      </trkpt>
      <trkpt lat="48.72517" lon="7.20085">
        <ele>290.3</ele>
        <time>2020-05-22T12:53:13Z</time>
      </trkpt>
      <trkpt lat="48.72515" lon="7.20078">
        <ele>289.8</ele>
        <time>2020-05-22T12:53:14Z</time>
      </trkpt>
      <trkpt lat="48.72515" lon="7.20069">
        <ele>289.3</ele>
        <time>2020-05-22T12:53:15Z</time>
      </trkpt>
      <trkpt lat="48.72515" lon="7.20059">
        <ele>288.7</ele>
        <time>2020-05-22T12:53:16Z</time>
      </trkpt>
      <trkpt lat="48.72514" lon="7.20041">
        <ele>287.7</ele>
        <time>2020-05-22T12:53:18Z</time>
      </trkpt>
      <trkpt lat="48.72514" lon="7.20023">
        <ele>286.8</ele>
        <time>2020-05-22T12:53:20Z</time>
      </trkpt>
      <trkpt lat="48.72514" lon="7.20015">
        <ele>286.2</ele>
        <time>2020-05-22T12:53:21Z</time>
      </trkpt>
      <trkpt lat="48.72515" lon="7.20008">
        <ele>285.8</ele>
        <time>2020-05-22T12:53:22Z</time>
      </trkpt>
      <trkpt lat="48.72519" lon="7.19997">
        <ele>285.1</ele>
        <time>2020-05-22T12:53:24Z</time>
      </trkpt>
      <trkpt lat="48.72522" lon="7.19994">
        <ele>284.8</ele>
        <time>2020-05-22T12:53:25Z</time>
      </trkpt>
      <trkpt lat="48.72531" lon="7.19987">
        <ele>283.9</ele>
        <time>2020-05-22T12:53:27Z</time>
      </trkpt>
      <trkpt lat="48.72538" lon="7.19978">
        <ele>283.3</ele>
        <time>2020-05-22T12:53:29Z</time>
      </trkpt>
      <trkpt lat="48.72543" lon="7.19974">
        <ele>282.9</ele>
        <time>2020-05-22T12:53:30Z</time>
      </trkpt>
      <trkpt lat="48.72553" lon="7.19965">
        <ele>281.9</ele>
        <time>2020-05-22T12:53:32Z</time>
      </trkpt>
      <trkpt lat="48.72556" lon="7.19958">
        <ele>281.5</ele>
        <time>2020-05-22T12:53:33Z</time>
      </trkpt>
      <trkpt lat="48.7256" lon="7.19951">
        <ele>281</ele>
        <time>2020-05-22T12:53:34Z</time>
      </trkpt>
      <trkpt lat="48.72567" lon="7.19933">
        <ele>280</ele>
        <time>2020-05-22T12:53:36Z</time>
      </trkpt>
      <trkpt lat="48.7257" lon="7.19926">
        <ele>279.6</ele>
        <time>2020-05-22T12:53:37Z</time>
      </trkpt>
      <trkpt lat="48.72576" lon="7.19915">
        <ele>278.9</ele>
        <time>2020-05-22T12:53:39Z</time>
      </trkpt>
      <trkpt lat="48.72582" lon="7.19906">
        <ele>278.2</ele>
        <time>2020-05-22T12:53:41Z</time>
      </trkpt>
      <trkpt lat="48.72591" lon="7.19898">
        <ele>277.4</ele>
        <time>2020-05-22T12:53:43Z</time>
      </trkpt>
      <trkpt lat="48.72598" lon="7.19884">
        <ele>276.5</ele>
        <time>2020-05-22T12:53:45Z</time>
      </trkpt>
      <trkpt lat="48.72604" lon="7.19874">
        <ele>275.7</ele>
        <time>2020-05-22T12:53:47Z</time>
      </trkpt>
      <trkpt lat="48.7261" lon="7.19869">
        <ele>275</ele>
        <time>2020-05-22T12:53:49Z</time>
      </trkpt>
      <trkpt lat="48.72615" lon="7.19867">
        <ele>274.4</ele>
        <time>2020-05-22T12:53:50Z</time>
      </trkpt>
      <trkpt lat="48.72619" lon="7.19855">
        <ele>273.4</ele>
        <time>2020-05-22T12:53:52Z</time>
      </trkpt>
      <trkpt lat="48.7262" lon="7.19842">
        <ele>272.1</ele>
        <time>2020-05-22T12:53:54Z</time>
      </trkpt>
      <trkpt lat="48.7262" lon="7.19835">
        <ele>271.3</ele>
        <time>2020-05-22T12:53:55Z</time>
      </trkpt>
      <trkpt lat="48.72619" lon="7.19829">
        <ele>269.3</ele>
        <time>2020-05-22T12:53:56Z</time>
      </trkpt>
      <trkpt lat="48.7261" lon="7.19821">
        <ele>267.6</ele>
        <time>2020-05-22T12:53:58Z</time>
      </trkpt>
      <trkpt lat="48.72602" lon="7.19811">
        <ele>266</ele>
        <time>2020-05-22T12:54:00Z</time>
      </trkpt>
      <trkpt lat="48.72598" lon="7.19806">
        <ele>265.4</ele>
        <time>2020-05-22T12:54:01Z</time>
      </trkpt>
      <trkpt lat="48.72589" lon="7.19806">
        <ele>264.1</ele>
        <time>2020-05-22T12:54:03Z</time>
      </trkpt>
      <trkpt lat="48.72582" lon="7.1981">
        <ele>263.2</ele>
        <time>2020-05-22T12:54:04Z</time>
      </trkpt>
      <trkpt lat="48.72575" lon="7.19811">
        <ele>262.5</ele>
        <time>2020-05-22T12:54:05Z</time>
      </trkpt>
      <trkpt lat="48.72568" lon="7.19811">
        <ele>261.7</ele>
        <time>2020-05-22T12:54:06Z</time>
      </trkpt>
      <trkpt lat="48.72559" lon="7.19813">
        <ele>261</ele>
        <time>2020-05-22T12:54:08Z</time>
      </trkpt>
      <trkpt lat="48.7255" lon="7.19812">
        <ele>260.2</ele>
        <time>2020-05-22T12:54:10Z</time>
      </trkpt>
      <trkpt lat="48.72544" lon="7.1981">
        <ele>259.8</ele>
        <time>2020-05-22T12:54:11Z</time>
      </trkpt>
      <trkpt lat="48.72539" lon="7.19806">
        <ele>259.4</ele>
        <time>2020-05-22T12:54:12Z</time>
      </trkpt>
      <trkpt lat="48.72534" lon="7.19804">
        <ele>259.1</ele>
        <time>2020-05-22T12:54:13Z</time>
      </trkpt>
      <trkpt lat="48.72528" lon="7.19797">
        <ele>258.6</ele>
        <time>2020-05-22T12:54:15Z</time>
      </trkpt>
      <trkpt lat="48.72526" lon="7.19797">
        <ele>258.5</ele>
        <time>2020-05-22T12:54:16Z</time>
      </trkpt>
      <trkpt lat="48.72523" lon="7.19799">
        <ele>258.2</ele>
        <time>2020-05-22T12:54:18Z</time>
      </trkpt>
      <trkpt lat="48.72518" lon="7.19807">
        <ele>257.7</ele>
        <time>2020-05-22T12:54:20Z</time>
      </trkpt>
      <trkpt lat="48.72516" lon="7.19812">
        <ele>257.3</ele>
        <time>2020-05-22T12:54:21Z</time>
      </trkpt>
      <trkpt lat="48.7251" lon="7.1982">
        <ele>256.6</ele>
        <time>2020-05-22T12:54:23Z</time>
      </trkpt>
      <trkpt lat="48.72507" lon="7.1982">
        <ele>256.2</ele>
        <time>2020-05-22T12:54:24Z</time>
      </trkpt>
      <trkpt lat="48.72501" lon="7.19818">
        <ele>255</ele>
        <time>2020-05-22T12:54:26Z</time>
      </trkpt>
      <trkpt lat="48.72499" lon="7.19818">
        <ele>254.7</ele>
        <time>2020-05-22T12:54:27Z</time>
      </trkpt>
      <trkpt lat="48.72497" lon="7.19819">
        <ele>254.3</ele>
        <time>2020-05-22T12:54:29Z</time>
      </trkpt>
      <trkpt lat="48.72495" lon="7.19819">
        <ele>254.1</ele>
        <time>2020-05-22T12:54:30Z</time>
      </trkpt>
      <trkpt lat="48.72494" lon="7.1982">
        <ele>253.8</ele>
        <time>2020-05-22T12:54:31Z</time>
      </trkpt>
      <trkpt lat="48.72492" lon="7.19821">
        <ele>253.6</ele>
        <time>2020-05-22T12:54:32Z</time>
      </trkpt>
      <trkpt lat="48.72486" lon="7.1982">
        <ele>250.4</ele>
        <time>2020-05-22T12:54:34Z</time>
      </trkpt>
      <trkpt lat="48.72482" lon="7.19812">
        <ele>250.6</ele>
        <time>2020-05-22T12:54:36Z</time>
      </trkpt>
      <trkpt lat="48.72481" lon="7.19801">
        <ele>250.6</ele>
        <time>2020-05-22T12:54:38Z</time>
      </trkpt>
      <trkpt lat="48.72479" lon="7.19791">
        <ele>250.7</ele>
        <time>2020-05-22T12:54:40Z</time>
      </trkpt>
      <trkpt lat="48.72478" lon="7.19786">
        <ele>250.7</ele>
        <time>2020-05-22T12:54:41Z</time>
      </trkpt>
      <trkpt lat="48.72476" lon="7.1978">
        <ele>250.7</ele>
        <time>2020-05-22T12:54:42Z</time>
      </trkpt>
      <trkpt lat="48.72473" lon="7.1977">
        <ele>250.7</ele>
        <time>2020-05-22T12:54:44Z</time>
      </trkpt>
      <trkpt lat="48.72471" lon="7.19765">
        <ele>250.8</ele>
        <time>2020-05-22T12:54:45Z</time>
      </trkpt>
      <trkpt lat="48.72467" lon="7.19754">
        <ele>250.8</ele>
        <time>2020-05-22T12:54:47Z</time>
      </trkpt>
      <trkpt lat="48.72464" lon="7.19743">
        <ele>250.9</ele>
        <time>2020-05-22T12:54:49Z</time>
      </trkpt>
      <trkpt lat="48.72461" lon="7.19731">
        <ele>250.9</ele>
        <time>2020-05-22T12:54:51Z</time>
      </trkpt>
      <trkpt lat="48.72458" lon="7.19719">
        <ele>251</ele>
        <time>2020-05-22T12:54:53Z</time>
      </trkpt>
      <trkpt lat="48.72456" lon="7.19713">
        <ele>251</ele>
        <time>2020-05-22T12:54:54Z</time>
      </trkpt>
      <trkpt lat="48.72454" lon="7.19707">
        <ele>251</ele>
        <time>2020-05-22T12:54:55Z</time>
      </trkpt>
      <trkpt lat="48.72449" lon="7.19696">
        <ele>251.1</ele>
        <time>2020-05-22T12:54:57Z</time>
      </trkpt>
      <trkpt lat="48.72445" lon="7.19685">
        <ele>251.2</ele>
        <time>2020-05-22T12:54:59Z</time>
      </trkpt>
      <trkpt lat="48.72443" lon="7.19679">
        <ele>251.3</ele>
        <time>2020-05-22T12:55:00Z</time>
      </trkpt>
      <trkpt lat="48.7244" lon="7.19669">
        <ele>251.5</ele>
        <time>2020-05-22T12:55:02Z</time>
      </trkpt>
      <trkpt lat="48.72437" lon="7.19659">
        <ele>251.8</ele>
        <time>2020-05-22T12:55:04Z</time>
      </trkpt>
      <trkpt lat="48.72436" lon="7.19655">
        <ele>251.9</ele>
        <time>2020-05-22T12:55:05Z</time>
      </trkpt>
      <trkpt lat="48.72436" lon="7.1965">
        <ele>252</ele>
        <time>2020-05-22T12:55:06Z</time>
      </trkpt>
      <trkpt lat="48.72435" lon="7.19643">
        <ele>252.2</ele>
        <time>2020-05-22T12:55:08Z</time>
      </trkpt>
      <trkpt lat="48.72433" lon="7.19635">
        <ele>252.5</ele>
        <time>2020-05-22T12:55:10Z</time>
      </trkpt>
      <trkpt lat="48.72433" lon="7.19632">
        <ele>252.5</ele>
        <time>2020-05-22T12:55:11Z</time>
      </trkpt>
      <trkpt lat="48.7243" lon="7.19625">
        <ele>252.7</ele>
        <time>2020-05-22T12:55:13Z</time>
      </trkpt>
      <trkpt lat="48.72429" lon="7.19622">
        <ele>252.7</ele>
        <time>2020-05-22T12:55:14Z</time>
      </trkpt>
      <trkpt lat="48.72428" lon="7.19615">
        <ele>252.8</ele>
        <time>2020-05-22T12:55:16Z</time>
      </trkpt>
      <trkpt lat="48.72427" lon="7.1961">
        <ele>252.8</ele>
        <time>2020-05-22T12:55:17Z</time>
      </trkpt>
      <trkpt lat="48.72426" lon="7.19605">
        <ele>252.8</ele>
        <time>2020-05-22T12:55:18Z</time>
      </trkpt>
      <trkpt lat="48.72425" lon="7.19601">
        <ele>252.8</ele>
        <time>2020-05-22T12:55:19Z</time>
      </trkpt>
      <trkpt lat="48.72423" lon="7.19593">
        <ele>252.8</ele>
        <time>2020-05-22T12:55:21Z</time>
      </trkpt>
      <trkpt lat="48.72421" lon="7.19589">
        <ele>252.8</ele>
        <time>2020-05-22T12:55:22Z</time>
      </trkpt>
      <trkpt lat="48.72419" lon="7.19585">
        <ele>252.8</ele>
        <time>2020-05-22T12:55:23Z</time>
      </trkpt>
      <trkpt lat="48.72417" lon="7.19577">
        <ele>252.8</ele>
        <time>2020-05-22T12:55:25Z</time>
      </trkpt>
      <trkpt lat="48.72416" lon="7.19573">
        <ele>252.8</ele>
        <time>2020-05-22T12:55:26Z</time>
      </trkpt>
      <trkpt lat="48.72414" lon="7.19564">
        <ele>252.9</ele>
        <time>2020-05-22T12:55:28Z</time>
      </trkpt>
      <trkpt lat="48.72413" lon="7.1956">
        <ele>252.9</ele>
        <time>2020-05-22T12:55:29Z</time>
      </trkpt>
      <trkpt lat="48.7241" lon="7.19552">
        <ele>252.9</ele>
        <time>2020-05-22T12:55:31Z</time>
      </trkpt>
      <trkpt lat="48.72409" lon="7.19545">
        <ele>252.9</ele>
        <time>2020-05-22T12:55:33Z</time>
      </trkpt>
      <trkpt lat="48.72409" lon="7.19534">
        <ele>252.9</ele>
        <time>2020-05-22T12:55:35Z</time>
      </trkpt>
      <trkpt lat="48.72409" lon="7.19531">
        <ele>252.9</ele>
        <time>2020-05-22T12:55:36Z</time>
      </trkpt>
      <trkpt lat="48.72407" lon="7.19522">
        <ele>252.9</ele>
        <time>2020-05-22T12:55:38Z</time>
      </trkpt>
      <trkpt lat="48.72405" lon="7.19518">
        <ele>252.9</ele>
        <time>2020-05-22T12:55:39Z</time>
      </trkpt>
      <trkpt lat="48.72404" lon="7.19513">
        <ele>252.9</ele>
        <time>2020-05-22T12:55:40Z</time>
      </trkpt>
      <trkpt lat="48.72402" lon="7.19503">
        <ele>252.9</ele>
        <time>2020-05-22T12:55:42Z</time>
      </trkpt>
      <trkpt lat="48.724" lon="7.19492">
        <ele>252.9</ele>
        <time>2020-05-22T12:55:44Z</time>
      </trkpt>
      <trkpt lat="48.72399" lon="7.19487">
        <ele>252.9</ele>
        <time>2020-05-22T12:55:45Z</time>
      </trkpt>
      <trkpt lat="48.72396" lon="7.19476">
        <ele>252.9</ele>
        <time>2020-05-22T12:55:47Z</time>
      </trkpt>
      <trkpt lat="48.72394" lon="7.1947">
        <ele>252.9</ele>
        <time>2020-05-22T12:55:48Z</time>
      </trkpt>
      <trkpt lat="48.72393" lon="7.19461">
        <ele>252.9</ele>
        <time>2020-05-22T12:55:50Z</time>
      </trkpt>
      <trkpt lat="48.72392" lon="7.19456">
        <ele>252.9</ele>
        <time>2020-05-22T12:55:51Z</time>
      </trkpt>
      <trkpt lat="48.72392" lon="7.19451">
        <ele>252.9</ele>
        <time>2020-05-22T12:55:52Z</time>
      </trkpt>
      <trkpt lat="48.72391" lon="7.1944">
        <ele>252.9</ele>
        <time>2020-05-22T12:55:54Z</time>
      </trkpt>
      <trkpt lat="48.72391" lon="7.1943">
        <ele>252.9</ele>
        <time>2020-05-22T12:55:56Z</time>
      </trkpt>
      <trkpt lat="48.7239" lon="7.19425">
        <ele>253</ele>
        <time>2020-05-22T12:55:57Z</time>
      </trkpt>
      <trkpt lat="48.7239" lon="7.19416">
        <ele>253</ele>
        <time>2020-05-22T12:55:59Z</time>
      </trkpt>
      <trkpt lat="48.7239" lon="7.19411">
        <ele>253</ele>
        <time>2020-05-22T12:56:00Z</time>
      </trkpt>
      <trkpt lat="48.7239" lon="7.19406">
        <ele>253.1</ele>
        <time>2020-05-22T12:56:01Z</time>
      </trkpt>
      <trkpt lat="48.7239" lon="7.19396">
        <ele>253.2</ele>
        <time>2020-05-22T12:56:03Z</time>
      </trkpt>
      <trkpt lat="48.7239" lon="7.19386">
        <ele>253.4</ele>
        <time>2020-05-22T12:56:05Z</time>
      </trkpt>
      <trkpt lat="48.7239" lon="7.19381">
        <ele>253.5</ele>
        <time>2020-05-22T12:56:06Z</time>
      </trkpt>
      <trkpt lat="48.7239" lon="7.19372">
        <ele>253.7</ele>
        <time>2020-05-22T12:56:08Z</time>
      </trkpt>
      <trkpt lat="48.72389" lon="7.19368">
        <ele>253.8</ele>
        <time>2020-05-22T12:56:09Z</time>
      </trkpt>
      <trkpt lat="48.7239" lon="7.19362">
        <ele>254</ele>
        <time>2020-05-22T12:56:11Z</time>
      </trkpt>
      <trkpt lat="48.72391" lon="7.19356">
        <ele>254.2</ele>
        <time>2020-05-22T12:56:13Z</time>
      </trkpt>
      <trkpt lat="48.72391" lon="7.19352">
        <ele>254.3</ele>
        <time>2020-05-22T12:56:14Z</time>
      </trkpt>
      <trkpt lat="48.72392" lon="7.19345">
        <ele>254.5</ele>
        <time>2020-05-22T12:56:16Z</time>
      </trkpt>
      <trkpt lat="48.72391" lon="7.19339">
        <ele>254.6</ele>
        <time>2020-05-22T12:56:18Z</time>
      </trkpt>
      <trkpt lat="48.7239" lon="7.19336">
        <ele>254.7</ele>
        <time>2020-05-22T12:56:19Z</time>
      </trkpt>
      <trkpt lat="48.7239" lon="7.19329">
        <ele>254.8</ele>
        <time>2020-05-22T12:56:21Z</time>
      </trkpt>
      <trkpt lat="48.7239" lon="7.19323">
        <ele>254.9</ele>
        <time>2020-05-22T12:56:22Z</time>
      </trkpt>
      <trkpt lat="48.7239" lon="7.19321">
        <ele>255</ele>
        <time>2020-05-22T12:56:23Z</time>
      </trkpt>
      <trkpt lat="48.7239" lon="7.19312">
        <ele>255</ele>
        <time>2020-05-22T12:56:25Z</time>
      </trkpt>
      <trkpt lat="48.7239" lon="7.19307">
        <ele>255.1</ele>
        <time>2020-05-22T12:56:26Z</time>
      </trkpt>
      <trkpt lat="48.72391" lon="7.193">
        <ele>255.1</ele>
        <time>2020-05-22T12:56:28Z</time>
      </trkpt>
      <trkpt lat="48.72392" lon="7.19292">
        <ele>255.2</ele>
        <time>2020-05-22T12:56:30Z</time>
      </trkpt>
      <trkpt lat="48.72393" lon="7.19282">
        <ele>255.2</ele>
        <time>2020-05-22T12:56:32Z</time>
      </trkpt>
      <trkpt lat="48.72392" lon="7.19273">
        <ele>255.2</ele>
        <time>2020-05-22T12:56:34Z</time>
      </trkpt>
      <trkpt lat="48.72391" lon="7.1927">
        <ele>255.2</ele>
        <time>2020-05-22T12:56:35Z</time>
      </trkpt>
      <trkpt lat="48.7239" lon="7.19261">
        <ele>255.2</ele>
        <time>2020-05-22T12:56:37Z</time>
      </trkpt>
      <trkpt lat="48.7239" lon="7.19257">
        <ele>255.2</ele>
        <time>2020-05-22T12:56:38Z</time>
      </trkpt>
      <trkpt lat="48.72389" lon="7.19249">
        <ele>255.2</ele>
        <time>2020-05-22T12:56:40Z</time>
      </trkpt>
      <trkpt lat="48.72388" lon="7.19243">
        <ele>255.2</ele>
        <time>2020-05-22T12:56:41Z</time>
      </trkpt>
      <trkpt lat="48.72387" lon="7.19238">
        <ele>255.1</ele>
        <time>2020-05-22T12:56:42Z</time>
      </trkpt>
      <trkpt lat="48.72386" lon="7.19228">
        <ele>255.1</ele>
        <time>2020-05-22T12:56:44Z</time>
      </trkpt>
      <trkpt lat="48.72385" lon="7.19224">
        <ele>255.1</ele>
        <time>2020-05-22T12:56:45Z</time>
      </trkpt>
      <trkpt lat="48.72385" lon="7.19213">
        <ele>255.1</ele>
        <time>2020-05-22T12:56:47Z</time>
      </trkpt>
      <trkpt lat="48.72386" lon="7.19202">
        <ele>255.1</ele>
        <time>2020-05-22T12:56:49Z</time>
      </trkpt>
      <trkpt lat="48.72386" lon="7.19192">
        <ele>255.1</ele>
        <time>2020-05-22T12:56:51Z</time>
      </trkpt>
      <trkpt lat="48.72386" lon="7.19186">
        <ele>255.1</ele>
        <time>2020-05-22T12:56:52Z</time>
      </trkpt>
      <trkpt lat="48.72388" lon="7.19175">
        <ele>255.1</ele>
        <time>2020-05-22T12:56:54Z</time>
      </trkpt>
      <trkpt lat="48.72389" lon="7.1917">
        <ele>255.1</ele>
        <time>2020-05-22T12:56:55Z</time>
      </trkpt>
      <trkpt lat="48.7239" lon="7.19158">
        <ele>255.2</ele>
        <time>2020-05-22T12:56:57Z</time>
      </trkpt>
      <trkpt lat="48.7239" lon="7.19153">
        <ele>255.2</ele>
        <time>2020-05-22T12:56:58Z</time>
      </trkpt>
      <trkpt lat="48.72391" lon="7.19142">
        <ele>255.2</ele>
        <time>2020-05-22T12:57:00Z</time>
      </trkpt>
      <trkpt lat="48.72391" lon="7.19137">
        <ele>255.2</ele>
        <time>2020-05-22T12:57:01Z</time>
      </trkpt>
      <trkpt lat="48.72393" lon="7.19126">
        <ele>255.3</ele>
        <time>2020-05-22T12:57:03Z</time>
      </trkpt>
      <trkpt lat="48.72394" lon="7.1912">
        <ele>255.3</ele>
        <time>2020-05-22T12:57:04Z</time>
      </trkpt>
      <trkpt lat="48.72395" lon="7.19109">
        <ele>255.3</ele>
        <time>2020-05-22T12:57:06Z</time>
      </trkpt>
      <trkpt lat="48.72396" lon="7.19097">
        <ele>255.4</ele>
        <time>2020-05-22T12:57:08Z</time>
      </trkpt>
      <trkpt lat="48.72398" lon="7.19085">
        <ele>255.4</ele>
        <time>2020-05-22T12:57:10Z</time>
      </trkpt>
      <trkpt lat="48.72399" lon="7.19079">
        <ele>255.5</ele>
        <time>2020-05-22T12:57:11Z</time>
      </trkpt>
      <trkpt lat="48.72399" lon="7.19067">
        <ele>255.6</ele>
        <time>2020-05-22T12:57:13Z</time>
      </trkpt>
      <trkpt lat="48.72401" lon="7.19055">
        <ele>255.7</ele>
        <time>2020-05-22T12:57:15Z</time>
      </trkpt>
      <trkpt lat="48.72403" lon="7.19043">
        <ele>256</ele>
        <time>2020-05-22T12:57:17Z</time>
      </trkpt>
      <trkpt lat="48.72404" lon="7.19032">
        <ele>256.3</ele>
        <time>2020-05-22T12:57:19Z</time>
      </trkpt>
      <trkpt lat="48.72406" lon="7.19022">
        <ele>256.6</ele>
        <time>2020-05-22T12:57:21Z</time>
      </trkpt>
      <trkpt lat="48.72408" lon="7.19011">
        <ele>257</ele>
        <time>2020-05-22T12:57:23Z</time>
      </trkpt>
      <trkpt lat="48.72409" lon="7.19006">
        <ele>257.1</ele>
        <time>2020-05-22T12:57:24Z</time>
      </trkpt>
      <trkpt lat="48.72411" lon="7.18997">
        <ele>257.3</ele>
        <time>2020-05-22T12:57:26Z</time>
      </trkpt>
      <trkpt lat="48.72413" lon="7.18987">
        <ele>257.5</ele>
        <time>2020-05-22T12:57:28Z</time>
      </trkpt>
      <trkpt lat="48.72416" lon="7.18978">
        <ele>257.6</ele>
        <time>2020-05-22T12:57:30Z</time>
      </trkpt>
      <trkpt lat="48.72417" lon="7.18973">
        <ele>257.6</ele>
        <time>2020-05-22T12:57:31Z</time>
      </trkpt>
      <trkpt lat="48.72419" lon="7.18964">
        <ele>257.6</ele>
        <time>2020-05-22T12:57:33Z</time>
      </trkpt>
      <trkpt lat="48.7242" lon="7.18959">
        <ele>257.6</ele>
        <time>2020-05-22T12:57:34Z</time>
      </trkpt>
      <trkpt lat="48.72422" lon="7.1895">
        <ele>257.6</ele>
        <time>2020-05-22T12:57:36Z</time>
      </trkpt>
      <trkpt lat="48.72424" lon="7.1894">
        <ele>257.6</ele>
        <time>2020-05-22T12:57:38Z</time>
      </trkpt>
      <trkpt lat="48.72426" lon="7.1893">
        <ele>257.6</ele>
        <time>2020-05-22T12:57:40Z</time>
      </trkpt>
      <trkpt lat="48.72427" lon="7.18925">
        <ele>257.6</ele>
        <time>2020-05-22T12:57:41Z</time>
      </trkpt>
      <trkpt lat="48.72429" lon="7.18915">
        <ele>257.6</ele>
        <time>2020-05-22T12:57:43Z</time>
      </trkpt>
      <trkpt lat="48.72431" lon="7.18904">
        <ele>257.6</ele>
        <time>2020-05-22T12:57:45Z</time>
      </trkpt>
      <trkpt lat="48.72432" lon="7.18899">
        <ele>257.6</ele>
        <time>2020-05-22T12:57:46Z</time>
      </trkpt>
      <trkpt lat="48.72432" lon="7.18893">
        <ele>257.6</ele>
        <time>2020-05-22T12:57:47Z</time>
      </trkpt>
      <trkpt lat="48.72434" lon="7.18888">
        <ele>257.6</ele>
        <time>2020-05-22T12:57:48Z</time>
      </trkpt>
      <trkpt lat="48.72434" lon="7.18882">
        <ele>257.6</ele>
        <time>2020-05-22T12:57:49Z</time>
      </trkpt>
      <trkpt lat="48.72435" lon="7.18876">
        <ele>257.6</ele>
        <time>2020-05-22T12:57:50Z</time>
      </trkpt>
      <trkpt lat="48.72438" lon="7.18864">
        <ele>257.6</ele>
        <time>2020-05-22T12:57:52Z</time>
      </trkpt>
      <trkpt lat="48.72439" lon="7.18859">
        <ele>257.6</ele>
        <time>2020-05-22T12:57:53Z</time>
      </trkpt>
      <trkpt lat="48.7244" lon="7.18854">
        <ele>257.6</ele>
        <time>2020-05-22T12:57:54Z</time>
      </trkpt>
      <trkpt lat="48.72441" lon="7.18842">
        <ele>257.6</ele>
        <time>2020-05-22T12:57:56Z</time>
      </trkpt>
      <trkpt lat="48.72442" lon="7.18836">
        <ele>257.6</ele>
        <time>2020-05-22T12:57:57Z</time>
      </trkpt>
      <trkpt lat="48.72443" lon="7.1883">
        <ele>257.6</ele>
        <time>2020-05-22T12:57:58Z</time>
      </trkpt>
      <trkpt lat="48.72446" lon="7.18819">
        <ele>257.6</ele>
        <time>2020-05-22T12:58:00Z</time>
      </trkpt>
      <trkpt lat="48.72448" lon="7.18807">
        <ele>257.6</ele>
        <time>2020-05-22T12:58:02Z</time>
      </trkpt>
      <trkpt lat="48.72449" lon="7.18801">
        <ele>257.6</ele>
        <time>2020-05-22T12:58:03Z</time>
      </trkpt>
      <trkpt lat="48.72453" lon="7.1879">
        <ele>257.7</ele>
        <time>2020-05-22T12:58:05Z</time>
      </trkpt>
      <trkpt lat="48.72455" lon="7.18784">
        <ele>257.7</ele>
        <time>2020-05-22T12:58:06Z</time>
      </trkpt>
      <trkpt lat="48.72457" lon="7.18778">
        <ele>257.7</ele>
        <time>2020-05-22T12:58:07Z</time>
      </trkpt>
      <trkpt lat="48.72459" lon="7.18773">
        <ele>257.8</ele>
        <time>2020-05-22T12:58:08Z</time>
      </trkpt>
      <trkpt lat="48.72461" lon="7.18768">
        <ele>257.8</ele>
        <time>2020-05-22T12:58:09Z</time>
      </trkpt>
      <trkpt lat="48.72466" lon="7.18757">
        <ele>257.9</ele>
        <time>2020-05-22T12:58:11Z</time>
      </trkpt>
      <trkpt lat="48.72471" lon="7.18747">
        <ele>258.1</ele>
        <time>2020-05-22T12:58:13Z</time>
      </trkpt>
      <trkpt lat="48.72473" lon="7.18743">
        <ele>258.2</ele>
        <time>2020-05-22T12:58:14Z</time>
      </trkpt>
      <trkpt lat="48.72478" lon="7.18733">
        <ele>258.4</ele>
        <time>2020-05-22T12:58:16Z</time>
      </trkpt>
      <trkpt lat="48.7248" lon="7.18729">
        <ele>258.6</ele>
        <time>2020-05-22T12:58:17Z</time>
      </trkpt>
      <trkpt lat="48.72482" lon="7.18726">
        <ele>258.7</ele>
        <time>2020-05-22T12:58:18Z</time>
      </trkpt>
      <trkpt lat="48.72486" lon="7.1872">
        <ele>259</ele>
        <time>2020-05-22T12:58:20Z</time>
      </trkpt>
      <trkpt lat="48.72491" lon="7.18715">
        <ele>259.2</ele>
        <time>2020-05-22T12:58:22Z</time>
      </trkpt>
      <trkpt lat="48.72493" lon="7.18712">
        <ele>259.4</ele>
        <time>2020-05-22T12:58:23Z</time>
      </trkpt>
      <trkpt lat="48.72497" lon="7.18707">
        <ele>259.6</ele>
        <time>2020-05-22T12:58:25Z</time>
      </trkpt>
      <trkpt lat="48.725" lon="7.18704">
        <ele>259.7</ele>
        <time>2020-05-22T12:58:26Z</time>
      </trkpt>
      <trkpt lat="48.72504" lon="7.18699">
        <ele>260</ele>
        <time>2020-05-22T12:58:28Z</time>
      </trkpt>
      <trkpt lat="48.72508" lon="7.18693">
        <ele>260.1</ele>
        <time>2020-05-22T12:58:30Z</time>
      </trkpt>
      <trkpt lat="48.72511" lon="7.18691">
        <ele>260.2</ele>
        <time>2020-05-22T12:58:31Z</time>
      </trkpt>
      <trkpt lat="48.72514" lon="7.18688">
        <ele>260.2</ele>
        <time>2020-05-22T12:58:32Z</time>
      </trkpt>
      <trkpt lat="48.72519" lon="7.1868">
        <ele>260.3</ele>
        <time>2020-05-22T12:58:34Z</time>
      </trkpt>
      <trkpt lat="48.72523" lon="7.18673">
        <ele>260.3</ele>
        <time>2020-05-22T12:58:36Z</time>
      </trkpt>
      <trkpt lat="48.72525" lon="7.18669">
        <ele>260.3</ele>
        <time>2020-05-22T12:58:37Z</time>
      </trkpt>
      <trkpt lat="48.72526" lon="7.18665">
        <ele>260.3</ele>
        <time>2020-05-22T12:58:38Z</time>
      </trkpt>
      <trkpt lat="48.72529" lon="7.18657">
        <ele>260.3</ele>
        <time>2020-05-22T12:58:40Z</time>
      </trkpt>
      <trkpt lat="48.7253" lon="7.18651">
        <ele>260.4</ele>
        <time>2020-05-22T12:58:41Z</time>
      </trkpt>
      <trkpt lat="48.72531" lon="7.18649">
        <ele>260.5</ele>
        <time>2020-05-22T12:58:42Z</time>
      </trkpt>
      <trkpt lat="48.72532" lon="7.18639">
        <ele>260.7</ele>
        <time>2020-05-22T12:58:44Z</time>
      </trkpt>
      <trkpt lat="48.72532" lon="7.18634">
        <ele>260.8</ele>
        <time>2020-05-22T12:58:45Z</time>
      </trkpt>
      <trkpt lat="48.72532" lon="7.18625">
        <ele>261</ele>
        <time>2020-05-22T12:58:47Z</time>
      </trkpt>
      <trkpt lat="48.72533" lon="7.18615">
        <ele>261.3</ele>
        <time>2020-05-22T12:58:49Z</time>
      </trkpt>
      <trkpt lat="48.72534" lon="7.18611">
        <ele>261.4</ele>
        <time>2020-05-22T12:58:50Z</time>
      </trkpt>
      <trkpt lat="48.72535" lon="7.18602">
        <ele>261.6</ele>
        <time>2020-05-22T12:58:52Z</time>
      </trkpt>
      <trkpt lat="48.72535" lon="7.18598">
        <ele>261.8</ele>
        <time>2020-05-22T12:58:53Z</time>
      </trkpt>
      <trkpt lat="48.72536" lon="7.18589">
        <ele>262</ele>
        <time>2020-05-22T12:58:55Z</time>
      </trkpt>
      <trkpt lat="48.72537" lon="7.18579">
        <ele>262.3</ele>
        <time>2020-05-22T12:58:57Z</time>
      </trkpt>
      <trkpt lat="48.72537" lon="7.18575">
        <ele>262.5</ele>
        <time>2020-05-22T12:58:58Z</time>
      </trkpt>
      <trkpt lat="48.72537" lon="7.18567">
        <ele>262.9</ele>
        <time>2020-05-22T12:59:00Z</time>
      </trkpt>
      <trkpt lat="48.72537" lon="7.18562">
        <ele>262.9</ele>
        <time>2020-05-22T12:59:01Z</time>
      </trkpt>
      <trkpt lat="48.72537" lon="7.18555">
        <ele>262.9</ele>
        <time>2020-05-22T12:59:03Z</time>
      </trkpt>
      <trkpt lat="48.72537" lon="7.18551">
        <ele>262.9</ele>
        <time>2020-05-22T12:59:04Z</time>
      </trkpt>
      <trkpt lat="48.72537" lon="7.18542">
        <ele>263</ele>
        <time>2020-05-22T12:59:06Z</time>
      </trkpt>
      <trkpt lat="48.72535" lon="7.18534">
        <ele>263.1</ele>
        <time>2020-05-22T12:59:08Z</time>
      </trkpt>
      <trkpt lat="48.72533" lon="7.1853">
        <ele>263.1</ele>
        <time>2020-05-22T12:59:09Z</time>
      </trkpt>
      <trkpt lat="48.72529" lon="7.18523">
        <ele>263.2</ele>
        <time>2020-05-22T12:59:11Z</time>
      </trkpt>
      <trkpt lat="48.72528" lon="7.18519">
        <ele>263.2</ele>
        <time>2020-05-22T12:59:12Z</time>
      </trkpt>
      <trkpt lat="48.72524" lon="7.18511">
        <ele>263.3</ele>
        <time>2020-05-22T12:59:14Z</time>
      </trkpt>
      <trkpt lat="48.72522" lon="7.18508">
        <ele>263.4</ele>
        <time>2020-05-22T12:59:15Z</time>
      </trkpt>
      <trkpt lat="48.72519" lon="7.18499">
        <ele>263.5</ele>
        <time>2020-05-22T12:59:17Z</time>
      </trkpt>
      <trkpt lat="48.72518" lon="7.18495">
        <ele>263.6</ele>
        <time>2020-05-22T12:59:18Z</time>
      </trkpt>
      <trkpt lat="48.72515" lon="7.18486">
        <ele>263.8</ele>
        <time>2020-05-22T12:59:20Z</time>
      </trkpt>
      <trkpt lat="48.72514" lon="7.18482">
        <ele>263.9</ele>
        <time>2020-05-22T12:59:21Z</time>
      </trkpt>
      <trkpt lat="48.72512" lon="7.18474">
        <ele>264.1</ele>
        <time>2020-05-22T12:59:23Z</time>
      </trkpt>
      <trkpt lat="48.72511" lon="7.1847">
        <ele>264.2</ele>
        <time>2020-05-22T12:59:24Z</time>
      </trkpt>
      <trkpt lat="48.72509" lon="7.18463">
        <ele>264.3</ele>
        <time>2020-05-22T12:59:26Z</time>
      </trkpt>
      <trkpt lat="48.72509" lon="7.18459">
        <ele>264.4</ele>
        <time>2020-05-22T12:59:27Z</time>
      </trkpt>
      <trkpt lat="48.72508" lon="7.18452">
        <ele>264.6</ele>
        <time>2020-05-22T12:59:29Z</time>
      </trkpt>
      <trkpt lat="48.72507" lon="7.18448">
        <ele>264.7</ele>
        <time>2020-05-22T12:59:30Z</time>
      </trkpt>
      <trkpt lat="48.72507" lon="7.18444">
        <ele>264.7</ele>
        <time>2020-05-22T12:59:31Z</time>
      </trkpt>
      <trkpt lat="48.72507" lon="7.18434">
        <ele>264.9</ele>
        <time>2020-05-22T12:59:33Z</time>
      </trkpt>
      <trkpt lat="48.72508" lon="7.18426">
        <ele>265</ele>
        <time>2020-05-22T12:59:35Z</time>
      </trkpt>
      <trkpt lat="48.72509" lon="7.1842">
        <ele>265.1</ele>
        <time>2020-05-22T12:59:36Z</time>
      </trkpt>
      <trkpt lat="48.7251" lon="7.18419">
        <ele>265.1</ele>
        <time>2020-05-22T12:59:37Z</time>
      </trkpt>
      <trkpt lat="48.72511" lon="7.18415">
        <ele>265.2</ele>
        <time>2020-05-22T12:59:38Z</time>
      </trkpt>
      <trkpt lat="48.72512" lon="7.18409">
        <ele>265.3</ele>
        <time>2020-05-22T12:59:40Z</time>
      </trkpt>
      <trkpt lat="48.72513" lon="7.18402">
        <ele>265.4</ele>
        <time>2020-05-22T12:59:42Z</time>
      </trkpt>
      <trkpt lat="48.72512" lon="7.18394">
        <ele>265.5</ele>
        <time>2020-05-22T12:59:44Z</time>
      </trkpt>
      <trkpt lat="48.72511" lon="7.18391">
        <ele>265.5</ele>
        <time>2020-05-22T12:59:45Z</time>
      </trkpt>
      <trkpt lat="48.72509" lon="7.18383">
        <ele>265.6</ele>
        <time>2020-05-22T12:59:47Z</time>
      </trkpt>
      <trkpt lat="48.72507" lon="7.18375">
        <ele>265.6</ele>
        <time>2020-05-22T12:59:49Z</time>
      </trkpt>
      <trkpt lat="48.72505" lon="7.18367">
        <ele>265.7</ele>
        <time>2020-05-22T12:59:51Z</time>
      </trkpt>
      <trkpt lat="48.72504" lon="7.18363">
        <ele>265.7</ele>
        <time>2020-05-22T12:59:52Z</time>
      </trkpt>
      <trkpt lat="48.72503" lon="7.18359">
        <ele>265.8</ele>
        <time>2020-05-22T12:59:53Z</time>
      </trkpt>
      <trkpt lat="48.72501" lon="7.18351">
        <ele>265.8</ele>
        <time>2020-05-22T12:59:55Z</time>
      </trkpt>
      <trkpt lat="48.72499" lon="7.18343">
        <ele>265.8</ele>
        <time>2020-05-22T12:59:57Z</time>
      </trkpt>
      <trkpt lat="48.72496" lon="7.18335">
        <ele>265.9</ele>
        <time>2020-05-22T12:59:59Z</time>
      </trkpt>
      <trkpt lat="48.72494" lon="7.18326">
        <ele>265.9</ele>
        <time>2020-05-22T13:00:01Z</time>
      </trkpt>
      <trkpt lat="48.72492" lon="7.18318">
        <ele>265.9</ele>
        <time>2020-05-22T13:00:03Z</time>
      </trkpt>
      <trkpt lat="48.7249" lon="7.18309">
        <ele>265.9</ele>
        <time>2020-05-22T13:00:05Z</time>
      </trkpt>
      <trkpt lat="48.72488" lon="7.18298">
        <ele>265.9</ele>
        <time>2020-05-22T13:00:07Z</time>
      </trkpt>
      <trkpt lat="48.72485" lon="7.18288">
        <ele>266</ele>
        <time>2020-05-22T13:00:09Z</time>
      </trkpt>
      <trkpt lat="48.72482" lon="7.18279">
        <ele>266.1</ele>
        <time>2020-05-22T13:00:11Z</time>
      </trkpt>
      <trkpt lat="48.72481" lon="7.18274">
        <ele>266.1</ele>
        <time>2020-05-22T13:00:12Z</time>
      </trkpt>
      <trkpt lat="48.72479" lon="7.18264">
        <ele>266.1</ele>
        <time>2020-05-22T13:00:14Z</time>
      </trkpt>
      <trkpt lat="48.72477" lon="7.18254">
        <ele>266.1</ele>
        <time>2020-05-22T13:00:16Z</time>
      </trkpt>
      <trkpt lat="48.72474" lon="7.18245">
        <ele>266.2</ele>
        <time>2020-05-22T13:00:18Z</time>
      </trkpt>
      <trkpt lat="48.72472" lon="7.18235">
        <ele>266.2</ele>
        <time>2020-05-22T13:00:20Z</time>
      </trkpt>
      <trkpt lat="48.72468" lon="7.18227">
        <ele>266.2</ele>
        <time>2020-05-22T13:00:22Z</time>
      </trkpt>
      <trkpt lat="48.72466" lon="7.18224">
        <ele>266.2</ele>
        <time>2020-05-22T13:00:23Z</time>
      </trkpt>
      <trkpt lat="48.72458" lon="7.18221">
        <ele>266.1</ele>
        <time>2020-05-22T13:00:25Z</time>
      </trkpt>
      <trkpt lat="48.72454" lon="7.18221">
        <ele>266</ele>
        <time>2020-05-22T13:00:26Z</time>
      </trkpt>
      <trkpt lat="48.7245" lon="7.1822">
        <ele>266</ele>
        <time>2020-05-22T13:00:27Z</time>
      </trkpt>
      <trkpt lat="48.72444" lon="7.18213">
        <ele>266.6</ele>
        <time>2020-05-22T13:00:29Z</time>
      </trkpt>
      <trkpt lat="48.72442" lon="7.1821">
        <ele>266.7</ele>
        <time>2020-05-22T13:00:30Z</time>
      </trkpt>
      <trkpt lat="48.72438" lon="7.18205">
        <ele>267</ele>
        <time>2020-05-22T13:00:32Z</time>
      </trkpt>
      <trkpt lat="48.72437" lon="7.18203">
        <ele>267.1</ele>
        <time>2020-05-22T13:00:33Z</time>
      </trkpt>
      <trkpt lat="48.72434" lon="7.18198">
        <ele>267.3</ele>
        <time>2020-05-22T13:00:35Z</time>
      </trkpt>
      <trkpt lat="48.72433" lon="7.18192">
        <ele>267.5</ele>
        <time>2020-05-22T13:00:36Z</time>
      </trkpt>
      <trkpt lat="48.72433" lon="7.18191">
        <ele>267.5</ele>
        <time>2020-05-22T13:00:37Z</time>
      </trkpt>
      <trkpt lat="48.72433" lon="7.18187">
        <ele>267.6</ele>
        <time>2020-05-22T13:00:38Z</time>
      </trkpt>
      <trkpt lat="48.72433" lon="7.1818">
        <ele>267.9</ele>
        <time>2020-05-22T13:00:40Z</time>
      </trkpt>
      <trkpt lat="48.72433" lon="7.18176">
        <ele>268</ele>
        <time>2020-05-22T13:00:41Z</time>
      </trkpt>
      <trkpt lat="48.72433" lon="7.18169">
        <ele>268.3</ele>
        <time>2020-05-22T13:00:43Z</time>
      </trkpt>
      <trkpt lat="48.72432" lon="7.18161">
        <ele>268.6</ele>
        <time>2020-05-22T13:00:45Z</time>
      </trkpt>
      <trkpt lat="48.72431" lon="7.18153">
        <ele>268.8</ele>
        <time>2020-05-22T13:00:47Z</time>
      </trkpt>
      <trkpt lat="48.7243" lon="7.18146">
        <ele>269.1</ele>
        <time>2020-05-22T13:00:49Z</time>
      </trkpt>
      <trkpt lat="48.7243" lon="7.18143">
        <ele>269.2</ele>
        <time>2020-05-22T13:00:50Z</time>
      </trkpt>
      <trkpt lat="48.7243" lon="7.18136">
        <ele>269.4</ele>
        <time>2020-05-22T13:00:52Z</time>
      </trkpt>
      <trkpt lat="48.72429" lon="7.18129">
        <ele>269.7</ele>
        <time>2020-05-22T13:00:54Z</time>
      </trkpt>
      <trkpt lat="48.72429" lon="7.18126">
        <ele>269.8</ele>
        <time>2020-05-22T13:00:55Z</time>
      </trkpt>
      <trkpt lat="48.72428" lon="7.18119">
        <ele>270</ele>
        <time>2020-05-22T13:00:57Z</time>
      </trkpt>
      <trkpt lat="48.72428" lon="7.18111">
        <ele>270.3</ele>
        <time>2020-05-22T13:00:59Z</time>
      </trkpt>
      <trkpt lat="48.72427" lon="7.18106">
        <ele>270.4</ele>
        <time>2020-05-22T13:01:00Z</time>
      </trkpt>
      <trkpt lat="48.72427" lon="7.18104">
        <ele>270.5</ele>
        <time>2020-05-22T13:01:01Z</time>
      </trkpt>
      <trkpt lat="48.72427" lon="7.18096">
        <ele>270.7</ele>
        <time>2020-05-22T13:01:03Z</time>
      </trkpt>
      <trkpt lat="48.72425" lon="7.1809">
        <ele>270.9</ele>
        <time>2020-05-22T13:01:05Z</time>
      </trkpt>
      <trkpt lat="48.72423" lon="7.18084">
        <ele>271.1</ele>
        <time>2020-05-22T13:01:07Z</time>
      </trkpt>
      <trkpt lat="48.72421" lon="7.18078">
        <ele>271.3</ele>
        <time>2020-05-22T13:01:09Z</time>
      </trkpt>
      <trkpt lat="48.7242" lon="7.1807">
        <ele>271.6</ele>
        <time>2020-05-22T13:01:11Z</time>
      </trkpt>
      <trkpt lat="48.72418" lon="7.18062">
        <ele>271.8</ele>
        <time>2020-05-22T13:01:13Z</time>
      </trkpt>
      <trkpt lat="48.72416" lon="7.18055">
        <ele>272</ele>
        <time>2020-05-22T13:01:15Z</time>
      </trkpt>
      <trkpt lat="48.72413" lon="7.18048">
        <ele>272.2</ele>
        <time>2020-05-22T13:01:17Z</time>
      </trkpt>
      <trkpt lat="48.72409" lon="7.18043">
        <ele>272.4</ele>
        <time>2020-05-22T13:01:19Z</time>
      </trkpt>
      <trkpt lat="48.72407" lon="7.18039">
        <ele>272.5</ele>
        <time>2020-05-22T13:01:20Z</time>
      </trkpt>
      <trkpt lat="48.72406" lon="7.18038">
        <ele>272.5</ele>
        <time>2020-05-22T13:01:21Z</time>
      </trkpt>
      <trkpt lat="48.72403" lon="7.18031">
        <ele>272.5</ele>
        <time>2020-05-22T13:01:23Z</time>
      </trkpt>
      <trkpt lat="48.724" lon="7.18025">
        <ele>272.6</ele>
        <time>2020-05-22T13:01:25Z</time>
      </trkpt>
      <trkpt lat="48.72397" lon="7.18017">
        <ele>272.7</ele>
        <time>2020-05-22T13:01:27Z</time>
      </trkpt>
      <trkpt lat="48.72393" lon="7.1801">
        <ele>272.8</ele>
        <time>2020-05-22T13:01:29Z</time>
      </trkpt>
      <trkpt lat="48.72392" lon="7.18007">
        <ele>272.8</ele>
        <time>2020-05-22T13:01:30Z</time>
      </trkpt>
      <trkpt lat="48.7239" lon="7.18003">
        <ele>272.8</ele>
        <time>2020-05-22T13:01:31Z</time>
      </trkpt>
      <trkpt lat="48.72388" lon="7.18">
        <ele>272.8</ele>
        <time>2020-05-22T13:01:32Z</time>
      </trkpt>
      <trkpt lat="48.72386" lon="7.17996">
        <ele>272.8</ele>
        <time>2020-05-22T13:01:33Z</time>
      </trkpt>
      <trkpt lat="48.72385" lon="7.17993">
        <ele>272.9</ele>
        <time>2020-05-22T13:01:34Z</time>
      </trkpt>
      <trkpt lat="48.72381" lon="7.17986">
        <ele>272.9</ele>
        <time>2020-05-22T13:01:36Z</time>
      </trkpt>
      <trkpt lat="48.72379" lon="7.17982">
        <ele>272.9</ele>
        <time>2020-05-22T13:01:37Z</time>
      </trkpt>
      <trkpt lat="48.72376" lon="7.17975">
        <ele>272.9</ele>
        <time>2020-05-22T13:01:39Z</time>
      </trkpt>
      <trkpt lat="48.72374" lon="7.17972">
        <ele>272.8</ele>
        <time>2020-05-22T13:01:40Z</time>
      </trkpt>
      <trkpt lat="48.7237" lon="7.17966">
        <ele>272.8</ele>
        <time>2020-05-22T13:01:42Z</time>
      </trkpt>
      <trkpt lat="48.72368" lon="7.17963">
        <ele>272.8</ele>
        <time>2020-05-22T13:01:43Z</time>
      </trkpt>
      <trkpt lat="48.72363" lon="7.17958">
        <ele>272.8</ele>
        <time>2020-05-22T13:01:45Z</time>
      </trkpt>
      <trkpt lat="48.72358" lon="7.17952">
        <ele>272.8</ele>
        <time>2020-05-22T13:01:47Z</time>
      </trkpt>
      <trkpt lat="48.72356" lon="7.17945">
        <ele>272.7</ele>
        <time>2020-05-22T13:01:49Z</time>
      </trkpt>
      <trkpt lat="48.72354" lon="7.17939">
        <ele>272.7</ele>
        <time>2020-05-22T13:01:51Z</time>
      </trkpt>
      <trkpt lat="48.72355" lon="7.17938">
        <ele>272.7</ele>
        <time>2020-05-22T13:01:53Z</time>
      </trkpt>
      <trkpt lat="48.72356" lon="7.17938">
        <ele>272.7</ele>
        <time>2020-05-22T13:01:54Z</time>
      </trkpt>
      <trkpt lat="48.72356" lon="7.17938">
        <ele>272.7</ele>
        <time>2020-05-22T13:01:56Z</time>
      </trkpt>
      <trkpt lat="48.72355" lon="7.17938">
        <ele>272.7</ele>
        <time>2020-05-22T13:01:58Z</time>
      </trkpt>
      <trkpt lat="48.72355" lon="7.17939">
        <ele>272.7</ele>
        <time>2020-05-22T13:02:00Z</time>
      </trkpt>
      <trkpt lat="48.72355" lon="7.1794">
        <ele>272.7</ele>
        <time>2020-05-22T13:02:01Z</time>
      </trkpt>
      <trkpt lat="48.72355" lon="7.1794">
        <ele>272.7</ele>
        <time>2020-05-22T13:02:03Z</time>
      </trkpt>
      <trkpt lat="48.72355" lon="7.1794">
        <ele>272.7</ele>
        <time>2020-05-22T13:02:05Z</time>
      </trkpt>
      <trkpt lat="48.72354" lon="7.17941">
        <ele>272.7</ele>
        <time>2020-05-22T13:02:07Z</time>
      </trkpt>
      <trkpt lat="48.72355" lon="7.17941">
        <ele>272.7</ele>
        <time>2020-05-22T13:02:08Z</time>
      </trkpt>
      <trkpt lat="48.72355" lon="7.17941">
        <ele>272.7</ele>
        <time>2020-05-22T13:02:09Z</time>
      </trkpt>
      <trkpt lat="48.72355" lon="7.17942">
        <ele>272.7</ele>
        <time>2020-05-22T13:02:10Z</time>
      </trkpt>
      <trkpt lat="48.72355" lon="7.17942">
        <ele>272.7</ele>
        <time>2020-05-22T13:02:11Z</time>
      </trkpt>
      <trkpt lat="48.7235" lon="7.17937">
        <ele>272.6</ele>
        <time>2020-05-22T13:02:45Z</time>
      </trkpt>
      <trkpt lat="48.72347" lon="7.17931">
        <ele>272.6</ele>
        <time>2020-05-22T13:02:47Z</time>
      </trkpt>
      <trkpt lat="48.72346" lon="7.17928">
        <ele>272.6</ele>
        <time>2020-05-22T13:02:48Z</time>
      </trkpt>
      <trkpt lat="48.72343" lon="7.17922">
        <ele>272.5</ele>
        <time>2020-05-22T13:02:50Z</time>
      </trkpt>
      <trkpt lat="48.72341" lon="7.17919">
        <ele>272.5</ele>
        <time>2020-05-22T13:02:51Z</time>
      </trkpt>
      <trkpt lat="48.72336" lon="7.17915">
        <ele>272.4</ele>
        <time>2020-05-22T13:02:53Z</time>
      </trkpt>
      <trkpt lat="48.72331" lon="7.17915">
        <ele>272.5</ele>
        <time>2020-05-22T13:02:55Z</time>
      </trkpt>
      <trkpt lat="48.72329" lon="7.17919">
        <ele>272.5</ele>
        <time>2020-05-22T13:02:56Z</time>
      </trkpt>
      <trkpt lat="48.72362" lon="7.17971">
        <ele>276.8</ele>
      </trkpt>
      <trkpt lat="48.72381" lon="7.18002">
        <ele>275.8</ele>
      </trkpt>
      <trkpt lat="48.72402" lon="7.18048">
        <ele>274.3</ele>
      </trkpt>
      <trkpt lat="48.72411" lon="7.1807">
        <ele>271.8</ele>
      </trkpt>
      <trkpt lat="48.72419" lon="7.1809">
        <ele>270.5</ele>
      </trkpt>
      <trkpt lat="48.72424" lon="7.18131">
        <ele>273.3</ele>
      </trkpt>
      <trkpt lat="48.72428" lon="7.18198">
        <ele>268.2</ele>
      </trkpt>
      <trkpt lat="48.72447" lon="7.18225">
        <ele>269.1</ele>
      </trkpt>
      <trkpt lat="48.72468" lon="7.18231">
        <ele>271.3</ele>
      </trkpt>
      <trkpt lat="48.72481" lon="7.18294">
        <ele>267.7</ele>
      </trkpt>
      <trkpt lat="48.72503" lon="7.18372">
        <ele>274.6</ele>
      </trkpt>
      <trkpt lat="48.72507" lon="7.18397">
        <ele>271.3</ele>
      </trkpt>
      <trkpt lat="48.72507" lon="7.1841">
        <ele>267</ele>
      </trkpt>
      <trkpt lat="48.72505" lon="7.18435">
        <ele>265.9</ele>
      </trkpt>
      <trkpt lat="48.72507" lon="7.18456">
        <ele>266.9</ele>
      </trkpt>
      <trkpt lat="48.72519" lon="7.18511">
        <ele>261.4</ele>
      </trkpt>
      <trkpt lat="48.72529" lon="7.18529">
        <ele>262.7</ele>
      </trkpt>
      <trkpt lat="48.72532" lon="7.18548">
        <ele>262.5</ele>
      </trkpt>
      <trkpt lat="48.72535" lon="7.18559">
        <ele>262.3</ele>
      </trkpt>
      <trkpt lat="48.72536" lon="7.18576">
        <ele>261.8</ele>
      </trkpt>
      <trkpt lat="48.72533" lon="7.1859">
        <ele>259.4</ele>
      </trkpt>
      <trkpt lat="48.72527" lon="7.18646">
        <ele>259.1</ele>
      </trkpt>
      <trkpt lat="48.72488" lon="7.18707">
        <ele>259.2</ele>
      </trkpt>
      <trkpt lat="48.72459" lon="7.1876">
        <ele>263.9</ele>
      </trkpt>
      <trkpt lat="48.72437" lon="7.18842">
        <ele>266.5</ele>
      </trkpt>
      <trkpt lat="48.7242" lon="7.18947">
        <ele>269.5</ele>
      </trkpt>
      <trkpt lat="48.7241" lon="7.19009">
        <ele>259.1</ele>
      </trkpt>
      <trkpt lat="48.72385" lon="7.19186">
        <ele>260.9</ele>
      </trkpt>
      <trkpt lat="48.72382" lon="7.19327">
        <ele>261.4</ele>
      </trkpt>
      <trkpt lat="48.72385" lon="7.19425">
        <ele>262.3</ele>
      </trkpt>
      <trkpt lat="48.72395" lon="7.19514">
        <ele>260</ele>
      </trkpt>
      <trkpt lat="48.72415" lon="7.19596">
        <ele>253.7</ele>
      </trkpt>
      <trkpt lat="48.72469" lon="7.19779">
        <ele>252.8</ele>
      </trkpt>
      <trkpt lat="48.72481" lon="7.19861">
        <ele>249.4</ele>
      </trkpt>
      <trkpt lat="48.72481" lon="7.19902">
        <ele>249.6</ele>
      </trkpt>
      <trkpt lat="48.72474" lon="7.19972">
        <ele>255.6</ele>
      </trkpt>
      <trkpt lat="48.72467" lon="7.20046">
        <ele>261.2</ele>
      </trkpt>
      <trkpt lat="48.72457" lon="7.20105">
        <ele>261.9</ele>
      </trkpt>
      <trkpt lat="48.72453" lon="7.20233">
        <ele>261.7</ele>
      </trkpt>
      <trkpt lat="48.72454" lon="7.20376">
        <ele>261.1</ele>
      </trkpt>
      <trkpt lat="48.72451" lon="7.20409">
        <ele>259.9</ele>
      </trkpt>
      <trkpt lat="48.7243" lon="7.20489">
        <ele>255.9</ele>
      </trkpt>
      <trkpt lat="48.72398" lon="7.20626">
        <ele>252.1</ele>
      </trkpt>
      <trkpt lat="48.72357" lon="7.20732">
        <ele>252.7</ele>
      </trkpt>
      <trkpt lat="48.72337" lon="7.20811">
        <ele>257</ele>
      </trkpt>
      <trkpt lat="48.72325" lon="7.20901">
        <ele>253.2</ele>
      </trkpt>
      <trkpt lat="48.72315" lon="7.21007">
        <ele>251.9</ele>
      </trkpt>
      <trkpt lat="48.72309" lon="7.2108">
        <ele>249.8</ele>
      </trkpt>
      <trkpt lat="48.72289" lon="7.21143">
        <ele>245.1</ele>
      </trkpt>
      <trkpt lat="48.72265" lon="7.21198">
        <ele>247</ele>
      </trkpt>
      <trkpt lat="48.72219" lon="7.21262">
        <ele>248.5</ele>
      </trkpt>
      <trkpt lat="48.72214" lon="7.21255">
        <ele>248.2</ele>
      </trkpt>
      <trkpt lat="48.7221" lon="7.21253">
        <ele>248.2</ele>
      </trkpt>
      <trkpt lat="48.72206" lon="7.21262">
        <ele>248.4</ele>
      </trkpt>
      <trkpt lat="48.72201" lon="7.21273">
        <ele>248.6</ele>
      </trkpt>
      <trkpt lat="48.72186" lon="7.21284">
        <ele>248.3</ele>
      </trkpt>
      <trkpt lat="48.72173" lon="7.21292">
        <ele>247.9</ele>
      </trkpt>
      <trkpt lat="48.72153" lon="7.21304">
        <ele>251.6</ele>
      </trkpt>
      <trkpt lat="48.72137" lon="7.21317">
        <ele>252.7</ele>
      </trkpt>
      <trkpt lat="48.72124" lon="7.21351">
        <ele>250.9</ele>
      </trkpt>
      <trkpt lat="48.72116" lon="7.21373">
        <ele>251</ele>
      </trkpt>
      <trkpt lat="48.72106" lon="7.21364">
        <ele>252.1</ele>
      </trkpt>
      <trkpt lat="48.72101" lon="7.21365">
        <ele>252.4</ele>
      </trkpt>
      <trkpt lat="48.72066" lon="7.21454">
        <ele>253.6</ele>
      </trkpt>
      <trkpt lat="48.72033" lon="7.21515">
        <ele>247.6</ele>
      </trkpt>
      <trkpt lat="48.71995" lon="7.21589">
        <ele>244.3</ele>
      </trkpt>
      <trkpt lat="48.71981" lon="7.21613">
        <ele>246</ele>
      </trkpt>
      <trkpt lat="48.7197" lon="7.21647">
        <ele>244.7</ele>
      </trkpt>
      <trkpt lat="48.7196" lon="7.21666">
        <ele>245.1</ele>
      </trkpt>
      <trkpt lat="48.71954" lon="7.21679">
        <ele>239.4</ele>
      </trkpt>
      <trkpt lat="48.71946" lon="7.21691">
        <ele>239.6</ele>
      </trkpt>
      <trkpt lat="48.71933" lon="7.21721">
        <ele>238.2</ele>
      </trkpt>
      <trkpt lat="48.71924" lon="7.21726">
        <ele>238.1</ele>
      </trkpt>
      <trkpt lat="48.71918" lon="7.2176">
        <ele>236</ele>
      </trkpt>
      <trkpt lat="48.71923" lon="7.21812">
        <ele>235.6</ele>
      </trkpt>
      <trkpt lat="48.71953" lon="7.22014">
        <ele>229.3</ele>
      </trkpt>
      <trkpt lat="48.71964" lon="7.2211">
        <ele>229.5</ele>
      </trkpt>
      <trkpt lat="48.71967" lon="7.22129">
        <ele>229.6</ele>
      </trkpt>
      <trkpt lat="48.71963" lon="7.22157">
        <ele>229.6</ele>
      </trkpt>
      <trkpt lat="48.71945" lon="7.22217">
        <ele>229.3</ele>
      </trkpt>
      <trkpt lat="48.71939" lon="7.22253">
        <ele>228.2</ele>
      </trkpt>
      <trkpt lat="48.71931" lon="7.2229">
        <ele>227.8</ele>
      </trkpt>
      <trkpt lat="48.71928" lon="7.22331">
        <ele>226.3</ele>
      </trkpt>
      <trkpt lat="48.71923" lon="7.22352">
        <ele>225.8</ele>
      </trkpt>
      <trkpt lat="48.71911" lon="7.22377">
        <ele>226.2</ele>
      </trkpt>
      <trkpt lat="48.71899" lon="7.22396">
        <ele>226.3</ele>
      </trkpt>
      <trkpt lat="48.71888" lon="7.22414">
        <ele>226.9</ele>
      </trkpt>
      <trkpt lat="48.71867" lon="7.22441">
        <ele>231.1</ele>
      </trkpt>
      <trkpt lat="48.7185" lon="7.22469">
        <ele>233.2</ele>
      </trkpt>
      <trkpt lat="48.71845" lon="7.22479">
        <ele>234.6</ele>
      </trkpt>
      <trkpt lat="48.71859" lon="7.22524">
        <ele>233.1</ele>
      </trkpt>
      <trkpt lat="48.71859" lon="7.22535">
        <ele>232.7</ele>
      </trkpt>
      <trkpt lat="48.71855" lon="7.22552">
        <ele>232.9</ele>
      </trkpt>
      <trkpt lat="48.71846" lon="7.2257">
        <ele>234.4</ele>
      </trkpt>
      <trkpt lat="48.7184" lon="7.22562">
        <ele>234.3</ele>
      </trkpt>
      <trkpt lat="48.71835" lon="7.22547">
        <ele>234.1</ele>
      </trkpt>
      <trkpt lat="48.7183" lon="7.22521">
        <ele>245.1</ele>
      </trkpt>
      <trkpt lat="48.71824" lon="7.22487">
        <ele>246.8</ele>
      </trkpt>
      <trkpt lat="48.71817" lon="7.2246">
        <ele>249.8</ele>
      </trkpt>
      <trkpt lat="48.71805" lon="7.22441">
        <ele>250.9</ele>
      </trkpt>
      <trkpt lat="48.718" lon="7.22424">
        <ele>251.2</ele>
      </trkpt>
      <trkpt lat="48.71788" lon="7.22405">
        <ele>248.3</ele>
      </trkpt>
      <trkpt lat="48.71781" lon="7.22384">
        <ele>247.6</ele>
      </trkpt>
      <trkpt lat="48.71763" lon="7.22361">
        <ele>246.4</ele>
      </trkpt>
      <trkpt lat="48.71742" lon="7.22347">
        <ele>253.7</ele>
      </trkpt>
      <trkpt lat="48.71715" lon="7.22334">
        <ele>258.1</ele>
      </trkpt>
      <trkpt lat="48.7168" lon="7.22321">
        <ele>253</ele>
      </trkpt>
      <trkpt lat="48.71656" lon="7.22306">
        <ele>257.6</ele>
      </trkpt>
      <trkpt lat="48.71627" lon="7.2228">
        <ele>255.5</ele>
      </trkpt>
      <trkpt lat="48.71603" lon="7.22274">
        <ele>255.8</ele>
      </trkpt>
      <trkpt lat="48.71583" lon="7.22267">
        <ele>258.6</ele>
      </trkpt>
      <trkpt lat="48.71563" lon="7.22257">
        <ele>259.4</ele>
      </trkpt>
      <trkpt lat="48.71546" lon="7.22247">
        <ele>250.4</ele>
      </trkpt>
      <trkpt lat="48.71535" lon="7.22238">
        <ele>250.5</ele>
      </trkpt>
      <trkpt lat="48.71519" lon="7.22229">
        <ele>251</ele>
      </trkpt>
      <trkpt lat="48.71505" lon="7.22224">
        <ele>251</ele>
      </trkpt>
      <trkpt lat="48.71493" lon="7.22211">
        <ele>254.2</ele>
      </trkpt>
      <trkpt lat="48.71479" lon="7.22195">
        <ele>252.6</ele>
      </trkpt>
      <trkpt lat="48.71468" lon="7.22173">
        <ele>251.7</ele>
      </trkpt>
      <trkpt lat="48.71461" lon="7.22155">
        <ele>243</ele>
      </trkpt>
      <trkpt lat="48.71448" lon="7.22145">
        <ele>243.6</ele>
      </trkpt>
      <trkpt lat="48.71448" lon="7.22144">
        <ele>241.6</ele>
        <time>2020-05-22T13:38:20Z</time>
      </trkpt>
      <trkpt lat="48.71445" lon="7.22141">
        <ele>241.5</ele>
        <time>2020-05-22T13:38:22Z</time>
      </trkpt>
      <trkpt lat="48.71444" lon="7.2214">
        <ele>241.4</ele>
        <time>2020-05-22T13:38:23Z</time>
      </trkpt>
      <trkpt lat="48.7144" lon="7.22138">
        <ele>241.3</ele>
        <time>2020-05-22T13:38:25Z</time>
      </trkpt>
      <trkpt lat="48.71438" lon="7.22136">
        <ele>241.2</ele>
        <time>2020-05-22T13:38:27Z</time>
      </trkpt>
      <trkpt lat="48.71434" lon="7.22133">
        <ele>241.1</ele>
        <time>2020-05-22T13:38:29Z</time>
      </trkpt>
      <trkpt lat="48.71433" lon="7.22132">
        <ele>241.1</ele>
        <time>2020-05-22T13:38:30Z</time>
      </trkpt>
      <trkpt lat="48.71431" lon="7.22128">
        <ele>241</ele>
        <time>2020-05-22T13:38:32Z</time>
      </trkpt>
      <trkpt lat="48.71429" lon="7.22125">
        <ele>241</ele>
        <time>2020-05-22T13:38:33Z</time>
      </trkpt>
      <trkpt lat="48.71426" lon="7.22123">
        <ele>240.9</ele>
        <time>2020-05-22T13:38:35Z</time>
      </trkpt>
      <trkpt lat="48.71425" lon="7.22119">
        <ele>240.8</ele>
        <time>2020-05-22T13:38:37Z</time>
      </trkpt>
      <trkpt lat="48.71423" lon="7.22115">
        <ele>240.7</ele>
        <time>2020-05-22T13:38:39Z</time>
      </trkpt>
      <trkpt lat="48.71422" lon="7.22114">
        <ele>240.7</ele>
        <time>2020-05-22T13:38:40Z</time>
      </trkpt>
      <trkpt lat="48.71419" lon="7.2211">
        <ele>240.6</ele>
        <time>2020-05-22T13:38:42Z</time>
      </trkpt>
      <trkpt lat="48.71416" lon="7.22106">
        <ele>240.5</ele>
        <time>2020-05-22T13:38:44Z</time>
      </trkpt>
      <trkpt lat="48.71413" lon="7.22103">
        <ele>240.5</ele>
        <time>2020-05-22T13:38:46Z</time>
      </trkpt>
      <trkpt lat="48.71412" lon="7.22098">
        <ele>240.4</ele>
        <time>2020-05-22T13:38:48Z</time>
      </trkpt>
      <trkpt lat="48.71411" lon="7.22096">
        <ele>240.4</ele>
        <time>2020-05-22T13:38:49Z</time>
      </trkpt>
      <trkpt lat="48.71408" lon="7.22093">
        <ele>240.4</ele>
        <time>2020-05-22T13:38:51Z</time>
      </trkpt>
      <trkpt lat="48.71405" lon="7.22089">
        <ele>240.3</ele>
        <time>2020-05-22T13:38:53Z</time>
      </trkpt>
      <trkpt lat="48.71404" lon="7.22088">
        <ele>240.3</ele>
        <time>2020-05-22T13:38:54Z</time>
      </trkpt>
      <trkpt lat="48.71403" lon="7.22086">
        <ele>240.3</ele>
        <time>2020-05-22T13:38:55Z</time>
      </trkpt>
      <trkpt lat="48.71401" lon="7.22082">
        <ele>240.2</ele>
        <time>2020-05-22T13:38:57Z</time>
      </trkpt>
      <trkpt lat="48.71401" lon="7.22081">
        <ele>240.2</ele>
        <time>2020-05-22T13:38:58Z</time>
      </trkpt>
      <trkpt lat="48.71398" lon="7.22077">
        <ele>240.1</ele>
        <time>2020-05-22T13:39:00Z</time>
      </trkpt>
      <trkpt lat="48.71396" lon="7.22074">
        <ele>240</ele>
        <time>2020-05-22T13:39:02Z</time>
      </trkpt>
      <trkpt lat="48.71395" lon="7.22072">
        <ele>239.9</ele>
        <time>2020-05-22T13:39:03Z</time>
      </trkpt>
      <trkpt lat="48.71392" lon="7.22069">
        <ele>241.3</ele>
        <time>2020-05-22T13:39:05Z</time>
      </trkpt>
      <trkpt lat="48.71391" lon="7.22068">
        <ele>241.5</ele>
        <time>2020-05-22T13:39:06Z</time>
      </trkpt>
      <trkpt lat="48.71388" lon="7.22064">
        <ele>242</ele>
        <time>2020-05-22T13:39:08Z</time>
      </trkpt>
      <trkpt lat="48.71387" lon="7.22063">
        <ele>242.3</ele>
        <time>2020-05-22T13:39:10Z</time>
      </trkpt>
      <trkpt lat="48.71386" lon="7.2206">
        <ele>242.6</ele>
        <time>2020-05-22T13:39:11Z</time>
      </trkpt>
      <trkpt lat="48.71384" lon="7.22057">
        <ele>242.9</ele>
        <time>2020-05-22T13:39:13Z</time>
      </trkpt>
      <trkpt lat="48.71383" lon="7.22054">
        <ele>243.2</ele>
        <time>2020-05-22T13:39:15Z</time>
      </trkpt>
      <trkpt lat="48.71383" lon="7.22053">
        <ele>243.3</ele>
        <time>2020-05-22T13:39:16Z</time>
      </trkpt>
      <trkpt lat="48.7138" lon="7.22049">
        <ele>243.8</ele>
        <time>2020-05-22T13:39:18Z</time>
      </trkpt>
      <trkpt lat="48.71379" lon="7.22048">
        <ele>244</ele>
        <time>2020-05-22T13:39:19Z</time>
      </trkpt>
      <trkpt lat="48.71377" lon="7.22045">
        <ele>244.3</ele>
        <time>2020-05-22T13:39:21Z</time>
      </trkpt>
      <trkpt lat="48.71376" lon="7.22043">
        <ele>244.6</ele>
        <time>2020-05-22T13:39:22Z</time>
      </trkpt>
      <trkpt lat="48.71376" lon="7.22041">
        <ele>244.7</ele>
        <time>2020-05-22T13:39:24Z</time>
      </trkpt>
      <trkpt lat="48.71375" lon="7.2204">
        <ele>244.9</ele>
        <time>2020-05-22T13:39:25Z</time>
      </trkpt>
      <trkpt lat="48.71374" lon="7.22038">
        <ele>245.2</ele>
        <time>2020-05-22T13:39:27Z</time>
      </trkpt>
      <trkpt lat="48.71371" lon="7.22036">
        <ele>245.6</ele>
        <time>2020-05-22T13:39:29Z</time>
      </trkpt>
      <trkpt lat="48.71368" lon="7.22033">
        <ele>246.2</ele>
        <time>2020-05-22T13:39:31Z</time>
      </trkpt>
      <trkpt lat="48.71367" lon="7.22032">
        <ele>246.4</ele>
        <time>2020-05-22T13:39:32Z</time>
      </trkpt>
      <trkpt lat="48.71365" lon="7.22029">
        <ele>246.7</ele>
        <time>2020-05-22T13:39:34Z</time>
      </trkpt>
      <trkpt lat="48.71365" lon="7.22025">
        <ele>247.2</ele>
        <time>2020-05-22T13:39:36Z</time>
      </trkpt>
      <trkpt lat="48.71365" lon="7.22023">
        <ele>247.4</ele>
        <time>2020-05-22T13:39:37Z</time>
      </trkpt>
      <trkpt lat="48.71363" lon="7.22019">
        <ele>247.8</ele>
        <time>2020-05-22T13:39:39Z</time>
      </trkpt>
      <trkpt lat="48.7136" lon="7.22016">
        <ele>248.4</ele>
        <time>2020-05-22T13:39:41Z</time>
      </trkpt>
      <trkpt lat="48.71357" lon="7.22011">
        <ele>248.9</ele>
        <time>2020-05-22T13:39:43Z</time>
      </trkpt>
      <trkpt lat="48.71355" lon="7.22009">
        <ele>249.2</ele>
        <time>2020-05-22T13:39:44Z</time>
      </trkpt>
      <trkpt lat="48.71353" lon="7.22006">
        <ele>249.6</ele>
        <time>2020-05-22T13:39:46Z</time>
      </trkpt>
      <trkpt lat="48.71352" lon="7.22005">
        <ele>249.8</ele>
        <time>2020-05-22T13:39:47Z</time>
      </trkpt>
      <trkpt lat="48.71349" lon="7.22001">
        <ele>250.2</ele>
        <time>2020-05-22T13:39:49Z</time>
      </trkpt>
      <trkpt lat="48.71348" lon="7.21997">
        <ele>250.7</ele>
        <time>2020-05-22T13:39:51Z</time>
      </trkpt>
      <trkpt lat="48.71346" lon="7.21995">
        <ele>250.9</ele>
        <time>2020-05-22T13:39:52Z</time>
      </trkpt>
      <trkpt lat="48.71345" lon="7.21994">
        <ele>251.1</ele>
        <time>2020-05-22T13:39:53Z</time>
      </trkpt>
      <trkpt lat="48.71342" lon="7.21991">
        <ele>251.7</ele>
        <time>2020-05-22T13:39:55Z</time>
      </trkpt>
      <trkpt lat="48.71339" lon="7.21989">
        <ele>252.4</ele>
        <time>2020-05-22T13:39:57Z</time>
      </trkpt>
      <trkpt lat="48.71337" lon="7.21986">
        <ele>253</ele>
        <time>2020-05-22T13:39:59Z</time>
      </trkpt>
      <trkpt lat="48.71336" lon="7.21985">
        <ele>253.2</ele>
        <time>2020-05-22T13:40:00Z</time>
      </trkpt>
      <trkpt lat="48.71335" lon="7.21983">
        <ele>253.4</ele>
        <time>2020-05-22T13:40:01Z</time>
      </trkpt>
      <trkpt lat="48.71332" lon="7.21981">
        <ele>254</ele>
        <time>2020-05-22T13:40:03Z</time>
      </trkpt>
      <trkpt lat="48.71331" lon="7.2198">
        <ele>254.3</ele>
        <time>2020-05-22T13:40:04Z</time>
      </trkpt>
      <trkpt lat="48.71329" lon="7.21977">
        <ele>254.8</ele>
        <time>2020-05-22T13:40:06Z</time>
      </trkpt>
      <trkpt lat="48.71327" lon="7.21976">
        <ele>255.1</ele>
        <time>2020-05-22T13:40:07Z</time>
      </trkpt>
      <trkpt lat="48.71324" lon="7.21971">
        <ele>255.8</ele>
        <time>2020-05-22T13:40:09Z</time>
      </trkpt>
      <trkpt lat="48.71323" lon="7.21968">
        <ele>256.2</ele>
        <time>2020-05-22T13:40:10Z</time>
      </trkpt>
      <trkpt lat="48.71321" lon="7.21965">
        <ele>256.8</ele>
        <time>2020-05-22T13:40:12Z</time>
      </trkpt>
      <trkpt lat="48.7132" lon="7.21964">
        <ele>256.9</ele>
        <time>2020-05-22T13:40:13Z</time>
      </trkpt>
      <trkpt lat="48.7132" lon="7.21961">
        <ele>257.3</ele>
        <time>2020-05-22T13:40:15Z</time>
      </trkpt>
      <trkpt lat="48.71319" lon="7.21959">
        <ele>257.6</ele>
        <time>2020-05-22T13:40:16Z</time>
      </trkpt>
      <trkpt lat="48.71318" lon="7.21955">
        <ele>258</ele>
        <time>2020-05-22T13:40:18Z</time>
      </trkpt>
      <trkpt lat="48.71315" lon="7.21954">
        <ele>258.5</ele>
        <time>2020-05-22T13:40:20Z</time>
      </trkpt>
      <trkpt lat="48.71312" lon="7.21952">
        <ele>259</ele>
        <time>2020-05-22T13:40:22Z</time>
      </trkpt>
      <trkpt lat="48.71311" lon="7.21949">
        <ele>259.3</ele>
        <time>2020-05-22T13:40:23Z</time>
      </trkpt>
      <trkpt lat="48.7131" lon="7.21946">
        <ele>259.5</ele>
        <time>2020-05-22T13:40:25Z</time>
      </trkpt>
      <trkpt lat="48.71309" lon="7.21944">
        <ele>259.8</ele>
        <time>2020-05-22T13:40:27Z</time>
      </trkpt>
      <trkpt lat="48.71306" lon="7.21942">
        <ele>260</ele>
        <time>2020-05-22T13:40:29Z</time>
      </trkpt>
      <trkpt lat="48.71304" lon="7.21941">
        <ele>260.2</ele>
        <time>2020-05-22T13:40:30Z</time>
      </trkpt>
      <trkpt lat="48.71302" lon="7.21941">
        <ele>260.5</ele>
        <time>2020-05-22T13:40:32Z</time>
      </trkpt>
      <trkpt lat="48.71301" lon="7.21941">
        <ele>260.6</ele>
        <time>2020-05-22T13:40:33Z</time>
      </trkpt>
      <trkpt lat="48.71299" lon="7.2194">
        <ele>260.8</ele>
        <time>2020-05-22T13:40:34Z</time>
      </trkpt>
      <trkpt lat="48.71295" lon="7.21939">
        <ele>261.2</ele>
        <time>2020-05-22T13:40:36Z</time>
      </trkpt>
      <trkpt lat="48.71294" lon="7.21937">
        <ele>261.4</ele>
        <time>2020-05-22T13:40:37Z</time>
      </trkpt>
      <trkpt lat="48.71291" lon="7.21935">
        <ele>262</ele>
        <time>2020-05-22T13:40:39Z</time>
      </trkpt>
      <trkpt lat="48.71289" lon="7.21935">
        <ele>262.3</ele>
        <time>2020-05-22T13:40:41Z</time>
      </trkpt>
      <trkpt lat="48.71288" lon="7.21935">
        <ele>262.5</ele>
        <time>2020-05-22T13:40:42Z</time>
      </trkpt>
      <trkpt lat="48.71285" lon="7.21935">
        <ele>263</ele>
        <time>2020-05-22T13:40:44Z</time>
      </trkpt>
      <trkpt lat="48.71284" lon="7.21934">
        <ele>263.1</ele>
        <time>2020-05-22T13:40:45Z</time>
      </trkpt>
      <trkpt lat="48.71283" lon="7.21934">
        <ele>263.3</ele>
        <time>2020-05-22T13:40:46Z</time>
      </trkpt>
      <trkpt lat="48.7128" lon="7.21932">
        <ele>263.8</ele>
        <time>2020-05-22T13:40:48Z</time>
      </trkpt>
      <trkpt lat="48.71278" lon="7.21931">
        <ele>264.2</ele>
        <time>2020-05-22T13:40:49Z</time>
      </trkpt>
      <trkpt lat="48.71277" lon="7.21931">
        <ele>264.4</ele>
        <time>2020-05-22T13:40:50Z</time>
      </trkpt>
      <trkpt lat="48.71276" lon="7.2193">
        <ele>264.6</ele>
        <time>2020-05-22T13:40:51Z</time>
      </trkpt>
      <trkpt lat="48.71274" lon="7.21929">
        <ele>265</ele>
        <time>2020-05-22T13:40:53Z</time>
      </trkpt>
      <trkpt lat="48.71271" lon="7.21927">
        <ele>265.5</ele>
        <time>2020-05-22T13:40:55Z</time>
      </trkpt>
      <trkpt lat="48.71268" lon="7.21926">
        <ele>266</ele>
        <time>2020-05-22T13:40:57Z</time>
      </trkpt>
      <trkpt lat="48.71267" lon="7.21925">
        <ele>266.2</ele>
        <time>2020-05-22T13:40:58Z</time>
      </trkpt>
      <trkpt lat="48.71264" lon="7.21925">
        <ele>266.7</ele>
        <time>2020-05-22T13:41:00Z</time>
      </trkpt>
      <trkpt lat="48.71261" lon="7.21925">
        <ele>267.1</ele>
        <time>2020-05-22T13:41:02Z</time>
      </trkpt>
      <trkpt lat="48.71259" lon="7.21924">
        <ele>267.4</ele>
        <time>2020-05-22T13:41:04Z</time>
      </trkpt>
      <trkpt lat="48.71257" lon="7.21924">
        <ele>267.7</ele>
        <time>2020-05-22T13:41:05Z</time>
      </trkpt>
      <trkpt lat="48.71253" lon="7.21923">
        <ele>268.1</ele>
        <time>2020-05-22T13:41:07Z</time>
      </trkpt>
      <trkpt lat="48.71251" lon="7.21923">
        <ele>268.5</ele>
        <time>2020-05-22T13:41:09Z</time>
      </trkpt>
      <trkpt lat="48.71249" lon="7.21922">
        <ele>268.8</ele>
        <time>2020-05-22T13:41:10Z</time>
      </trkpt>
      <trkpt lat="48.71247" lon="7.2192">
        <ele>269</ele>
        <time>2020-05-22T13:41:11Z</time>
      </trkpt>
      <trkpt lat="48.71244" lon="7.2192">
        <ele>269.4</ele>
        <time>2020-05-22T13:41:13Z</time>
      </trkpt>
      <trkpt lat="48.71244" lon="7.2192">
        <ele>269.5</ele>
        <time>2020-05-22T13:41:14Z</time>
      </trkpt>
      <trkpt lat="48.71242" lon="7.21919">
        <ele>269.8</ele>
        <time>2020-05-22T13:41:16Z</time>
      </trkpt>
      <trkpt lat="48.71239" lon="7.21919">
        <ele>270.1</ele>
        <time>2020-05-22T13:41:18Z</time>
      </trkpt>
      <trkpt lat="48.71235" lon="7.21917">
        <ele>270.7</ele>
        <time>2020-05-22T13:41:20Z</time>
      </trkpt>
      <trkpt lat="48.71234" lon="7.21917">
        <ele>270.8</ele>
        <time>2020-05-22T13:41:22Z</time>
      </trkpt>
      <trkpt lat="48.71233" lon="7.21916">
        <ele>271</ele>
        <time>2020-05-22T13:41:23Z</time>
      </trkpt>
      <trkpt lat="48.7123" lon="7.21915">
        <ele>271.4</ele>
        <time>2020-05-22T13:41:25Z</time>
      </trkpt>
      <trkpt lat="48.71227" lon="7.21914">
        <ele>271.8</ele>
        <time>2020-05-22T13:41:27Z</time>
      </trkpt>
      <trkpt lat="48.71224" lon="7.21913">
        <ele>272.2</ele>
        <time>2020-05-22T13:41:29Z</time>
      </trkpt>
      <trkpt lat="48.71223" lon="7.21913">
        <ele>272.4</ele>
        <time>2020-05-22T13:41:30Z</time>
      </trkpt>
      <trkpt lat="48.71221" lon="7.21913">
        <ele>272.6</ele>
        <time>2020-05-22T13:41:32Z</time>
      </trkpt>
      <trkpt lat="48.71219" lon="7.21913">
        <ele>273</ele>
        <time>2020-05-22T13:41:34Z</time>
      </trkpt>
      <trkpt lat="48.71218" lon="7.21912">
        <ele>273.1</ele>
        <time>2020-05-22T13:41:35Z</time>
      </trkpt>
      <trkpt lat="48.71214" lon="7.21911">
        <ele>273.6</ele>
        <time>2020-05-22T13:41:37Z</time>
      </trkpt>
      <trkpt lat="48.71211" lon="7.2191">
        <ele>274.1</ele>
        <time>2020-05-22T13:41:39Z</time>
      </trkpt>
      <trkpt lat="48.7121" lon="7.21909">
        <ele>274.2</ele>
        <time>2020-05-22T13:41:40Z</time>
      </trkpt>
      <trkpt lat="48.71209" lon="7.21909">
        <ele>274.4</ele>
        <time>2020-05-22T13:41:42Z</time>
      </trkpt>
      <trkpt lat="48.71207" lon="7.21908">
        <ele>274.6</ele>
        <time>2020-05-22T13:41:44Z</time>
      </trkpt>
      <trkpt lat="48.71204" lon="7.21908">
        <ele>275</ele>
        <time>2020-05-22T13:41:46Z</time>
      </trkpt>
      <trkpt lat="48.71201" lon="7.21908">
        <ele>275.4</ele>
        <time>2020-05-22T13:41:48Z</time>
      </trkpt>
      <trkpt lat="48.712" lon="7.21908">
        <ele>275.6</ele>
        <time>2020-05-22T13:41:49Z</time>
      </trkpt>
      <trkpt lat="48.71196" lon="7.21907">
        <ele>276.1</ele>
        <time>2020-05-22T13:41:51Z</time>
      </trkpt>
      <trkpt lat="48.71195" lon="7.21906">
        <ele>276.3</ele>
        <time>2020-05-22T13:41:52Z</time>
      </trkpt>
      <trkpt lat="48.71191" lon="7.21906">
        <ele>276.8</ele>
        <time>2020-05-22T13:41:54Z</time>
      </trkpt>
      <trkpt lat="48.71187" lon="7.21906">
        <ele>277.4</ele>
        <time>2020-05-22T13:41:56Z</time>
      </trkpt>
      <trkpt lat="48.71183" lon="7.21905">
        <ele>277.8</ele>
        <time>2020-05-22T13:41:58Z</time>
      </trkpt>
      <trkpt lat="48.71182" lon="7.21905">
        <ele>277.9</ele>
        <time>2020-05-22T13:41:59Z</time>
      </trkpt>
      <trkpt lat="48.7118" lon="7.21904">
        <ele>278.2</ele>
        <time>2020-05-22T13:42:01Z</time>
      </trkpt>
      <trkpt lat="48.71178" lon="7.21903">
        <ele>278.4</ele>
        <time>2020-05-22T13:42:02Z</time>
      </trkpt>
      <trkpt lat="48.71176" lon="7.21903">
        <ele>278.7</ele>
        <time>2020-05-22T13:42:04Z</time>
      </trkpt>
      <trkpt lat="48.71172" lon="7.21902">
        <ele>279.1</ele>
        <time>2020-05-22T13:42:06Z</time>
      </trkpt>
      <trkpt lat="48.71171" lon="7.21902">
        <ele>279.2</ele>
        <time>2020-05-22T13:42:08Z</time>
      </trkpt>
      <trkpt lat="48.7117" lon="7.21901">
        <ele>279.3</ele>
        <time>2020-05-22T13:42:09Z</time>
      </trkpt>
      <trkpt lat="48.71167" lon="7.21901">
        <ele>279.6</ele>
        <time>2020-05-22T13:42:11Z</time>
      </trkpt>
      <trkpt lat="48.71163" lon="7.219">
        <ele>280.1</ele>
        <time>2020-05-22T13:42:13Z</time>
      </trkpt>
      <trkpt lat="48.71161" lon="7.219">
        <ele>280.3</ele>
        <time>2020-05-22T13:42:15Z</time>
      </trkpt>
      <trkpt lat="48.7116" lon="7.219">
        <ele>280.4</ele>
        <time>2020-05-22T13:42:17Z</time>
      </trkpt>
      <trkpt lat="48.71158" lon="7.219">
        <ele>280.6</ele>
        <time>2020-05-22T13:42:18Z</time>
      </trkpt>
      <trkpt lat="48.71155" lon="7.219">
        <ele>280.9</ele>
        <time>2020-05-22T13:42:20Z</time>
      </trkpt>
      <trkpt lat="48.71153" lon="7.219">
        <ele>281.1</ele>
        <time>2020-05-22T13:42:21Z</time>
      </trkpt>
      <trkpt lat="48.7115" lon="7.21898">
        <ele>281.5</ele>
        <time>2020-05-22T13:42:23Z</time>
      </trkpt>
      <trkpt lat="48.71147" lon="7.21897">
        <ele>281.8</ele>
        <time>2020-05-22T13:42:25Z</time>
      </trkpt>
      <trkpt lat="48.71143" lon="7.21897">
        <ele>282.2</ele>
        <time>2020-05-22T13:42:27Z</time>
      </trkpt>
      <trkpt lat="48.7114" lon="7.21896">
        <ele>282.5</ele>
        <time>2020-05-22T13:42:29Z</time>
      </trkpt>
      <trkpt lat="48.71137" lon="7.21895">
        <ele>282.8</ele>
        <time>2020-05-22T13:42:31Z</time>
      </trkpt>
      <trkpt lat="48.71133" lon="7.21895">
        <ele>283.1</ele>
        <time>2020-05-22T13:42:33Z</time>
      </trkpt>
      <trkpt lat="48.71132" lon="7.21895">
        <ele>283.2</ele>
        <time>2020-05-22T13:42:34Z</time>
      </trkpt>
      <trkpt lat="48.71128" lon="7.21895">
        <ele>283.6</ele>
        <time>2020-05-22T13:42:36Z</time>
      </trkpt>
      <trkpt lat="48.71126" lon="7.21895">
        <ele>283.8</ele>
        <time>2020-05-22T13:42:37Z</time>
      </trkpt>
      <trkpt lat="48.71124" lon="7.21895">
        <ele>284</ele>
        <time>2020-05-22T13:42:39Z</time>
      </trkpt>
      <trkpt lat="48.71122" lon="7.21895">
        <ele>284.2</ele>
        <time>2020-05-22T13:42:41Z</time>
      </trkpt>
      <trkpt lat="48.71122" lon="7.21895">
        <ele>284.2</ele>
        <time>2020-05-22T13:42:42Z</time>
      </trkpt>
      <trkpt lat="48.71118" lon="7.21895">
        <ele>284.6</ele>
        <time>2020-05-22T13:42:44Z</time>
      </trkpt>
      <trkpt lat="48.71117" lon="7.21895">
        <ele>284.7</ele>
        <time>2020-05-22T13:42:45Z</time>
      </trkpt>
      <trkpt lat="48.71112" lon="7.21895">
        <ele>285.2</ele>
        <time>2020-05-22T13:42:47Z</time>
      </trkpt>
      <trkpt lat="48.7111" lon="7.21894">
        <ele>285.5</ele>
        <time>2020-05-22T13:42:48Z</time>
      </trkpt>
      <trkpt lat="48.71108" lon="7.21893">
        <ele>285.8</ele>
        <time>2020-05-22T13:42:50Z</time>
      </trkpt>
      <trkpt lat="48.71104" lon="7.21893">
        <ele>286.2</ele>
        <time>2020-05-22T13:42:52Z</time>
      </trkpt>
      <trkpt lat="48.71103" lon="7.21894">
        <ele>286.4</ele>
        <time>2020-05-22T13:42:53Z</time>
      </trkpt>
      <trkpt lat="48.71101" lon="7.21894">
        <ele>286.6</ele>
        <time>2020-05-22T13:42:54Z</time>
      </trkpt>
      <trkpt lat="48.71098" lon="7.21893">
        <ele>286.9</ele>
        <time>2020-05-22T13:42:56Z</time>
      </trkpt>
      <trkpt lat="48.71097" lon="7.21892">
        <ele>287.1</ele>
        <time>2020-05-22T13:42:58Z</time>
      </trkpt>
      <trkpt lat="48.71094" lon="7.21892">
        <ele>287.4</ele>
        <time>2020-05-22T13:43:00Z</time>
      </trkpt>
      <trkpt lat="48.71092" lon="7.21892">
        <ele>287.6</ele>
        <time>2020-05-22T13:43:01Z</time>
      </trkpt>
      <trkpt lat="48.7109" lon="7.21892">
        <ele>287.8</ele>
        <time>2020-05-22T13:43:02Z</time>
      </trkpt>
      <trkpt lat="48.71087" lon="7.21891">
        <ele>288.2</ele>
        <time>2020-05-22T13:43:04Z</time>
      </trkpt>
      <trkpt lat="48.71086" lon="7.2189">
        <ele>288.3</ele>
        <time>2020-05-22T13:43:05Z</time>
      </trkpt>
      <trkpt lat="48.71085" lon="7.2189">
        <ele>288.4</ele>
        <time>2020-05-22T13:43:06Z</time>
      </trkpt>
      <trkpt lat="48.71082" lon="7.2189">
        <ele>288.7</ele>
        <time>2020-05-22T13:43:08Z</time>
      </trkpt>
      <trkpt lat="48.71079" lon="7.2189">
        <ele>289.1</ele>
        <time>2020-05-22T13:43:10Z</time>
      </trkpt>
      <trkpt lat="48.71077" lon="7.21891">
        <ele>289.3</ele>
        <time>2020-05-22T13:43:11Z</time>
      </trkpt>
      <trkpt lat="48.71075" lon="7.21892">
        <ele>289.6</ele>
        <time>2020-05-22T13:43:13Z</time>
      </trkpt>
      <trkpt lat="48.71073" lon="7.21892">
        <ele>289.7</ele>
        <time>2020-05-22T13:43:14Z</time>
      </trkpt>
      <trkpt lat="48.71071" lon="7.21893">
        <ele>289.9</ele>
        <time>2020-05-22T13:43:15Z</time>
      </trkpt>
      <trkpt lat="48.71068" lon="7.21894">
        <ele>290.3</ele>
        <time>2020-05-22T13:43:17Z</time>
      </trkpt>
      <trkpt lat="48.71066" lon="7.21893">
        <ele>290.6</ele>
        <time>2020-05-22T13:43:19Z</time>
      </trkpt>
      <trkpt lat="48.71062" lon="7.21893">
        <ele>290.9</ele>
        <time>2020-05-22T13:43:22Z</time>
      </trkpt>
      <trkpt lat="48.71061" lon="7.21894">
        <ele>291.1</ele>
        <time>2020-05-22T13:43:23Z</time>
      </trkpt>
      <trkpt lat="48.71059" lon="7.21894">
        <ele>291.3</ele>
        <time>2020-05-22T13:43:25Z</time>
      </trkpt>
      <trkpt lat="48.71057" lon="7.21894">
        <ele>291.5</ele>
        <time>2020-05-22T13:43:26Z</time>
      </trkpt>
      <trkpt lat="48.71054" lon="7.21893">
        <ele>291.8</ele>
        <time>2020-05-22T13:43:28Z</time>
      </trkpt>
      <trkpt lat="48.71053" lon="7.21893">
        <ele>292</ele>
        <time>2020-05-22T13:43:29Z</time>
      </trkpt>
      <trkpt lat="48.71052" lon="7.21892">
        <ele>292.1</ele>
        <time>2020-05-22T13:43:30Z</time>
      </trkpt>
      <trkpt lat="48.71049" lon="7.2189">
        <ele>292.4</ele>
        <time>2020-05-22T13:43:32Z</time>
      </trkpt>
      <trkpt lat="48.71046" lon="7.2189">
        <ele>292.8</ele>
        <time>2020-05-22T13:43:34Z</time>
      </trkpt>
      <trkpt lat="48.71044" lon="7.2189">
        <ele>293</ele>
        <time>2020-05-22T13:43:35Z</time>
      </trkpt>
      <trkpt lat="48.71043" lon="7.2189">
        <ele>293.2</ele>
        <time>2020-05-22T13:43:36Z</time>
      </trkpt>
      <trkpt lat="48.71041" lon="7.2189">
        <ele>293.4</ele>
        <time>2020-05-22T13:43:37Z</time>
      </trkpt>
      <trkpt lat="48.71038" lon="7.2189">
        <ele>293.8</ele>
        <time>2020-05-22T13:43:39Z</time>
      </trkpt>
      <trkpt lat="48.71033" lon="7.2189">
        <ele>294.6</ele>
        <time>2020-05-22T13:43:41Z</time>
      </trkpt>
      <trkpt lat="48.71032" lon="7.2189">
        <ele>294.8</ele>
        <time>2020-05-22T13:43:43Z</time>
      </trkpt>
      <trkpt lat="48.7103" lon="7.21889">
        <ele>295</ele>
        <time>2020-05-22T13:43:44Z</time>
      </trkpt>
      <trkpt lat="48.71029" lon="7.21889">
        <ele>295.3</ele>
        <time>2020-05-22T13:43:45Z</time>
      </trkpt>
      <trkpt lat="48.71024" lon="7.21889">
        <ele>296</ele>
        <time>2020-05-22T13:43:47Z</time>
      </trkpt>
      <trkpt lat="48.71021" lon="7.21889">
        <ele>296.6</ele>
        <time>2020-05-22T13:43:49Z</time>
      </trkpt>
      <trkpt lat="48.71019" lon="7.21888">
        <ele>296.9</ele>
        <time>2020-05-22T13:43:50Z</time>
      </trkpt>
      <trkpt lat="48.71018" lon="7.21888">
        <ele>297.1</ele>
        <time>2020-05-22T13:43:51Z</time>
      </trkpt>
      <trkpt lat="48.71015" lon="7.21889">
        <ele>297.6</ele>
        <time>2020-05-22T13:43:53Z</time>
      </trkpt>
      <trkpt lat="48.71013" lon="7.2189">
        <ele>297.8</ele>
        <time>2020-05-22T13:43:54Z</time>
      </trkpt>
      <trkpt lat="48.71012" lon="7.2189">
        <ele>298.1</ele>
        <time>2020-05-22T13:43:55Z</time>
      </trkpt>
      <trkpt lat="48.71008" lon="7.21891">
        <ele>298.5</ele>
        <time>2020-05-22T13:43:57Z</time>
      </trkpt>
      <trkpt lat="48.71005" lon="7.21891">
        <ele>299</ele>
        <time>2020-05-22T13:43:59Z</time>
      </trkpt>
      <trkpt lat="48.71001" lon="7.2189">
        <ele>299.4</ele>
        <time>2020-05-22T13:44:01Z</time>
      </trkpt>
      <trkpt lat="48.70997" lon="7.21891">
        <ele>299.9</ele>
        <time>2020-05-22T13:44:03Z</time>
      </trkpt>
      <trkpt lat="48.70993" lon="7.21892">
        <ele>300.4</ele>
        <time>2020-05-22T13:44:05Z</time>
      </trkpt>
      <trkpt lat="48.70989" lon="7.21893">
        <ele>300.9</ele>
        <time>2020-05-22T13:44:07Z</time>
      </trkpt>
      <trkpt lat="48.70986" lon="7.21893">
        <ele>301.2</ele>
        <time>2020-05-22T13:44:09Z</time>
      </trkpt>
      <trkpt lat="48.70983" lon="7.21895">
        <ele>301.4</ele>
        <time>2020-05-22T13:44:11Z</time>
      </trkpt>
      <trkpt lat="48.7098" lon="7.21896">
        <ele>301.7</ele>
        <time>2020-05-22T13:44:13Z</time>
      </trkpt>
      <trkpt lat="48.70978" lon="7.21896">
        <ele>301.9</ele>
        <time>2020-05-22T13:44:14Z</time>
      </trkpt>
      <trkpt lat="48.70976" lon="7.21896">
        <ele>302</ele>
        <time>2020-05-22T13:44:15Z</time>
      </trkpt>
      <trkpt lat="48.70975" lon="7.21896">
        <ele>302.1</ele>
        <time>2020-05-22T13:44:16Z</time>
      </trkpt>
      <trkpt lat="48.70974" lon="7.21896">
        <ele>302.2</ele>
        <time>2020-05-22T13:44:17Z</time>
      </trkpt>
      <trkpt lat="48.7097" lon="7.21897">
        <ele>302.5</ele>
        <time>2020-05-22T13:44:19Z</time>
      </trkpt>
      <trkpt lat="48.70968" lon="7.21897">
        <ele>302.7</ele>
        <time>2020-05-22T13:44:21Z</time>
      </trkpt>
      <trkpt lat="48.70966" lon="7.21897">
        <ele>302.8</ele>
        <time>2020-05-22T13:44:22Z</time>
      </trkpt>
      <trkpt lat="48.70963" lon="7.21897">
        <ele>303.1</ele>
        <time>2020-05-22T13:44:24Z</time>
      </trkpt>
      <trkpt lat="48.7096" lon="7.21899">
        <ele>303.5</ele>
        <time>2020-05-22T13:44:26Z</time>
      </trkpt>
      <trkpt lat="48.70958" lon="7.21899">
        <ele>303.6</ele>
        <time>2020-05-22T13:44:27Z</time>
      </trkpt>
      <trkpt lat="48.70957" lon="7.21899">
        <ele>303.7</ele>
        <time>2020-05-22T13:44:28Z</time>
      </trkpt>
      <trkpt lat="48.70956" lon="7.219">
        <ele>303.9</ele>
        <time>2020-05-22T13:44:29Z</time>
      </trkpt>
      <trkpt lat="48.70954" lon="7.21905">
        <ele>304.3</ele>
        <time>2020-05-22T13:44:31Z</time>
      </trkpt>
      <trkpt lat="48.70952" lon="7.21907">
        <ele>304.6</ele>
        <time>2020-05-22T13:44:33Z</time>
      </trkpt>
      <trkpt lat="48.70951" lon="7.21907">
        <ele>304.7</ele>
        <time>2020-05-22T13:44:34Z</time>
      </trkpt>
      <trkpt lat="48.70949" lon="7.21907">
        <ele>304.9</ele>
        <time>2020-05-22T13:44:35Z</time>
      </trkpt>
      <trkpt lat="48.70947" lon="7.21907">
        <ele>305.1</ele>
        <time>2020-05-22T13:44:37Z</time>
      </trkpt>
      <trkpt lat="48.70944" lon="7.21908">
        <ele>305.3</ele>
        <time>2020-05-22T13:44:39Z</time>
      </trkpt>
      <trkpt lat="48.70942" lon="7.21907">
        <ele>305.5</ele>
        <time>2020-05-22T13:44:41Z</time>
      </trkpt>
      <trkpt lat="48.70941" lon="7.21908">
        <ele>305.6</ele>
        <time>2020-05-22T13:44:42Z</time>
      </trkpt>
      <trkpt lat="48.7094" lon="7.21908">
        <ele>305.7</ele>
        <time>2020-05-22T13:44:43Z</time>
      </trkpt>
      <trkpt lat="48.70937" lon="7.21908">
        <ele>306</ele>
        <time>2020-05-22T13:44:45Z</time>
      </trkpt>
      <trkpt lat="48.70934" lon="7.21909">
        <ele>306.3</ele>
        <time>2020-05-22T13:44:47Z</time>
      </trkpt>
      <trkpt lat="48.70933" lon="7.21908">
        <ele>306.4</ele>
        <time>2020-05-22T13:44:48Z</time>
      </trkpt>
      <trkpt lat="48.7093" lon="7.21908">
        <ele>306.7</ele>
        <time>2020-05-22T13:44:50Z</time>
      </trkpt>
      <trkpt lat="48.70928" lon="7.21908">
        <ele>306.9</ele>
        <time>2020-05-22T13:44:51Z</time>
      </trkpt>
      <trkpt lat="48.70926" lon="7.21908">
        <ele>307.2</ele>
        <time>2020-05-22T13:44:53Z</time>
      </trkpt>
      <trkpt lat="48.70921" lon="7.21907">
        <ele>307.7</ele>
        <time>2020-05-22T13:44:55Z</time>
      </trkpt>
      <trkpt lat="48.7092" lon="7.21907">
        <ele>307.8</ele>
        <time>2020-05-22T13:44:57Z</time>
      </trkpt>
      <trkpt lat="48.70919" lon="7.21906">
        <ele>307.9</ele>
        <time>2020-05-22T13:44:58Z</time>
      </trkpt>
      <trkpt lat="48.70917" lon="7.21906">
        <ele>308.2</ele>
        <time>2020-05-22T13:45:00Z</time>
      </trkpt>
      <trkpt lat="48.70913" lon="7.21905">
        <ele>308.5</ele>
        <time>2020-05-22T13:45:02Z</time>
      </trkpt>
      <trkpt lat="48.70912" lon="7.21905">
        <ele>308.7</ele>
        <time>2020-05-22T13:45:03Z</time>
      </trkpt>
      <trkpt lat="48.70909" lon="7.21904">
        <ele>309</ele>
        <time>2020-05-22T13:45:05Z</time>
      </trkpt>
      <trkpt lat="48.70908" lon="7.21904">
        <ele>309.1</ele>
        <time>2020-05-22T13:45:06Z</time>
      </trkpt>
      <trkpt lat="48.70906" lon="7.21903">
        <ele>309.5</ele>
        <time>2020-05-22T13:45:08Z</time>
      </trkpt>
      <trkpt lat="48.70903" lon="7.21903">
        <ele>309.8</ele>
        <time>2020-05-22T13:45:10Z</time>
      </trkpt>
      <trkpt lat="48.70901" lon="7.21902">
        <ele>310.1</ele>
        <time>2020-05-22T13:45:12Z</time>
      </trkpt>
      <trkpt lat="48.709" lon="7.21901">
        <ele>310.3</ele>
        <time>2020-05-22T13:45:13Z</time>
      </trkpt>
      <trkpt lat="48.70896" lon="7.21899">
        <ele>310.7</ele>
        <time>2020-05-22T13:45:15Z</time>
      </trkpt>
      <trkpt lat="48.70895" lon="7.21898">
        <ele>310.9</ele>
        <time>2020-05-22T13:45:16Z</time>
      </trkpt>
      <trkpt lat="48.70891" lon="7.21898">
        <ele>311.3</ele>
        <time>2020-05-22T13:45:18Z</time>
      </trkpt>
      <trkpt lat="48.7089" lon="7.21898">
        <ele>311.6</ele>
        <time>2020-05-22T13:45:19Z</time>
      </trkpt>
      <trkpt lat="48.70886" lon="7.21897">
        <ele>312</ele>
        <time>2020-05-22T13:45:21Z</time>
      </trkpt>
      <trkpt lat="48.70884" lon="7.21896">
        <ele>312.4</ele>
        <time>2020-05-22T13:45:23Z</time>
      </trkpt>
      <trkpt lat="48.70881" lon="7.21896">
        <ele>312.8</ele>
        <time>2020-05-22T13:45:25Z</time>
      </trkpt>
      <trkpt lat="48.70878" lon="7.21897">
        <ele>313.2</ele>
        <time>2020-05-22T13:45:26Z</time>
      </trkpt>
      <trkpt lat="48.70877" lon="7.21897">
        <ele>313.4</ele>
        <time>2020-05-22T13:45:27Z</time>
      </trkpt>
      <trkpt lat="48.70876" lon="7.21897">
        <ele>313.6</ele>
        <time>2020-05-22T13:45:28Z</time>
      </trkpt>
      <trkpt lat="48.70875" lon="7.21899">
        <ele>313.7</ele>
        <time>2020-05-22T13:45:29Z</time>
      </trkpt>
      <trkpt lat="48.70874" lon="7.21903">
        <ele>313.9</ele>
        <time>2020-05-22T13:45:31Z</time>
      </trkpt>
    </trkseg>
  </trk>
</gpx>